     2              OBSERVATION DATA    GPS                 RINEX VERSION / TYPE
ASRINEXO V2.7.2 UX SOPAC 02-MAR- 0 15:32                    PGM / RUN BY / DATE
                                                            COMMENT
Original Marker Name: 0109                                  COMMENT
Campaign Name: HPGN 1991                                    COMMENT
4-Character Station Name: 0109                              COMMENT
6-Character Antenna Code: ASHL12                            COMMENT
Vertical Measurement Point: BAS                             COMMENT
Vertical Offset to Rinex Ref. Point: 0.0000                 COMMENT
Radial Measurement Point: RRP                               COMMENT
Radial Offset to Rinex Ref. Point: 0.0000                   COMMENT
Antenna Height from Field Measurement: 2.2150 m             COMMENT
Additional Antenna Identification Info.:                    COMMENT
Original Ashtech L1/L2                                      COMMENT
Original XYZ: -2444932.0900 -4172846.1100 4146690.8600      COMMENT
New XYZ position is based on association with SCEC monument COMMENT
E1N5Z1M6+0011. Position of that monument is believed to be  COMMENT
valid to within 1 m horizontally; vertical accuracy         COMMENT
should be no worse than 3-times this value.                 COMMENT
                                                            COMMENT
Revised Rinex header created by UCSD GPS archive for        COMMENT
GSAC on 17-Mar-2000 (2000:077) 22:34:29 GMT                 COMMENT
For assistance contact dagnew@ucsd.edu or hjohnson@ucsd.edu COMMENT
                                                            COMMENT
HPGN CA 01 09                                               MARKER NAME
JDC CALIF DEPT TRANSPORTATION                               OBSERVER / AGENCY
619 ASHTECH L-XII 6A                                        REC # / TYPE / VERS
617 ASHTECH GEODETIC L                                      ANT # / TYPE
 -2704844.3325 -3992428.4286  4160334.5591                  APPROX POSITION XYZ
        2.2150        0.0000        0.0000                  ANTENNA: DELTA H/E/N
     1     2     0                                          WAVELENGTH FACT L1/2
     3    C1    L1    L2                                    # / TYPES OF OBSERV
     0                                                      INTERVAL
  1991     8     9    23    34   15.000000                  TIME OF FIRST OBS
  1991     8    10     5    36   15.000000                  TIME OF LAST OBS
                                                            END OF HEADER
 91  8  9 23 34 15.0000000  0  3 03 17 16
  20527916.220           0.835 4         0.153 2
  20915769.715           0.983 4         0.166 2
  22220872.407           0.257 3         0.477 1
 91  8  9 23 34 30.0000000  0  3 03 17 16
  20525177.914      -14391.845 4    -11214.911 2
  20910987.727      -25142.180 4    -19591.903 2
  22226481.535       29473.141 3     22966.374 1
 91  8  9 23 34 45.0000000  0  3 03 17 16
  20822253.649      -28671.495 4    -22341.903 2
  21206017.372      -50161.838 4    -39087.713 2
  22531911.876       59092.612 3     46046.479 2
 91  8  9 23 35  0.0000000  0  3 03 17 16
  20819556.718      -42827.284 4    -33372.385 2
  21201282.465      -75048.821 4    -58480.157 2
  22537578.259       88874.797 3     69253.356 1
 91  8  9 23 35 15.0000000  0  4 03 20 17 16
  20517092.513      -56867.529 4    -44312.821 2
  22913924.819           0.768 3         0.472 1
  20896773.373      -99811.473 4    -77775.714 2
  22243481.555      118811.156 3     92580.370 1
 91  8  9 23 35 30.0000000  0  4 03 20 17 16
  20514448.944      -70762.047 4    -55139.715 2
  22923457.628       50089.672 3     39030.723 1
  20892095.109     -124418.452 4    -96949.969 2
  22249212.695      148925.278 3    116045.917 1
 91  8  9 23 35 45.0000000  0  4 03 20 17 16
  20511833.855      -84505.303 4    -65848.732 2
  22933014.101      100306.976 3     78161.025 1
  20887440.526     -148865.173 4   -115999.349 2
  22254978.299      179225.226 3    139656.265 1
 91  8  9 23 36  0.0000000  0  4 03 20 17 16
  20509252.339      -98088.835 4    -76433.302 2
  22942593.677      150660.836 3    117397.739 1
  20882822.814     -173143.093 4   -134917.182 2
  22260782.277      209719.054 3    163417.669 1
 91  8  9 23 36 15.0000000  0  4 03 20 17 16
  20506694.207     -111509.739 4    -86891.141 2
  22952204.716      201153.508 3    156742.623 1
  20878232.709     -197249.731 4   -153701.567 2
  22266621.346      240409.379 3    187332.190 1
 91  8  9 23 36 30.0000000  0  4 03 20 17 16
  20504174.762     -124765.968 4    -97220.667 2
  22961840.045      251786.315 3    196196.696 1
  20873680.959     -221183.253 4   -172351.051 2
  22272501.476      271297.674 3    211400.984 1
 91  8  9 23 36 45.0000000  0  4 03 20 17 16
  20501688.577     -137828.454 4   -107399.215 2
  22971502.667      302588.160 3    235782.476 1
  20869165.471     -244914.674 4   -190843.051 2
  22278422.667      302412.538 3    235646.334 1
 91  8  9 23 37  0.0000000  0  4 03 20 17 16
  20499237.782     -150703.087 4   -117431.387 2
  22981201.847      353552.075 2    275494.583 1
  20864687.169     -268450.299 4   -209182.486 2
  22284385.546      333747.169 3    260062.914 2
 91  8  9 23 37 15.0000000  0  4 03 20 17 16
  20496822.043     -163390.141 4   -127317.397 2
  22990934.305      404677.799 2    315332.741 1
  20860245.461     -291790.128 4   -227369.346 2
  22290387.985      365301.306 3    284650.535 1
 91  8  9 23 37 30.0000000  0  4 03 20 17 16
  20494445.882     -175884.164 4   -137053.001 2
  23000693.444      455969.865 3    355300.513 1
  20855842.108     -314929.326 4   -245399.884 2
  22296434.206      397079.646 3    309412.873 1
 91  8  9 23 37 45.0000000  0  5 23 03 20 17 16
  24102797.387           0.913 2         0.470 1
  20492103.906     -188182.600 4   -146636.192 2
  23010482.283      507430.553 2    395399.693 1
  20851478.314     -337865.208 4   -263271.978 2
  22302527.176      429084.349 3    334351.572 1
 91  8  9 23 38  0.0000000  0  5 23 03 20 17 16
  24092116.370      -56186.340 2    -43781.707 1
  20489803.601     -200284.925 4   -156066.563 2
  23020311.572      559059.659 3    435630.112 1
  20847153.522     -360597.511 4   -280985.444 2
  22308661.242      461315.705 3    359466.896 2
 91  8  9 23 38 15.0000000  0  5 23 03 20 17 16
  24081453.065     -112228.739 2    -87450.894 1
  20487537.480     -212193.280 4   -165345.793 2
  23030167.542      610854.451 3    475989.623 1
  20842860.786     -383128.579 4   -298542.117 2
  22314836.054      493770.876 3    384756.619 1
 91  8  9 23 38 30.0000000  0  5 23 03 20 17 16
  24070807.124     -168125.168 2   -131006.583 1
  20485310.309     -223906.585 4   -174473.045 2
  23040057.104      662815.506 3    516478.696 1
  20838614.520     -405457.436 4   -315941.206 2
  22321052.851      526450.520 3    410221.277 1
 91  8  9 23 38 45.0000000  0  5 23 03 20 17 16
  24060203.761     -223880.837 2   -174452.414 1
  20483115.839     -235430.072 4   -183452.381 2
  23049974.831      714937.165 3    557092.941 1
  20834402.142     -427589.705 4   -333187.118 2
  22327312.820      559348.873 3    435856.313 2
 91  8  9 23 39  0.0000000  0  5 23 03 20 17 16
  24049616.592     -279494.936 2   -217787.920 1
  20480957.631     -246763.062 4   -192283.279 2
  23059923.147      767219.692 3    597832.513 1
  20830228.137     -449524.827 4   -350279.393 2
  22333618.962      592466.128 3    461661.965 2
 91  8  9 23 39 15.0000000  0  5 23 03 20 17 16
  24039060.903     -334973.540 2   -261017.846 1
  20478836.592     -257911.823 4   -200970.621 2
  23069902.944      819655.974 3    638691.875 1
  20826091.598     -471269.308 4   -367223.133 2
  22339958.661      625795.585 3    487632.966 2
 91  8  9 23 39 30.0000000  0  5 23 03 20 17 16
  24028531.302     -390308.021 2   -304135.561 1
  20476750.349     -268867.941 4   -209507.853 2
  23079909.719      872253.964 3    679677.259 1
  20821989.837     -492814.674 4   -384011.722 2
  22346339.752      659345.305 3    513775.564 2
 91  8  9 23 39 45.0000000  0  5 23 03 20 17 16
  24018028.068     -445500.683 2   -347142.761 1
  20474703.351     -279633.574 4   -217896.651 2
  23089947.660      925010.850 3    720786.456 1
  20817928.840     -514163.542 4   -400647.184 2
  22352770.593      693112.498 3    540087.659 2
 91  8  9 23 40  0.0000000  0  5 23 03 20 17 16
  24007555.721     -500558.823 2   -390045.045 1
  20472690.556     -290216.268 4   -226142.899 2
  23100016.192      977918.680 2    762013.255 1
  20813902.638     -535323.408 4   -417135.370 2
  22359236.231      727089.289 3    566563.076 1
 91  8  9 23 40 15.0000000  0  5 23 03 20 17 16
  23997095.956     -555484.691 2   -432844.245 1
  20470708.630     -300618.053 4   -234248.185 2
  23110117.704     1030974.781 2    803355.616 1
  20809908.807     -556296.711 4   -433478.191 2
  22365738.129      761272.869 3    593199.617 2
 91  8  9 23 40 30.0000000  0  5 23 03 20 17 16
  23986674.564     -610278.948 2   -475541.098 1
  20468764.466     -310839.966 4   -242213.305 2
  23120237.487     1084177.626 2    844812.306 1
  20805957.537     -577084.488 4   -449676.452 2
  22372282.589      795661.925 3    619996.267 2
 91  8  9 23 40 45.0000000  0  5 23 03 20 17 16
  23976265.177     -664944.115 2   -518137.200 1
  20466852.690     -320884.662 4   -250040.344 2
  23130391.472     1137523.925 3    886380.782 1
  20802032.948     -597689.703 4   -465732.440 2
  22378869.628      830253.215 3    646950.507 1
 91  8  9 23 41  0.0000000  0  5 23 03 20 17 16
  23965887.253     -719479.993 2   -560632.573 1
  20464975.396     -330751.801 4   -257729.011 2
  23140570.009     1191013.438 2    928060.889 1
  20798147.343     -618112.320 4   -481646.152 2
  22385488.757      865046.560 3    674062.181 1
 91  8  9 23 41 15.0000000  0  5 23 03 20 17 16
  23955543.218     -773888.252 2   -603028.458 1
  20463130.472     -340443.275 4   -265280.801 2
  23150772.855     1244643.913 3    969850.763 1
  20794294.404     -638354.289 4   -497419.090 2
  22392143.834      900039.803 3    701329.652 1
 91  8  9 23 41 30.0000000  0  5 23 03 20 17 16
  23945209.374     -828169.701 2   -645325.671 1
  20461322.420     -349960.074 4   -272696.486 2
  23161005.977     1298413.827 3   1011749.358 1
  20790477.152     -658416.787 4   -513052.194 2
  22398843.007      935231.550 3    728751.784 2
 91  8  9 23 41 45.0000000  0  5 23 03 20 17 16
  23934904.305     -882324.379 2   -687523.959 1
  20459541.346     -359302.430 4   -279976.238 2
  23171266.373     1352322.383 3   1053755.993 1
  20786697.975     -678300.195 4   -528545.747 2
  22405577.238      970620.984 3    756327.959 1
 91  8  9 23 42  0.0000000  0  5 23 03 20 17 16
  23924623.230     -936356.427 2   -729626.765 1
  20457797.458     -368474.438 4   -287123.258 2
  23181548.652     1406364.896 2   1095866.924 1
  20782943.666     -698008.725 4   -543903.028 2
  22412348.656     1006203.308 3    784054.427 1
 91  8  9 23 42 15.0000000  0  5 23 03 20 17 16
  23914361.926     -990261.347 2   -771630.388 1
  20456083.550     -377471.762 4   -294134.156 2
  23191852.220     1460545.175 3   1138085.295 1
  20779224.745     -717538.225 4   -559120.809 2
  22419154.834     1041982.530 3    811934.336 1
 91  8  9 23 42 30.0000000  0  5 23 03 20 17 16
  23904130.008    -1044043.946 2   -813538.881 1
  20454407.701     -386299.155 4   -301012.637 2
  23202191.160     1514857.777 2   1180406.728 1
  20775547.182     -736893.921 4   -574203.159 2
  22426002.997     1077953.094 3    839963.345 1
 91  8  9 23 42 45.0000000  0  5 23 03 20 17 16
  23893916.378    -1097706.312 2   -855353.572 1
  20452759.441     -394959.146 4   -307760.673 2
  23212560.673     1569300.016 2   1222829.190 1
  20771896.317     -756078.089 4   -589151.846 2
  22432881.734     1114112.411 3    868139.418 1
 91  8  9 23 43  0.0000000  0  5 23 03 20 17 16
  23883725.242    -1151246.212 2   -897072.851 1
  20451138.769     -403449.001 4   -314376.134 2
  23222940.987     1623873.576 2   1265353.965 1
  20768278.119     -775088.664 4   -603965.270 2
  22439797.953     1150462.415 3    896464.089 1
 91  8  9 23 43 15.0000000  0  5 23 03 20 17 16
  23873560.786    -1204668.938 2   -938700.822 1
  20449556.174     -411774.507 4   -320863.547 2
  23233350.688     1678572.357 3   1307976.342 1
  20764688.714     -793931.482 4   -618647.964 2
  22446745.338     1186997.041 3    924932.645 1
 91  8  9 23 43 30.0000000  0  5 23 03 20 17 16
  23863423.292    -1257973.831 2   -980236.998 1
  20448002.948     -419935.011 4   -327222.368 2
  23243783.161     1733396.361 3   1350696.266 1
  20761137.368     -812606.035 4   -633199.551 2
  22453741.305     1223716.488 3    953545.185 1
 91  8  9 23 43 45.0000000  0  5 23 03 20 17 16
  23853298.710    -1311159.644 2  -1021680.432 1
  20446486.000     -427929.013 4   -333451.463 2
  23254239.017     1788346.463 2   1393514.433 1
  20757614.797     -831110.974 4   -647618.962 2
  22460761.842     1260621.702 3    982302.465 1
 91  8  9 23 44  0.0000000  0  5 23 03 20 17 16
  23843200.496    -1364233.583 2  -1063036.549 1
  20444992.419     -435764.238 4   -339556.821 2
  23264717.978     1843414.558 2   1436424.565 1
  20754123.113     -849454.081 4   -661912.281 2
  22467818.658     1297704.581 3   1011198.199 1
 91  8  9 23 44 15.0000000  0  5 23 03 20 17 16
  23833127.777    -1417189.397 2  -1104300.685 1
  20443534.837     -443434.509 4   -345533.648 2
  23275216.709     1898606.407 2   1479431.165 1
  20750665.911     -867629.727 4   -676075.110 2
  22474909.344     1334970.769 3   1040236.778 2
 91  8  9 23 44 30.0000000  0  5 23 03 20 17 16
  23823065.842    -1470026.787 2  -1145472.564 1
  20442103.029     -450939.627 4   -351381.794 2
  23285744.810     1953921.603 2   1522533.824 1
  20747236.891     -885637.664 4   -690107.257 2
  22482040.812     1372419.929 3   1069417.955 1
 91  8  9 23 44 45.0000000  0  5 23 03 20 17 16
  23813033.572    -1522748.727 2  -1186554.497 1
  20440706.593     -458282.569 4   -357103.565 2
  23296295.107     2009356.506 2   1565729.787 1
  20743845.633     -903481.171 4   -704011.273 2
  22489200.444     1410048.488 3   1098738.874 1
 91  8  9 23 45  0.0000000  0  5 23 03 20 17 16
  23803016.920    -1575356.212 2  -1227547.251 1
  20439343.434     -465464.279 4   -362699.697 2
  23306866.396     2064909.460 2   1609017.734 1
  20740480.463     -921161.494 4   -717788.135 2
  22496393.372     1447854.810 3   1128198.358 1
 91  8  9 23 45 15.0000000  0  5 23 03 20 17 16
  23793037.420    -1627852.317 2  -1268453.197 1
  20438007.253     -472488.134 4   -368172.812 2
  23317461.959     2120576.730 3   1652394.766 1
  20737143.475     -938682.126 4   -731440.553 2
  22503616.575     1485835.498 3   1157793.695 1
 91  8  9 23 45 30.0000000  0  5 23 03 20 17 16
  23783065.720    -1680236.857 2  -1309272.176 1
  20436696.864     -479354.132 4   -373522.944 2
  23328075.513     2176357.763 3   1695860.453 1
  20733839.765     -956043.117 4   -744968.599 2
  22510877.838     1523990.080 3   1187524.531 1
 91  8  9 23 45 45.0000000  0  5 23 03 20 17 16
  23773115.920    -1732513.410 2  -1350007.028 1
  20435420.049     -486065.857 4   -378752.851 2
  23338709.449     2232248.405 3   1739411.500 1
  20730564.831     -973248.294 4   -758375.213 2
  22518169.097     1562314.298 3   1217387.526 2
 91  8  9 23 46  0.0000000  0  5 23 03 20 17 16
  23763179.888    -1784681.312 2  -1390657.279 1
  20434170.212     -492622.648 4   -383862.037 2
  23349370.659     2288248.710 2   1783048.053 1
  20727322.877     -990297.163 4   -771660.025 2
  22525498.415     1600808.014 3   1247382.615 1
 91  8  9 23 46 15.0000000  0  5 23 03 20 17 16
  23753282.543    -1836739.698 2  -1431222.151 1
  20432953.653     -499023.753 4   -388849.914 2
  23360043.876     2344359.052 2   1826770.308 1
  20724110.292    -1007189.118 4   -784822.579 2
  22532856.230     1639471.933 3   1277510.336 2
 91  8  9 23 46 30.0000000  0  5 23 03 20 17 16
  23743395.686    -1888688.729 2  -1471701.767 1
  20431764.682     -505269.393 4   -393716.638 2
  23370747.961     2400578.543 2   1870577.647 1
  20720924.702    -1023924.671 4   -797863.274 2
  22540245.507     1678305.087 3   1307769.912 2
 91  8  9 23 46 45.0000000  0  5 23 03 20 17 16
  23733529.821    -1940528.474 2  -1512096.261 1
  20430606.285     -511359.784 4   -398462.388 2
  23381464.053     2456906.486 2   1914469.478 1
  20717767.888    -1040504.302 4   -810782.429 2
  22547666.282     1717306.858 3   1338160.889 1
 91  8  9 23 47  0.0000000  0  5 23 03 20 17 16
  23723688.230    -1992257.735 2  -1552404.733 1
  20429477.570     -517293.787 4   -403086.277 2
  23392200.823     2513343.361 2   1958446.211 1
  20714645.852    -1056927.103 4   -823579.409 2
  22555121.207     1756477.962 3   1368683.813 1
 91  8  9 23 47 15.0000000  0  5 23 03 20 17 16
  23713861.943    -2043879.767 2  -1592629.591 1
  20428375.536     -523074.784 4   -407590.955 2
  23402957.067     2569885.259 2   2002504.756 1
  20711548.700    -1073196.507 4   -836256.857 2
  22562603.441     1795814.489 3   1399335.639 1
 91  8  9 23 47 30.0000000  0  5 23 03 20 17 16
  23704056.316    -2095401.605 2  -1632776.313 1
  20427304.372     -528709.991 4   -411982.014 2
  23413736.102     2626524.650 2   2046639.258 1
  20708479.713    -1089319.863 4   -848820.496 2
  22570122.828     1835308.863 3   1430110.468 1
 91  8  9 23 47 45.0000000  0  5 23 03 20 17 16
  23694276.202    -2146815.565 2  -1672838.993 1
  20426260.796     -534191.551 4   -416253.350 2
  23424542.428     2683268.525 2   2090855.193 1
  20705437.424    -1105289.790 4   -861264.583 2
  22577667.708     1874968.322 3   1461013.903 2
 91  8  9 23 48  0.0000000  0  5 23 03 20 17 16
  23684507.152    -2198126.416 2  -1712821.463 1
  20425246.904     -539524.538 4   -420408.918 2
  23435353.850     2740111.479 2   2135148.350 1
  20702428.414    -1121111.317 4   -873593.028 2
  22585250.351     1914787.558 3   1492041.869 1
 91  8  9 23 48 15.0000000  0  5 23 03 20 17 16
  23674763.596    -2249330.884 2  -1752720.924 1
  20424263.270     -544705.707 4   -424446.192 2
  23446189.545     2797056.192 2   2179520.782 1
  20699447.864    -1136781.414 4   -885803.482 2
  22592855.488     1954768.973 3   1523196.202 1
 91  8  9 23 48 30.0000000  0  5 23 03 20 17 16
  23665046.721    -2300428.982 2  -1792537.515 1
  20423303.944     -549735.210 4   -428365.277 2
  23457042.028     2854101.880 2   2223971.935 1
  20696499.109    -1152300.508 4   -897896.271 2
  22600490.307     1994911.837 3   1554476.339 1
 91  8  9 23 48 45.0000000  0  5 23 03 20 17 16
  23655343.039    -2351422.547 2  -1832272.613 1
  20422375.191     -554614.822 4   -432167.564 2
  23467919.097     2911246.133 2   2268499.810 1
  20693573.440    -1167670.566 4   -909872.925 2
  22608163.203     2035213.994 3   1585880.590 1
 91  8  9 23 49  0.0000000  0  5 23 03 20 17 16
  23645656.161    -2402313.439 2  -1871927.801 1
  20421474.603     -559346.576 4   -435854.637 2
  23478814.752     2968486.573 2   2313102.705 1
  20690672.045    -1182893.917 4   -921735.262 2
  22615858.260     2075673.027 3   1617407.101 1
 91  8  9 23 49 15.0000000  0  5 23 03 20 17 16
  23635988.147    -2453102.751 2  -1911503.790 1
  20420604.902     -563931.724 4   -439427.477 2
  23489728.100     3025821.512 2   2357779.206 1
  20687803.334    -1197971.748 4   -933484.211 2
  22623589.021     2116287.268 3   1649054.526 1
 91  8  9 23 49 30.0000000  0  5 23 03 20 17 16
  23626346.815    -2503786.444 2  -1950997.462 1
  20419760.695     -568366.382 4   -442883.047 2
  23500648.045     3083253.994 2   2402531.695 1
  20684960.100    -1212900.515 4   -945117.001 2
  22631347.353     2157059.615 3   1680825.179 1
 91  8  9 23 49 45.0000000  0  5 23 03 20 17 16
  23616721.990    -2554369.542 2  -1990412.713 1
  20418941.355     -572655.579 4   -446225.281 2
  23511592.857     3140778.508 2   2447355.902 1
  20682150.144    -1227685.644 4   -956637.860 2
  22639136.554     2197984.789 3   1712714.928 1
 91  8  9 23 50  0.0000000  0  5 23 03 20 17 16
  23607116.640    -2604848.262 2  -2029746.778 1
  20418152.012     -576795.544 4   -449451.220 2
  23522563.774     3198398.380 2   2492254.433 1
  20679365.368    -1242323.443 4   -968043.925 2
  22646956.032     2239066.199 3   1744726.379 1
 91  8  9 23 50 15.0000000  0  5 23 03 20 17 16
  23597524.779    -2655224.482 2  -2069000.853 1
  20417396.225     -580788.239 4   -452562.403 2
  23533540.973     3256111.083 2   2537225.317 1
  20676606.977    -1256816.025 4   -979336.830 2
  22654800.114     2280301.461 3   1776857.721 1
 91  8  9 23 50 30.0000000  0  5 23 03 20 17 16
  23587961.990    -2705500.147 2  -2108176.552 1
  20416665.341     -584635.917 4   -455560.585 2
  23544543.946     3313913.836 2   2582266.333 1
  20673872.877    -1271165.860 4   -990518.512 2
  22662675.659     2321687.650 3   1809106.681 1
 91  8  9 23 50 45.0000000  0  5 23 03 20 17 16
  23578416.598    -2755671.993 2  -2147271.426 1
  20415955.134     -588335.220 4   -458443.148 2
  23555560.722     3371809.487 2   2627379.750 1
  20671171.147    -1285369.764 4  -1001586.474 3
  22670582.091     2363227.541 3   1841475.414 1
 91  8  9 23 51  0.0000000  0  5 23 03 20 17 16
  23568888.291    -2805738.546 2  -2186284.199 1
  20415281.800     -591884.735 4   -461209.011 2
  23566593.395     3429798.649 2   2672566.035 1
  20668496.989    -1299426.523 4  -1012539.773 2
  22678516.391     2404922.090 3   1873964.659 1
 91  8  9 23 51 15.0000000  0  5 23 03 20 17 16
  23559374.991    -2855702.262 2  -2225216.898 1
  20414633.943     -595287.239 4   -463860.301 2
  23577648.230     3487878.188 2   2717822.780 1
  20665851.030    -1313339.056 4  -1023380.697 2
  22686480.373     2446768.290 3   1906572.065 1
 91  8  9 23 51 30.0000000  0  5 23 03 20 17 16
  23549888.354    -2905567.570 2  -2264072.885 1
  20414015.176     -598547.021 4   -466400.389 2
  23588718.963     3546043.180 2   2763146.063 1
  20663229.344    -1327112.100 4  -1034112.925 3
  22694466.256     2488761.180 3   1939293.775 2
 91  8  9 23 51 45.0000000  0  5 23 03 20 17 16
  23540418.802    -2955335.277 2  -2302852.818 1
  20413423.980     -601665.080 4   -468830.039 2
  23599802.905     3604292.282 2   2808534.896 1
  20660634.043    -1340746.488 4  -1044737.121 2
  22702489.290     2530899.149 3   1972128.549 1
 91  8  9 23 52  0.0000000  0  5 23 03 20 17 16
  23530967.554    -3005003.183 2  -2341555.030 1
  20412854.981     -604639.139 4   -471147.481 2
  23610904.210     3662626.965 2   2853990.433 1
  20658065.423    -1354240.397 4  -1055251.827 2
  22710535.132     2573184.072 3   2005077.817 1
 91  8  9 23 52 15.0000000  0  5 23 03 20 17 16
  23521537.282    -3054573.665 2  -2380181.253 1
  20412317.741     -607471.887 4   -473354.818 2
  23622016.613     3721044.262 2   2899510.299 1
  20655525.282    -1367596.649 4  -1065659.286 2
  22718609.732     2615612.864 3   2038139.185 1
 91  8  9 23 52 30.0000000  0  5 23 03 20 17 16
  23512116.294    -3104046.081 2  -2418731.066 1
  20411805.106     -610162.422 4   -475451.327 2
  23633149.119     3779544.144 2   2945094.558 1
  20653012.119    -1380814.546 4  -1075958.931 2
  22726708.919     2658185.989 3   2071313.035 1
 91  8  9 23 52 45.0000000  0  5 23 03 20 17 16
  23502720.800    -3153420.979 2  -2457204.921 1
  20411317.931     -612711.767 4   -477437.824 2
  23644301.693     3838125.278 2   2990742.118 1
  20650522.043    -1393895.129 4  -1086151.585 2
  22734838.696     2700901.878 3   2104598.125 1
 91  8  9 23 53  0.0000000  0  5 23 03 20 17 16
  23493350.190    -3202695.077 2  -2495600.197 1
  20410859.862     -615116.606 4   -479311.714 2
  23655468.052     3896790.327 2   3036455.094 1
  20648056.554    -1406835.782 4  -1096235.198 2
  22742992.746     2743763.139 3   2137996.493 1
 91  8  9 23 53 15.0000000  0  5 23 03 20 17 16
  23483988.567    -3251870.183 2  -2533918.388 1
  20410432.646     -617378.894 4   -481074.536 2
  23666651.810     3955536.943 2   3082231.595 1
  20645620.434    -1419638.027 4  -1106210.960 3
  22751179.778     2786767.663 3   2171506.477 1
 91  8  9 23 53 30.0000000  0  5 23 03 20 17 16
  23474648.233    -3300948.332 2  -2572161.002 1
  20410030.035     -619500.808 4   -482727.978 2
  23677835.881     4014362.589 2   3128069.718 1
  20643209.512    -1432304.591 4  -1116080.987 2
  22759390.507     2829912.644 3   2205125.912 1
 91  8  9 23 53 45.0000000  0  5 23 03 20 17 16
  23465330.986    -3349930.891 2  -2610329.140 1
  20409651.400     -621483.566 4   -484272.985 2
  23689039.427     4073265.370 2   3173967.870 1
  20640824.660    -1444836.844 4  -1125846.375 2
  22767625.195     2873196.223 3   2238853.355 1
 91  8  9 23 54  0.0000000  0  5 23 03 20 17 16
  23456026.634    -3398813.044 2  -2648419.026 1
  20409300.337     -623322.461 4   -485705.887 2
  23700269.637     4132249.356 2   3219929.352 1
  20638469.788    -1457230.274 4  -1135503.588 2
  22775891.084     2916622.710 3   2272692.160 1
 91  8  9 23 54 15.0000000  0  5 23 03 20 17 16
  23446739.960    -3447600.540 2  -2686435.139 1
  20408975.954     -625023.445 4   -487031.317 2
  23711509.758     4191308.216 2   3265949.161 1
  20636138.003    -1469491.099 4  -1145057.467 2
  22784179.448     2960185.597 3   2306637.244 1
 91  8  9 23 54 30.0000000  0  5 23 03 20 17 16
  23437485.673    -3496289.408 2  -2724374.415 1
  20408680.069     -626582.582 4   -488246.234 2
  23722764.573     4250445.157 2   3312029.772 1
  20633831.102    -1481615.563 4  -1154505.084 2
  22792492.680     3003888.366 3   2340691.327 1
 91  8  9 23 54 45.0000000  0  5 23 03 20 17 16
  23428236.761    -3544879.008 2  -2762236.458 1
  20408411.457     -627999.509 4   -489350.339 2
  23734029.875     4309660.116 2   3358171.285 1
  20631549.381    -1493603.384 4  -1163846.234 2
  22800841.004     3047731.023 3   2374854.393 1
 91  8  9 23 55  0.0000000  0  5 23 03 20 17 16
  23419002.560    -3593373.004 2  -2800023.824 1
  20408170.121     -629277.854 4   -490346.447 2
  23745309.556     4368948.672 2   3404370.044 1
  20629289.839    -1505458.681 4  -1173084.114 3
  22809207.912     3091709.108 3   2409123.003 1
 91  8  9 23 55 15.0000000  0  5 23 03 20 17 16
  23409794.429    -3641768.824 2  -2837734.750 1
  20407951.574     -630415.004 4   -491232.535 2
  23756612.638     4428313.068 2   3450627.937 1
  20627060.888    -1517178.846 4  -1182216.708 2
  22817600.611     3135824.991 3   2443499.002 1
 91  8  9 23 55 30.0000000  0  5 23 03 20 17 16
  23400604.307    -3690070.039 2  -2875371.915 1
  20407760.599     -631414.611 4   -492011.448 2
  23767920.205     4487749.015 2   3496941.607 1
  20624853.505    -1528767.847 4  -1191247.095 3
  22826020.272     3180074.261 3   2477978.945 1
 91  8  9 23 55 45.0000000  0  5 23 03 20 17 16
  23391432.455    -3738277.519 2  -2912936.125 1
  20407596.323     -632277.832 4   -492684.085 2
  23779246.670     4547254.948 2   3543309.769 1
  20622674.916    -1540227.041 4  -1200176.314 3
  22834469.632     3224455.168 3   2512561.442 1
 91  8  9 23 56  0.0000000  0  5 23 03 20 17 16
  23382273.481    -3786389.759 2  -2950426.072 1
  20407457.803     -633003.160 4   -493249.269 2
  23790582.418     4606832.046 2   3589733.400 1
  20620518.208    -1551555.015 4  -1209003.296 2
  22842937.263     3268969.359 3   2547247.826 1
 91  8  9 23 56 15.0000000  0  5 23 03 20 17 16
  23373130.422    -3834412.322 2  -2987846.175 1
  20407341.183     -633596.128 4   -493711.327 2
  23801931.063     4666473.803 2   3636207.419 1
  20618388.182    -1562757.562 4  -1217732.549 2
  22851440.283     3313610.452 3   2582033.080 1
 91  8  9 23 56 30.0000000  0  5 23 03 20 17 16
  23364010.432    -3882338.087 2  -3025190.856 1
  20407260.249     -634050.084 4   -494065.052 2
  23813289.305     4726186.582 2   3682736.754 1
  20616281.540    -1573828.342 4  -1226359.120 2
  22859954.087     3358384.683 3   2616922.049 1
 91  8  9 23 56 45.0000000  0  5 23 03 20 17 16
  23354914.436    -3930165.147 2  -3062458.593 1
  20407197.289     -634362.790 4   -494308.713 2
  23824666.428     4785972.124 2   3729322.906 1
  20614198.594    -1584765.104 4  -1234881.260 2
  22868498.761     3403293.636 3   2651916.049 1
 91  8  9 23 57  0.0000000  0  5 23 03 20 17 16
  23345830.726    -3977899.613 2  -3099654.165 1
  20407163.714     -634540.600 4   -494447.262 2
  23836061.246     4845823.519 2   3775960.226 1
  20612144.111    -1595574.258 4  -1243303.967 2
  22877069.226     3448330.941 3   2687010.036 1
 91  8  9 23 57 15.0000000  0  5 23 03 20 17 16
  23336765.896    -4025539.192 2  -3136775.833 1
  20407154.413     -634581.418 4   -494479.085 2
  23847464.143     4905742.423 2   3822650.210 1
  20610110.323    -1606254.192 4  -1251625.982 3
  22885663.982     3493497.665 3   2722204.847 1
 91  8  9 23 57 30.0000000  0  5 23 03 20 17 16
  23327716.649    -4073086.521 2  -3173825.672 1
  20407176.907     -634487.889 4   -494406.183 2
  23858874.247     4965725.377 2   3869390.061 1
  20608100.808    -1616807.637 4  -1259849.432 3
  22894284.215     3538790.294 3   2757497.792 1
 91  8  9 23 57 45.0000000  0  5 23 03 20 17 16
  23318686.301    -4120539.833 2  -3210802.160 1
  20407221.283     -634258.281 4   -494227.264 2
  23870304.139     5025773.674 2   3916180.815 1
  20606114.991    -1627233.164 4  -1267973.211 2
  22902925.126     3584210.619 3   2792890.247 1
 91  8  9 23 58  0.0000000  0  5 23 03 20 17 16
  23309664.050    -4167904.592 2  -3247709.678 1
  20407289.932     -633898.224 4   -493946.694 2
  23881744.206     5085881.285 2   3963017.915 1
  20604156.745    -1637536.450 4  -1276001.729 2
  22911593.627     3629752.686 3   2828377.553 1
 91  8  9 23 58 15.0000000  0  5 23 03 20 17 16
  23300674.186    -4215172.880 2  -3284542.027 1
  20407384.669     -633399.731 4   -493558.259 2
  23893196.277     5146055.431 2   4009906.773 1
  20602218.880    -1647710.099 4  -1283929.231 2
  22920286.418     3675423.582 3   2863965.254 1
 91  8  9 23 58 30.0000000  0  5 23 03 20 17 16
  23291704.984    -4262346.401 2  -3321300.553 1
  20407503.383     -632764.757 4   -493063.469 2
  23904659.151     5206293.726 2   4056845.569 1
  20600308.902    -1657755.951 4  -1291757.154 3
  22928996.589     3721221.132 2   2899651.619 1
 91  8  9 23 58 45.0000000  0  5 23 03 20 17 16
  23282738.800    -4309428.087 2  -3357987.498 1
  20407647.871     -631996.331 4   -492464.692 2
  23916127.713     5266592.657 2   4103831.677 1
  20598422.306    -1667677.129 4  -1299487.935 3
  22937732.238     3767141.669 3   2935433.832 1
 91  8  9 23 59  0.0000000  0  5 23 03 20 17 16
  23273800.781    -4356417.893 2  -3394602.812 1
  20407823.263     -631094.351 4   -491761.842 2
  23927610.358     5326951.840 2   4150864.726 1
  20596555.499    -1677473.966 4  -1307121.823 2
  22946501.775     3813184.938 3   2971311.674 1
 91  8  9 23 59 15.0000000  0  5 23 03 20 17 16
  23264872.360    -4403317.848 2  -3431148.181 1
  20408015.425     -630060.802 4   -490956.475 2
  23939107.992     5387368.660 2   4197942.714 1
  20594716.578    -1687148.737 4  -1314660.592 2
  22955286.878     3859348.348 3   3007283.146 1
 91  8  9 23 59 30.0000000  0  5 23 03 20 17 16
  23255969.433    -4450126.567 2  -3467622.452 1
  20408241.475     -628894.757 4   -490047.867 2
  23950619.133     5447843.516 2   4245065.912 1
  20592901.930    -1696700.367 4  -1322103.399 2
  22964090.583     3905632.331 3   3043348.562 1
 91  8  9 23 59 45.0000000  0  5 23 03 20 17 16
  23247070.381    -4496844.984 2  -3504026.345 1
  20408483.701     -627597.170 4   -489036.749 2
  23962133.851     5508375.084 2   4292233.258 1
  20591105.866    -1706129.975 4  -1329451.137 3
  22972919.782     3952035.582 3   3079506.928 1
 91  8 10  0  0  0.0000000  0  5 23 03 20 17 16
  23238204.623    -4543469.251 2  -3540356.916 1
  20408758.909     -626163.925 4   -487919.932 2
  23973671.377     5568966.527 2   4339447.332 1
  20589331.703    -1715434.212 4  -1336701.180 2
  22981778.647     3998561.368 3   3115760.757 1
 91  8 10  0  0 15.0000000  0  5 23 03 20 17 16
  23229344.851    -4590001.069 2  -3576615.398 1
  20409056.906     -624597.216 4   -486699.117 2
  23985208.292     5629615.631 2   4386706.252 1
  20587589.002    -1724614.899 4  -1343854.955 2
  22990656.707     4045207.408 3   3152108.299 1
 91  8 10  0  0 30.0000000  0  5 23 03 20 17 16
  23220510.573    -4636443.138 2  -3612803.919 1
  20409379.787     -622899.434 4   -485376.176 2
  23996760.789     5690318.976 2   4434007.476 1
  20585862.512    -1733675.159 4  -1350914.882 3
  22999552.444     4091970.385 3   3188546.963 1
 91  8 10  0  0 45.0000000  0  5 23 03 20 17 16
  23211695.177    -4682789.335 2  -3648917.801 1
  20409728.739     -621064.986 4   -483946.721 2
  24008326.480     5751082.110 2   4481355.300 1
  20584163.576    -1742609.122 4  -1357876.389 2
  23008469.767     4138855.716 3   3225080.965 1
 91  8 10  0  1  0.0000000  0  5 23 03 20 17 16
  23202894.177    -4729041.801 2  -3684958.625 1
  20410104.984     -619095.773 4   -482412.260 2
  24019902.675     5811902.213 2   4528747.458 1
  20582488.338    -1751419.391 4  -1364741.527 3
  23017420.978     4185860.652 3   3261708.159 1
 91  8 10  0  1 15.0000000  0  5 23 03 20 17 16
  23194102.461    -4775202.094 2  -3720927.617 1
  20410504.908     -616993.620 4   -480774.218 2
  24031480.650     5872777.002 2   4576182.313 1
  20580834.389    -1760107.606 4  -1371511.544 2
  23026387.459     4232983.065 3   3298426.908 1
 91  8 10  0  1 30.0000000  0  5 23 03 20 17 16
  23185335.925    -4821270.853 2  -3756825.315 1
  20410931.513     -614759.289 4   -479033.180 2
  24043076.320     5933705.398 2   4623658.896 1
  20579203.806    -1768674.818 4  -1378187.285 3
  23035374.041     4280222.098 3   3335236.507 1
 91  8 10  0  1 45.0000000  0  5 23 03 20 17 16
  23176591.883    -4867247.371 2  -3792651.112 1
  20411378.797     -612392.057 4   -477188.579 2
  24054685.793     5994687.421 2   4671177.295 1
  20577595.122    -1777120.481 4  -1384768.299 2
  23044385.212     4327577.608 3   3372136.900 1
 91  8 10  0  2  0.0000000  0  5 23 03 20 17 16
  23167854.733    -4913132.424 2  -3828405.606 1
  20411853.670     -609892.704 4   -475241.027 2
  24066296.452     6055721.784 2   4718736.427 1
  20576013.417    -1785445.636 4  -1391255.418 3
  23053421.249     4375048.186 3   3409126.940 1
 91  8 10  0  2 15.0000000  0  5 23 03 20 17 16
  23159143.951    -4958928.438 2  -3864090.765 1
  20412354.317     -607264.006 4   -473192.676 2
  24077923.009     6116805.404 2   4766333.928 1
  20574448.499    -1793653.102 4  -1397650.835 3
  23062471.089     4422631.009 3   3446204.435 1
 91  8 10  0  2 30.0000000  0  5 23 03 20 17 16
  23150441.877    -5004631.349 2  -3899703.368 1
  20412882.552     -604501.836 4   -471040.331 2
  24089554.050     6177941.482 2   4813972.412 1
  20572910.873    -1801739.241 4  -1403951.711 3
  23071550.001     4470329.266 3   3483371.926 1
 91  8 10  0  2 45.0000000  0  5 23 03 20 17 16
  23141768.892    -5050243.430 2  -3935245.190 1
  20413431.780     -601608.483 4   -468785.781 2
  24101194.689     6239127.448 2   4861649.622 1
  20571395.723    -1809706.128 4  -1410159.659 3
  23080651.092     4518140.080 3   3520627.070 1
 91  8 10  0  3  0.0000000  0  5 23 03 20 17 16
  23133105.190    -5095769.175 2  -3970719.771 1
  20414004.985     -598588.535 4   -466432.564 2
  24112840.720     6300358.029 2   4909361.619 1
  20569902.159    -1817558.930 4  -1416278.710 2
  23089767.487     4566058.705 3   3557966.265 1
 91  8 10  0  3 15.0000000  0  5 23 03 20 17 16
  23124465.168    -5141207.445 2  -4006126.144 1
  20414606.354     -595441.043 4   -463979.975 2
  24124509.244     6361633.762 2   4957108.951 1
  20568428.069    -1825296.858 4  -1422308.248 3
  23098906.358     4614085.651 3   3595389.827 1
 91  8 10  0  3 30.0000000  0  5 23 03 20 17 16
  23115827.241    -5186556.846 2  -4041463.250 1
  20415229.938     -592164.619 4   -461426.918 2
  24136179.269     6422955.576 2   5004892.074 1
  20566974.972    -1832918.637 4  -1428247.285 3
  23108066.518     4662221.947 3   3632898.619 1
 91  8 10  0  3 45.0000000  0  5 23 03 20 17 16
  23107210.917    -5231814.292 2  -4076728.740 1
  20415880.185     -588756.320 4   -458771.087 2
  24147859.189     6484325.979 2   5052713.071 1
  20565547.963    -1840421.694 4  -1434093.816 3
  23117246.170     4710469.870 3   3670494.394 1
 91  8 10  0  4  0.0000000  0  5 23 03 20 17 16
  23098622.164    -5276976.733 2  -4111920.225 1
  20416552.019     -585213.229 4   -456010.222 2
  24159545.390     6545747.308 2   5100573.793 1
  20564141.039    -1847803.163 4  -1439845.598 3
  23126447.094     4758831.605 3   3708178.843 1
 91  8 10  0  4 15.0000000  0  5 23 03 20 17 16
  23090043.898    -5322048.491 2  -4147041.006 1
  20417251.127     -581539.703 4   -453147.740 2
  24171243.004     6607214.530 2   5148470.094 1
  20562762.891    -1855067.669 4  -1445506.236 3
  23135674.700     4807302.278 2   3745948.193 1
 91  8 10  0  4 30.0000000  0  5 23 03 20 17 16
  23081488.720    -5367029.976 2  -4182091.452 1
  20417976.323     -577736.112 4   -450183.900 2
  24182948.400     6668726.498 2   5196401.560 1
  20561403.641    -1862215.713 4  -1451076.133 3
  23144917.609     4855881.335 2   3783801.949 1
 91  8 10  0  4 45.0000000  0  5 23 03 20 17 16
  23072940.137    -5411918.480 2  -4217069.459 1
  20418723.716     -573800.130 4   -447116.900 2
  24194663.691     6730285.548 2   5244369.524 1
  20560065.070    -1869245.076 4  -1456553.548 3
  23154181.493     4904570.716 2   3821741.707 1
 91  8 10  0  5  0.0000000  0  5 23 03 20 17 16
  23064415.235    -5456721.552 2  -4251980.872 1
  20419494.178     -569739.173 4   -443952.509 2
  24206387.062     6791883.458 2   5292367.798 1
  20558751.679    -1876163.640 4  -1461944.628 2
  23163462.775     4953362.294 2   3859761.089 1
 91  8 10  0  5 15.0000000  0  5 23 03 20 17 16
  23055907.730    -5501434.386 2  -4286821.962 1
  20420296.120     -565548.622 4   -440687.137 2
  24218114.044     6853524.451 2   5340399.675 1
  20557457.763    -1882966.764 4  -1467245.747 3
  23172778.522     5002260.194 3   3897863.327 1
 91  8 10  0  5 30.0000000  0  5 23 03 20 17 16
  23047415.512    -5546060.548 2  -4321595.556 1
  20421115.460     -561232.082 4   -437323.603 2
  24229851.218     6915204.470 2   5388461.877 1
  20556178.261    -1889658.271 4  -1472459.897 3
  23182099.974     5051260.298 3   3936045.232 1
 91  8 10  0  5 45.0000000  0  5 23 03 20 17 16
  23038944.269    -5590598.816 2  -4356300.632 1
  20421964.169     -556788.248 4   -433860.871 2
  24241600.083     6976923.976 2   5436555.047 1
  20554926.016    -1896237.184 4  -1477586.317 3
  23191443.903     5100363.289 3   3974307.266 1
 91  8 10  0  6  0.0000000  0  5 23 03 20 17 16
  23030480.233    -5635043.275 2  -4390932.597 1
  20422832.370     -552211.405 4   -430294.491 2
  24253349.856     7038688.361 2   5484682.986 1
  20553696.264    -1902697.801 4  -1482620.556 2
  23200806.416     5149574.467 3   4012653.628 1
 91  8 10  0  6 15.0000000  0  5 23 03 20 17 16
  23022038.672    -5679398.991 2  -4425495.473 1
  20423726.344     -547506.625 4   -426628.428 2
  24265110.709     7100491.816 2   5532841.522 1
  20552489.599    -1909045.644 4  -1487566.917 3
  23210190.515     5198888.221 3   4051079.918 1
 91  8 10  0  6 30.0000000  0  5 23 03 20 17 16
  23013618.105    -5723661.460 2  -4459985.621 1
  20424645.814     -542669.758 4   -422859.441 2
  24276878.159     7162338.489 2   5581033.581 1
  20551304.834    -1915276.519 4  -1492422.124 3
  23219595.903     5248308.333 3   4089589.065 1
 91  8 10  0  6 45.0000000  0  5 23 03 20 17 16
  23005214.324    -5767833.645 2  -4494405.448 1
  20425591.650     -537703.785 4   -418989.846 2
  24288657.021     7224224.655 2   5629256.494 1
  20550141.026    -1921393.799 4  -1497188.829 3
  23229018.078     5297831.330 3   4128178.359 2
 91  8 10  0  7  0.0000000  0  5 23 03 20 17 16
  22996824.033    -5811913.539 2  -4528753.346 1
  20426563.279     -532606.767 4   -415018.141 2
  24300441.851     7286151.798 2   5677511.651 1
  20548998.229    -1927395.602 4  -1501865.551 3
  23238466.952     5347459.060 3   4166849.314 1
 91  8 10  0  7 15.0000000  0  5 23 03 20 17 16
  22988457.718    -5855901.990 2  -4563029.989 1
  20427558.901     -527379.671 4   -410945.069 2
  24312236.889     7348118.255 2   5725797.273 1
  20547876.704    -1933283.201 4  -1506453.281 3
  23247925.092     5397189.329 3   4205600.166 1
 91  8 10  0  7 30.0000000  0  5 23 03 20 17 16
  22980101.908    -5899798.771 2  -4597235.197 1
  20428575.184     -522022.275 4   -406770.470 2
  24324031.631     7410123.803 2   5774113.219 1
  20546777.654    -1939056.445 4  -1510951.903 2
  23257411.432     5447022.202 3   4244430.943 1
 91  8 10  0  7 45.0000000  0  5 23 03 20 17 16
  22971765.869    -5943606.565 2  -4631371.088 1
  20429621.464     -516537.320 4   -402496.478 2
  24335833.545     7472165.105 2   5822457.016 1
  20545703.209    -1944718.476 4  -1515363.866 2
  23266914.245     5496954.580 3   4283339.255 1
 91  8 10  0  8  0.0000000  0  5 23 03 20 17 16
  22963444.837    -5987322.206 2  -4665435.152 1
  20430686.625     -510921.724 4   -398120.685 2
  24347651.077     7534244.750 2   5870830.671 1
  20544643.737    -1950266.283 4  -1519686.826 3
  23276430.267     5546988.856 3   4322326.979 1
 91  8 10  0  8 15.0000000  0  5 23 03 20 17 16
  22955149.283    -6030944.259 2  -4699426.304 1
  20431782.080     -505174.164 4   -393642.060 2
  24359470.388     7596363.528 2   5919234.778 1
  20543610.649    -1955698.891 4  -1523920.021 3
  23285975.955     5597125.837 3   4361394.717 1
 91  8 10  0  8 30.0000000  0  5 23 03 20 17 16
  22946863.309    -6074479.569 3  -4733349.870 1
  20432902.402     -499301.588 4   -389066.033 2
  24371303.206     7658514.091 2   5967663.740 1
  20542599.147    -1961023.373 4  -1528068.957 3
  23295532.742     5647358.387 3   4400536.951 1
 91  8 10  0  8 45.0000000  0  5 23 03 20 17 16
  22938593.249    -6117919.459 2  -4767199.046 1
  20434043.105     -493295.438 4   -384385.919 2
  24383135.100     7720704.416 2   6016123.667 1
  20541610.732    -1966231.107 4  -1532126.924 3
  23305113.801     5697694.292 3   4439759.700 1
 91  8 10  0  9  0.0000000  0  5 23 03 20 17 16
  22930347.149    -6161270.052 3  -4800978.651 1
  20435210.804     -487161.804 4   -379606.453 2
  24394978.702     7782927.919 2   6064609.368 1
  20540633.415    -1971328.661 4  -1536099.031 3
  23314712.555     5748127.058 3   4479057.919 1
 91  8 10  0  9 15.0000000  0  5 23 03 20 17 16
  22922114.852    -6204526.980 3  -4834685.314 1
  20436402.776     -480896.461 4   -374724.370 2
  24406822.915     7845188.294 2   6113123.852 1
  20539686.374    -1976312.030 4  -1539982.170 3
  23324325.409     5798660.511 2   4518434.653 1
 91  8 10  0  9 30.0000000  0  5 23 03 20 17 16
  22913900.528    -6247691.007 3  -4868319.532 1
  20437619.632     -474500.160 4   -369740.238 2
  24418675.801     7907484.083 2   6161665.938 1
  20538765.701    -1981182.099 4  -1543777.030 3
  23333956.236     5849293.171 2   4557888.620 1
 91  8 10  0  9 45.0000000  0  5 23 03 20 17 16
  22905705.714    -6290768.462 3  -4901886.319 1
  20438861.965     -467979.547 4   -364659.238 2
  24430536.191     7969808.351 2   6210230.228 1
  20537857.644    -1985945.803 4  -1547489.000 3
  23343610.447     5900018.258 2   4597414.669 1
 91  8 10  0 10  0.0000000  0  5 23 03 20 17 16
  22897520.480    -6333750.139 3  -4935378.475 1
  20440126.495     -461325.637 4   -359474.368 2
  24442402.583     8032169.735 2   6258823.413 1
  20536970.248    -1990594.047 4  -1551111.003 2
  23353279.369     5950844.187 2   4637019.263 1
 91  8 10  0 10 15.0000000  0  5 23 03 20 17 16
  22889364.614    -6376641.031 3  -4968799.917 1
  20441418.003     -454543.249 4   -354189.393 2
  24454282.447     8094562.628 2   6307441.157 1
  20536110.755    -1995132.109 4  -1554647.139 3
  23362973.750     6001765.300 2   4676698.010 1
 91  8 10  0 10 30.0000000  0  5 23 03 20 17 16
  22881218.661    -6419441.406 3  -5002150.760 1
  20442734.692     -447632.671 4   -348804.532 2
  24466152.434     8156986.304 2   6356082.879 1
  20535265.623    -1999560.559 4  -1558097.877 3
  23372680.433     6052781.126 2   4716450.593 1
 91  8 10  0 10 45.0000000  0  5 23 03 20 17 16
  22873089.494    -6462150.903 3  -5035430.846 1
  20444071.763     -440593.806 4   -343319.704 2
  24478041.896     8219440.571 2   6404748.447 1
  20534443.596    -2003879.241 4  -1561463.081 3
  23382409.000     6103891.650 3   4756276.944 1
 91  8 10  0 11  0.0000000  0  5 23 03 20 17 16
  22864979.802    -6504766.899 3  -5068638.054 1
  20445437.923     -433423.895 4   -337732.755 2
  24489936.767     8281927.264 2   6453439.294 1
  20533642.247    -2008085.933 4  -1564741.019 3
  23392150.147     6155098.626 3   4796178.486 1
 91  8 10  0 11 15.0000000  0  5 23 03 20 17 16
  22856889.899    -6547294.946 3  -5101776.711 1
  20446825.965     -426128.877 4   -332048.326 2
  24501833.732     8344440.294 2   6502150.611 1
  20532865.189    -2012186.330 4  -1567936.124 2
  23401909.600     6206395.908 3   4836150.362 1
 91  8 10  0 11 30.0000000  0  5 23 03 20 17 16
  22848813.502    -6589728.980 3  -5134842.169 1
  20448238.875     -418702.669 4   -326261.671 2
  24513734.292     8406985.345 2   6550886.973 1
  20532106.715    -2016174.551 4  -1571043.818 3
  23411685.230     6257788.919 2   4876196.837 1
 91  8 10  0 11 45.0000000  0  5 23 03 20 17 16
  22840754.782    -6632069.358 3  -5167834.591 1
  20449675.481     -411145.560 4   -320373.020 2
  24525641.744     8469561.243 2   6599647.228 1
  20531366.826    -2020051.505 4  -1574064.817 3
  23421491.135     6309276.623 2   4916317.114 1
 91  8 10  0 12  0.0000000  0  5 23 03 20 17 16
  22832717.944    -6674313.470 3  -5200752.009 1
  20451138.176     -403455.125 4   -314380.468 2
  24537552.809     8532170.099 2   6648433.351 1
  20530649.430    -2023814.768 4  -1576997.224 3
  23431307.546     6360861.226 3   4956512.880 1
 91  8 10  0 12 15.0000000  0  5 23 03 20 17 16
  22824693.985    -6716471.614 3  -5233602.473 1
  20452624.847     -395641.704 4   -308292.085 2
  24549469.860     8594801.045 2   6697236.561 1
  20529949.711    -2027475.101 4  -1579849.425 3
  23441135.945     6412531.873 3   4996775.691 1
 91  8 10  0 12 30.0000000  0  5 23 03 20 17 16
  22816687.738    -6758538.286 3  -5266381.646 1
  20454137.292     -387700.133 4   -302103.852 2
  24561392.005     8657459.017 2   6746060.874 1
  20529276.970    -2031027.047 4  -1582617.172 3
  23450986.226     6464293.539 3   5037109.448 1
 91  8 10  0 12 45.0000000  0  5 23 03 20 17 16
  22808700.372    -6800510.731 3  -5299087.378 1
  20455673.435     -379627.627 4   -295813.588 2
  24573320.747     8720145.965 2   6794907.752 1
  20528624.035    -2034468.244 4  -1585298.614 3
  23460855.982     6516148.425 2   5077515.814 1
 91  8 10  0 13  0.0000000  0  5 23 03 20 17 16
  22800733.685    -6842389.569 3  -5331720.185 1
  20457235.055     -371424.685 4   -289421.690 2
  24585251.583     8782860.998 2   6843776.449 1
  20527989.964    -2037799.549 4  -1587894.425 3
  23470745.544     6568095.391 3   5117993.952 1
 91  8 10  0 13 15.0000000  0  5 23 03 20 17 16
  22792783.784    -6884172.772 3  -5364278.473 1
  20458821.245     -363089.467 4   -282926.712 2
  24597193.518     8845605.371 2   6892668.183 1
  20527376.589    -2041019.123 4  -1590403.174 3
  23480644.686     6620135.735 2   5158544.877 1
 91  8 10  0 13 30.0000000  0  5 23 03 20 17 16
  22784844.686    -6925867.739 3  -5396767.986 1
  20460429.632     -354629.275 4   -276334.351 2
  24609134.545     8908371.222 2   6941576.486 1
  20526783.003    -2044134.558 4  -1592830.782 3
  23490563.617     6672261.475 3   5199162.321 1
 91  8 10  0 13 45.0000000  0  5 23 03 20 17 16
  22776928.063    -6967471.659 3  -5429186.575 1
  20462065.310     -346041.660 4   -269642.710 2
  24621079.777     8971160.877 2   6990503.411 1
  20526212.206    -2047143.465 4  -1595175.380 3
  23500500.539     6724475.345 2   5239848.408 1
 91  8 10  0 14  0.0000000  0  5 23 03 20 17 16
  22769028.524    -7008979.907 3  -5461530.641 1
  20463723.151     -337322.169 4   -262848.301 2
  24633041.797     9033978.064 2   7039451.764 1
  20525659.383    -2050041.711 4  -1597433.742 2
  23510456.952     6776781.119 2   5280606.150 1
 91  8 10  0 14 15.0000000  0  5 23 03 20 17 16
  22761154.183    -7050395.683 3  -5493802.575 1
  20465410.691     -328473.778 4   -255953.446 2
  24645004.427     9096819.068 2   7088418.829 1
  20525128.757    -2052832.510 4  -1599608.370 3
  23520426.541     6829174.988 2   5321432.506 1
 91  8 10  0 14 30.0000000  0  5 23 03 20 17 16
  22753282.232    -7091723.770 3  -5526006.236 1
  20467114.112     -319501.647 4   -248962.175 2
  24656964.039     9159678.477 2   7137400.378 1
  20524615.511    -2055520.990 4  -1601703.290 3
  23530415.325     6881651.397 2   5362323.194 1
 91  8 10  0 14 45.0000000  0  5 23 03 20 17 16
  22745438.168    -7132955.796 3  -5558135.027 2
  20468847.512     -310397.570 4   -241868.096 2
  24668932.358     9222564.113 2   7186402.111 1
  20524126.538    -2058099.231 4  -1603712.302 3
  23540413.706     6934218.384 2   5403284.451 1
 91  8 10  0 15  0.0000000  0  5 23 03 20 17 16
  22737607.888    -7174096.557 3  -5590192.701 1
  20470602.201     -301166.123 4   -234674.757 2
  24680897.972     9285470.775 2   7235420.257 1
  20523655.260    -2060572.122 4  -1605639.222 3
  23550434.878     6986870.605 2   5444312.155 1
 91  8 10  0 15 15.0000000  0  5 23 03 20 17 16
  22729794.990    -7215145.365 3  -5622178.750 1
  20472383.258     -291806.609 4   -227381.642 2
  24692871.980     9348398.595 2   7284454.868 1
  20523202.584    -2062939.211 4  -1607483.691 3
  23560467.723     7039608.454 2   5485406.543 1
 91  8 10  0 15 30.0000000  0  5 23 03 20 17 16
  22722004.288    -7256098.940 3  -5654090.562 1
  20474191.606     -282316.304 4   -219986.577 2
  24704854.678     9411350.058 2   7333507.706 1
  20522773.274    -2065197.725 4  -1609243.566 3
  23570516.466     7092434.256 2   5526569.490 1
 91  8 10  0 15 45.0000000  0  5 23 03 20 17 16
  22714233.060    -7296956.816 3  -5685927.794 1
  20476020.947     -272694.593 4   -212489.155 2
  24716833.188     9474324.970 2   7382578.935 1
  20522365.567    -2067347.572 4  -1610918.762 2
  23580585.608     7145347.797 2   5567800.775 1
 91  8 10  0 16  0.0000000  0  5 23 03 20 17 16
  22706472.931    -7337720.954 3  -5717692.014 1
  20477878.157     -262943.461 4   -204890.866 2
  24728825.187     9537320.753 2   7431666.697 1
  20521977.928    -2069390.748 4  -1612510.841 3
  23590677.505     7198346.679 2   5609098.606 1
 91  8 10  0 16 15.0000000  0  5 23 03 20 17 16
  22698734.702    -7378391.867 3  -5749383.584 1
  20479756.062     -253063.409 4   -197192.122 2
  24740812.998     9600336.714 2   7480769.812 1
  20521606.779    -2071327.772 4  -1614020.190 3
  23600780.222     7251430.105 2   5650462.292 1
 91  8 10  0 16 30.0000000  0  5 23 03 20 17 16
  22691013.835    -7418966.851 3  -5781000.396 1
  20481662.132     -243052.030 4   -189391.046 2
  24752816.374     9663374.805 2   7529890.338 1
  20521262.033    -2073156.574 4  -1615445.225 3
  23610896.113     7304600.214 2   5691893.515 1
 91  8 10  0 16 45.0000000  0  5 23 03 20 17 16
  22683308.569    -7459449.751 3  -5812545.492 2
  20483591.602     -232913.298 4   -181490.741 2
  24764808.374     9726430.546 2   7579024.626 1
  20520931.962    -2074881.194 4  -1616789.076 3
  23621029.105     7357852.331 2   5733388.646 1
 91  8 10  0 17  0.0000000  0  5 23 03 20 17 16
  22675621.591    -7499840.119 3  -5844018.423 1
  20485547.143     -222646.567 4   -173490.685 2
  24776816.270     9789503.843 2   7628172.449 1
  20520623.774    -2076501.390 4  -1618051.555 3
  23631174.383     7411186.341 2   5774947.639 1
 91  8 10  0 17 15.0000000  0  5 23 03 20 17 16
  22667955.309    -7540132.297 3  -5875414.856 2
  20487524.585     -212246.593 4   -165386.810 2
  24788828.354     9852599.775 2   7677338.179 1
  20520340.766    -2078012.230 4  -1619228.819 3
  23641344.841     7464607.372 3   5816574.381 1
 91  8 10  0 17 30.0000000  0  5 23 03 20 17 16
  22660307.891    -7580328.714 3  -5906736.712 1
  20489526.299     -201715.920 4   -157181.080 2
  24800841.031     9915715.372 2   7726519.013 1
  20520073.342    -2079416.083 4  -1620322.713 3
  23651524.582     7518112.536 2   5858266.728 1
 91  8 10  0 17 45.0000000  0  5 23 03 20 17 16
  22652673.683    -7620436.470 3  -5937989.464 1
  20491557.086     -191061.430 4   -148878.894 2
  24812851.022     9978842.859 2   7775709.389 1
  20519822.721    -2080720.063 4  -1621338.801 3
  23661721.425     7571694.266 2   5900018.687 1
 91  8 10  0 18  0.0000000  0  5 23 03 20 17 16
  22645056.855    -7660449.845 3  -5969168.662 1
  20493609.476     -180277.630 4   -140475.915 2
  24824866.701    10041987.421 2   7824913.046 1
  20519591.576    -2081919.030 4  -1622273.055 3
  23671933.868     7625357.623 2   5941834.285 1
 91  8 10  0 18 15.0000000  0  5 23 03 20 17 16
  22637462.502    -7700374.221 3  -6000278.496 1
  20495684.341     -169370.049 4   -131976.507 2
  24836880.286    10105142.895 1   7874125.108 1
  20519385.332    -2083018.556 4  -1623129.816 3
  23682164.582     7679096.444 2   5983708.661 1
 91  8 10  0 18 30.0000000  0  5 23 03 20 17 16
  22629880.156    -7740206.113 3  -6031316.288 1
  20497785.871     -158335.325 4   -123378.004 2
  24848884.866    10168312.536 1   7923348.029 1
  20519193.153    -2084015.539 4  -1623906.674 3
  23692399.501     7732914.105 2   6025644.460 1
 91  8 10  0 18 45.0000000  0  4 23 03 17 16
  22622322.397    -7779946.070 3  -6062282.421 2
  20499910.505     -147173.857 4   -114680.759 2
  20519024.077    -2084910.718 4  -1624604.209 3
  23702657.490     7786809.405 2   6067640.759 1
 91  8 10  0 19  0.0000000  0  4 23 03 17 16
  22614775.719    -7819593.183 3  -6093176.253 2
  20502055.521     -135885.125 4   -105884.345 2
  20518874.180    -2085703.653 4  -1625222.076 3
  23712928.077     7840782.476 2   6109697.660 1
 91  8 10  0 19 15.0000000  0  4 23 03 17 16
  22607249.719    -7859147.962 3  -6123998.095 1
  20504229.626     -124469.646 4    -96989.172 2
  20518740.476    -2086394.801 4  -1625760.620 3
  23723209.169     7894832.294 2   6151814.387 1
 91  8 10  0 19 30.0000000  0  4 23 03 17 16
  22599739.023    -7898603.579 3  -6154742.668 1
  20506424.706     -112920.489 4    -87989.822 2
  20518628.952    -2086977.929 4  -1626214.989 3
  23733514.535     7948965.542 2   6193996.123 1
 91  8 10  0 19 45.0000000  0  4 23 03 17 16
  22592248.709    -7937965.845 3  -6185414.537 1
  20508650.063     -101243.799 4    -78891.101 2
  20518534.808    -2087458.900 4  -1626589.759 3
  23743831.296     8003175.683 2   6236237.764 1
 91  8 10  0 20  0.0000000  0  4 23 03 17 16
  22584773.088    -7977231.107 3  -6216010.771 1
  20510897.005      -89435.773 4    -69690.041 2
  20518466.770    -2087834.353 4  -1626882.311 3
  23754158.544     8057465.412 2   6278541.393 1
 91  8 10  0 20 15.0000000  0  4 23 03 17 16
  22577325.649    -8016404.576 3  -6246535.514 1
  20513165.830      -77501.793 4    -60390.837 2
  20518417.002    -2088109.788 4  -1627096.933 3
  23764504.080     8111829.262 2   6320902.805 1
 91  8 10  0 20 30.0000000  0  4 23 03 17 16
  22569885.400    -8055482.315 3  -6276985.658 1
  20515461.947      -65438.048 4    -50990.510 2
  20518383.724    -2088281.549 4  -1627230.762 3
  23774865.199     8166270.550 2   6363324.565 1
 91  8 10  0 20 45.0000000  0  4 23 03 17 16
  22562466.736    -8094466.725 3  -6307363.057 1
  20517782.041      -53247.220 4    -41491.170 2
  20518369.921    -2088352.432 4  -1627285.973 3
  23785240.715     8220786.173 2   6405804.249 1
 91  8 10  0 21  0.0000000  0  4 23 03 17 16
  22555066.658    -8133356.163 3  -6337666.446 1
  20520127.315      -40927.606 4    -31891.482 2
  20518375.627    -2088321.026 4  -1627261.490 3
  23795628.829     8275377.442 2   6448342.877 1
 91  8 10  0 21 15.0000000  0  4 23 03 17 16
  22547683.366    -8172149.928 3  -6367895.328 1
  20522495.379      -28478.627 4    -22190.968 2
  20518399.604    -2088186.711 4  -1627156.824 3
  23806031.620     8330044.489 2   6490940.540 1
 91  8 10  0 21 30.0000000  0  4 23 03 17 16
  22540320.159    -8210847.269 3  -6398049.026 2
  20524887.124      -15899.528 4    -12389.076 2
  20518443.980    -2087949.025 4  -1626971.613 3
  23816445.822     8384787.543 2   6533597.463 1
 91  8 10  0 21 45.0000000  0  4 23 03 17 16
  22532974.647    -8249451.038 3  -6428129.829 1
  20527305.235       -3193.257 4     -2488.089 2
  20518507.533    -2087611.300 4  -1626708.438 3
  23826877.999     8439603.390 2   6576311.073 1
 91  8 10  0 22  0.0000000  0  4 23 03 17 16
  22525646.812    -8287960.446 3  -6458137.136 2
  20529747.952        9640.891 4      7512.529 2
  20518590.579    -2087173.026 4  -1626366.919 3
  23837323.961     8494492.153 2   6619081.530 1
 91  8 10  0 22 15.0000000  0  4 23 03 17 16
  22518336.986    -8326371.562 3  -6488067.802 2
  20532215.849       22606.742 4     17615.791 2
  20518693.099    -2086630.402 4  -1625944.088 3
  23847785.227     8549457.076 2   6661911.309 1
 91  8 10  0 22 30.0000000  0  4 23 03 17 16
  22511048.431    -8364687.217 3  -6517924.102 2
  20534711.020       35701.326 4     27819.368 2
  20518816.018    -2085986.556 4  -1625442.377 3
  23858257.277     8604494.800 3   6704797.843 1
 91  8 10  0 22 45.0000000  0  4 23 03 17 16
  22503774.866    -8402909.141 3  -6547707.387 1
  20537223.573       48923.014 4     38121.977 2
  20518959.616    -2085243.267 4  -1624863.188 3
  23868741.315     8659603.224 2   6747739.479 1
 91  8 10  0 23  0.0000000  0  4 23 03 17 16
  22496518.978    -8441038.057 3  -6577418.172 2
  20539765.214       62270.723 4     48522.775 2
  20519117.907    -2084402.080 4  -1624207.708 3
  23879248.144     8714781.192 3   6790735.229 1
 91  8 10  0 23 15.0000000  0  4 23 03 17 16
  22489280.488    -8479068.860 3  -6607052.488 2
  20542328.442       75749.540 4     59025.752 2
  20519300.192    -2083457.905 4  -1623471.981 3
  23889757.956     8770033.193 2   6833788.752 1
 91  8 10  0 23 30.0000000  0  4 23 03 17 16
  22482062.398    -8517001.081 3  -6636610.044 2
  20544918.054       89360.038 4     69631.335 2
  20519498.339    -2082410.429 4  -1622655.760 3
  23900289.372     8825359.094 2   6876899.842 1
 91  8 10  0 23 45.0000000  0  4 23 03 17 16
  22474861.670    -8554837.709 3  -6666093.064 2
  20547533.737      103098.761 4     80336.827 2
  20519720.498    -2081263.002 4  -1621761.650 3
  23910831.572     8880755.247 2   6920065.652 1
 91  8 10  0 24  0.0000000  0  4 23 03 17 16
  22467676.543    -8592579.581 3  -6695502.269 1
  20550171.320      116964.998 4     91141.687 2
  20519955.832    -2080016.593 4  -1620790.417 3
  23921385.761     8936220.120 2   6963285.002 1
 91  8 10  0 24 15.0000000  0  4 23 03 17 16
  22460514.502    -8630224.572 3  -6724835.998 1
  20552835.864      130960.864 4    102047.550 2
  20520210.657    -2078669.222 4  -1619740.509 3
  23931951.361     8991755.560 2   7006559.338 1
 91  8 10  0 24 30.0000000  0  4 23 03 17 16
  22453371.657    -8667769.731 3  -6754091.914 1
  20555523.808      145088.933 4    113056.445 2
  20520488.866    -2077218.533 4  -1618610.096 3
  23942535.529     9047363.920 2   7049890.530 1
 91  8 10  0 24 45.0000000  0  4 23 03 17 16
  22446245.285    -8705217.080 3  -6783271.632 1
  20558238.119      159347.443 4    124166.958 2
  20520784.455    -2075666.688 4  -1617400.857 3
  23953132.296     9103042.747 2   7093276.567 1
 91  8 10  0 25  0.0000000  0  4 23 03 17 16
  22439140.813    -8742570.493 3  -6812378.128 2
  20560973.127      173732.106 4    135375.785 2
  20521094.144    -2074018.146 4  -1616116.268 3
  23963732.954     9158787.617 2   7136714.146 1
 91  8 10  0 25 15.0000000  0  4 23 03 17 16
  22432047.125    -8779824.621 3  -6841407.266 1
  20563737.521      188248.282 4    146687.087 2
  20521427.217    -2072267.470 4  -1614752.104 3
  23974356.106     9214603.343 2   7180206.866 1
 91  8 10  0 25 30.0000000  0  4 23 03 17 16
  22424974.412    -8816979.437 3  -6870359.026 1
  20566523.186      202896.108 4    158100.984 2
  20521786.970    -2070414.899 4  -1613308.540 3
  23984993.340     9270489.360 2   7223754.389 1
 91  8 10  0 25 45.0000000  0  4 23 03 17 16
  22417924.192    -8854036.874 3  -6899234.903 2
  20569338.238      217673.405 4    169615.757 2
  20522153.617    -2068462.683 4  -1611787.321 3
  23995636.873     9326443.146 2   7267354.723 1
 91  8 10  0 26  0.0000000  0  4 23 03 17 16
  22410894.669    -8890994.928 3  -6928033.351 1
  20572175.172      232582.140 4    181232.958 2
  20522546.945    -2066408.840 4  -1610186.926 3
  24006295.082     9382466.421 2   7311009.190 1
 91  8 10  0 26 15.0000000  0  4 23 03 17 16
  22403879.210    -8927856.665 3  -6956756.742 2
  20575034.600      247619.072 4    192950.049 2
  20522954.058    -2064257.133 4  -1608510.257 3
  24016971.893     9438555.602 2   7354715.016 1
 91  8 10  0 26 30.0000000  0  4 23 03 17 16
  22396882.667    -8964621.472 3  -6985404.581 2
  20577922.803      262784.531 4    204767.289 2
  20523382.165    -2062007.122 4  -1606756.994 3
  24027657.395     9494710.578 2   7398472.137 1
 91  8 10  0 26 45.0000000  0  4 23 03 17 16
  22389904.098    -9001288.016 3  -7013975.861 2
  20580831.387      278080.142 4    216685.951 2
  20523831.839    -2059657.510 4  -1604926.123 3
  24038353.401     9550932.302 2   7442281.253 1
 91  8 10  0 27  0.0000000  0  4 23 03 17 16
  22382948.913    -9037856.009 3  -7042470.370 1
  20583766.654      293506.097 4    228706.163 2
  20524296.521    -2057208.384 4  -1603017.704 3
  24049071.866     9607220.480 2   7486142.133 1
 91  8 10  0 27 15.0000000  0  4 23 03 17 16
  22376010.218    -9074323.921 3  -7070886.866 2
  20586728.008      309063.475 4    240828.796 2
  20524780.991    -2054658.596 4  -1601030.852 3
  24059796.944     9663576.111 2   7530055.600 1
 91  8 10  0 27 30.0000000  0  4 23 03 17 16
  22369086.198    -9110692.231 3  -7099225.748 1
  20589710.948      324751.876 4    253053.519 2
  20525282.842    -2052008.793 4  -1598966.067 3
  24070530.119     9719998.063 2   7574020.716 1
 91  8 10  0 27 45.0000000  0  4 23 03 17 16
  22362186.487    -9146962.957 3  -7127488.629 1
  20592724.147      340569.242 4    265378.745 2
  20525807.483    -2049261.389 4  -1596825.224 3
  24081281.582     9776483.845 2   7618035.571 1
 91  8 10  0 28  0.0000000  0  4 23 03 17 16
  22355300.543    -9183138.257 3  -7155677.112 2
  20595754.151      356513.152 4    277802.577 2
  20526349.208    -2046418.654 4  -1594610.098 3
  24092044.719     9833030.901 2   7662098.192 1
 91  8 10  0 28 15.0000000  0  4 23 03 17 16
  22348434.110    -9219212.474 3  -7183786.852 2
  20598815.041      372589.281 4    290329.427 2
  20526905.625    -2043475.221 4  -1592316.504 3
  24102812.673     9889644.090 2   7706212.362 1
 91  8 10  0 28 30.0000000  0  4 23 03 17 16
  22341589.244    -9255190.525 3  -7211821.664 2
  20601894.202      388792.700 4    302955.460 2
  20527487.224    -2040436.128 4  -1589948.376 3
  24113602.806     9946318.343 2   7750374.046 1
 91  8 10  0 28 45.0000000  0  4 23 03 17 16
  22334759.072    -9291068.826 3  -7239778.728 2
  20605005.750      405126.753 4    315683.310 2
  20528082.608    -2037298.399 4  -1587503.383 3
  24124397.423    10003056.553 2   7794585.703 1
 91  8 10  0 29  0.0000000  0  4 23 03 17 16
  22327957.675    -9326845.855 3  -7267656.889 1
  20608140.978      421592.978 4    328514.127 2
  20528702.282    -2034060.557 4  -1584980.387 3
  24135208.548    10059859.884 2   7838847.998 1
 91  8 10  0 29 15.0000000  0  4 23 03 17 16
  22321164.375    -9362522.232 3  -7295456.612 2
  20611298.700      438190.612 4    341447.353 2
  20529334.835    -2030723.288 4  -1582379.911 3
  24146030.458    10116726.879 2   7883159.958 1
 91  8 10  0 29 30.0000000  0  4 23 03 17 16
  22314395.366    -9398102.597 3  -7323181.528 2
  20614481.899      454915.078 4    354479.393 2
  20529986.583    -2027291.459 4  -1579705.748 3
  24156859.854    10173652.619 2   7927517.654 1
 91  8 10  0 29 45.0000000  0  4 23 03 17 16
  22307639.846    -9433578.847 3  -7350825.302 2
  20617690.575      471774.051 4    367616.267 2
  20530663.809    -2023757.606 4  -1576952.086 3
  24167700.644    10230644.562 2   7971926.955 1
 91  8 10  0 30  0.0000000  0  4 23 03 17 16
  22300911.007    -9468953.351 3  -7378389.811 2
  20620920.837      488765.160 4    380856.105 2
  20531351.836    -2020124.154 4  -1574120.814 3
  24178559.723    10287699.819 2   8016385.558 1
 91  8 10  0 30 15.0000000  0  4 23 03 17 16
  22294196.844    -9504228.620 3  -7405876.974 2
  20624183.469      505885.993 4    394197.005 2
  20532059.355    -2016393.857 4  -1571214.086 3
  24189427.509    10344815.561 2   8060891.330 1
 91  8 10  0 30 30.0000000  0  4 23 03 17 16
  22287505.488    -9539404.889 3  -7433287.020 2
  20627465.000      523136.179 4    407638.705 2
  20532792.037    -2012567.355 4  -1568232.392 3
  24200311.472    10401990.990 2   8105443.590 1
 91  8 10  0 30 45.0000000  0  4 23 03 17 16
  22280831.198    -9574483.483 3  -7460620.942 2
  20630768.710      540514.294 4    421180.086 2
  20533538.226    -2008646.030 4  -1565176.799 3
  24211194.230    10459224.064 2   8150040.755 1
 91  8 10  0 31  0.0000000  0  4 23 03 17 16
  22274173.713    -9609462.469 3  -7487877.243 2
  20634101.510      558022.014 4    434822.470 2
  20534300.591    -2004628.374 4  -1562046.156 3
  24222102.780    10516516.255 2   8194684.003 1
 91  8 10  0 31 15.0000000  0  4 23 03 17 16
  22267533.312    -9644341.274 3  -7515055.481 2
  20637460.991      575659.835 4    448566.225 2
  20535084.263    -2000514.024 4  -1558840.166 3
  24233021.224    10573867.656 2   8239373.419 1
 91  8 10  0 31 30.0000000  0  4 23 03 17 16
  22260917.795    -9679118.438 3  -7542154.532 2
  20640839.336      593429.386 4    462412.624 2
  20535882.000    -1996301.563 4  -1555557.729 3
  24243941.763    10631279.429 2   8284109.812 1
 91  8 10  0 31 45.0000000  0  4 23 03 17 16
  22254322.049    -9713795.433 3  -7569175.505 2
  20644247.381      611329.006 4    476360.371 2
  20536706.435    -1991992.862 4  -1552200.283 3
  24254878.198    10688749.498 2   8328891.675 1
 91  8 10  0 32  0.0000000  0  4 23 03 17 16
  22247737.105    -9748370.764 3  -7596117.288 2
  20647677.902      629360.019 4    490410.515 2
  20537545.547    -1987586.724 4  -1548766.924 3
  24265830.810    10746278.952 2   8373719.773 1
 91  8 10  0 32 15.0000000  0  4 23 03 17 16
  22241177.062    -9782846.609 3  -7622981.528 2
  20651131.527      647520.016 4    504561.156 2
  20538398.164    -1983085.599 4  -1545259.551 3
  24276788.831    10803864.776 2   8418591.842 1
 91  8 10  0 32 30.0000000  0  4 23 03 17 16
  22234638.884    -9817225.870 3  -7649770.520 2
  20654612.409      665806.137 4    518810.084 2
  20539275.055    -1978492.523 4  -1541680.524 3
  24287752.244    10861503.624 2   8463505.199 1
 91  8 10  0 32 45.0000000  0  4 23 03 17 16
  22228113.899    -9851500.798 3  -7676478.217 2
  20658116.692      684226.002 4    533163.215 2
  20540164.545    -1973800.140 4  -1538024.107 3
  24298738.134    10919202.688 2   8508465.500 1
 91  8 10  0 33  0.0000000  0  4 23 03 17 16
  22221609.295    -9885676.222 3  -7703108.369 2
  20661650.640      702774.647 4    547616.698 2
  20541078.012    -1969013.314 4  -1534294.113 3
  24309725.227    10976957.049 2   8553468.831 1
 91  8 10  0 33 15.0000000  0  4 23 03 17 16
  22215126.295    -9919750.328 3  -7729659.567 1
  20665201.375      721453.943 4    562172.002 2
  20542008.265    -1964130.784 4  -1530489.537 3
  24320727.607    11034767.677 2   8598516.084 1
 91  8 10  0 33 30.0000000  0  4 23 03 17 16
  22208661.862    -9953720.703 3  -7756129.955 2
  20668782.701      740265.975 4    576830.714 2
  20542955.899    -1959150.408 4  -1526608.713 3
  24331734.785    11092636.584 2   8643608.729 1
 91  8 10  0 33 45.0000000  0  4 23 03 17 16
  22202218.124    -9987591.713 3  -7782522.899 2
  20672387.410      759206.319 4    591589.419 2
  20543919.745    -1954076.478 4  -1522654.996 3
  24342757.861    11150558.952 2   8688743.017 1
 91  8 10  0 34  0.0000000  0  4 23 03 17 16
  22195793.268   -10021361.126 3  -7808836.676 1
  20676016.689      778277.366 4    606449.974 2
  20544903.658    -1948907.164 4  -1518626.948 3
  24353790.813    11208536.341 2   8733920.149 1
 91  8 10  0 34 15.0000000  0  4 23 03 17 16
  22189384.606   -10055026.854 3  -7835069.666 2
  20679668.461      797480.899 4    621413.767 2
  20545905.562    -1943640.688 4  -1514523.198 3
  24364828.879    11266570.348 2   8779141.449 1
 91  8 10  0 34 30.0000000  0  4 23 03 17 16
  22182996.029   -10088591.169 3  -7861223.632 2
  20683349.916      816814.527 4    636478.929 2
  20546926.051    -1938279.614 4  -1510345.726 3
  24375886.733    11324658.273 2   8824404.755 1
 91  8 10  0 34 45.0000000  0  4 23 03 17 16
  22176631.132   -10122051.137 3  -7887296.278 2
  20687053.254      836281.086 4    651647.670 2
  20547964.845    -1932821.000 4  -1506092.249 3
  24386954.760    11382802.726 2   8869712.116 1
 91  8 10  0 35  0.0000000  0  4 23 03 17 16
  22170285.430   -10155410.889 3  -7913290.848 2
  20690781.475      855876.445 4    666916.769 2
  20549024.614    -1927269.252 4  -1501766.208 3
  24398032.700    11440998.775 2   8915059.661 1
 91  8 10  0 35 15.0000000  0  4 23 03 17 16
  22163952.921   -10188670.990 3  -7939207.766 2
  20694536.064      875600.014 4    682285.773 2
  20550096.668    -1921625.405 4  -1497368.397 3
  24409114.530    11499245.540 2   8960446.703 1
 91  8 10  0 35 30.0000000  0  4 23 03 17 16
  22157642.276   -10221828.062 3  -7965044.388 2
  20698313.757      895454.763 4    697757.009 2
  20551187.010    -1915886.164 4  -1492896.250 3
  24420201.142    11557545.897 2   9005875.537 1
 91  8 10  0 35 45.0000000  0  4 23 03 17 16
  22151351.141   -10254881.015 3  -7990799.892 2
  20702118.428      915441.862 4    713331.365 2
  20552295.936    -1910050.671 4  -1488349.100 3
  24431304.855    11615900.529 2   9051346.662 1
 91  8 10  0 36  0.0000000  0  4 23 03 17 16
  22145082.185   -10287827.572 3  -8016472.484 2
  20705945.575      935563.728 4    729010.728 2
  20553427.653    -1904117.045 4  -1483725.492 3
  24442427.153    11674311.357 2   9096861.536 1
 91  8 10  0 36 15.0000000  0  4 23 03 17 16
  22138835.409   -10320674.103 3  -8042067.134 2
  20709799.403      955813.681 4    744789.913 2
  20554577.064    -1898091.722 4  -1479030.429 3
  24453551.562    11732771.553 2   9142414.914 1
 91  8 10  0 36 30.0000000  0  4 23 03 17 16
  22132597.619   -10353422.436 3  -8067585.256 2
  20713677.225      976189.868 4    760667.466 2
  20555735.462    -1891976.821 4  -1474265.559 3
  24464689.443    11791278.515 2   9188004.764 1
 91  8 10  0 36 45.0000000  0  4 23 03 17 16
  22126389.512   -10386065.750 3  -8093021.564 2
  20717579.617      996698.841 4    776648.470 2
  20556917.836    -1885765.997 4  -1469425.947 3
  24475824.636    11849838.477 2   9233635.857 1
 91  8 10  0 37  0.0000000  0  4 23 03 17 16
  22120197.302   -10418603.193 3  -8118375.379 2
  20721508.098     1017341.204 4    792733.435 2
  20558121.814    -1879458.420 4  -1464510.954 3
  24486976.913    11908451.770 2   9279308.559 1
 91  8 10  0 37 15.0000000  0  4 23 03 17 16
  22114025.771   -10451039.658 3  -8143650.483 2
  20725459.665     1038112.164 4    808918.592 2
  20559339.560    -1873059.216 4  -1459524.552 3
  24498145.681    11967113.236 2   9325018.757 1
 91  8 10  0 37 30.0000000  0  4 23 03 17 16
  22107871.341   -10483368.938 3  -8168842.085 2
  20729439.414     1059017.974 4    825208.816 2
  20560572.610    -1866562.538 4  -1454462.194 3
  24509316.246    12025828.847 2   9370771.138 1
 91  8 10  0 37 45.0000000  0  4 23 03 17 16
  22101740.888   -10515593.551 3  -8193952.116 2
  20733441.342     1080055.997 4    841602.083 2
  20561827.839    -1859970.986 4  -1449325.913 3
  24520499.113    12084595.133 2   9416563.029 1
 91  8 10  0 38  0.0000000  0  4 23 03 17 16
  22095629.315   -10547717.047 3  -8218983.358 2
  20737469.341     1101222.444 4    858095.429 2
  20563100.169    -1853288.397 4  -1444118.697 3
  24531690.356    12143408.032 2   9462391.244 1
 91  8 10  0 38 15.0000000  0  4 23 03 17 16
  22089536.938   -10579733.738 3  -8243931.382 2
  20741524.038     1122522.861 4    874693.146 2
  20564392.270    -1846509.289 4  -1438836.265 3
  24542894.810    12202272.762 2   9508259.875 1
 91  8 10  0 38 30.0010000  0  4 23 03 17 16
  22083463.428   -10611648.049 3  -8268799.648 2
  20745603.013     1143956.065 4    891394.340 2
  20565697.567    -1839635.801 4  -1433480.294 3
  24554107.345    12261190.794 2   9554170.010 1
 91  8 10  0 38 45.0010000  0  4 23 03 17 16
  22077407.627   -10643458.475 3  -8293586.936 2
  20749704.774     1165516.876 4    908194.973 2
  20567019.648    -1832671.875 4  -1428053.858 3
  24565324.380    12320151.072 2   9600113.036 1
 91  8 10  0 39  0.0010000  0  4 23 03 17 16
  22071376.098   -10675167.395 3  -8318295.143 2
  20753832.919     1187206.213 4    925095.740 2
  20568364.222    -1825617.351 4  -1422556.825 3
  24576553.700    12379156.655 2   9646091.421 1
 91  8 10  0 39 15.0010000  0  4 23 03 17 16
  22065359.263   -10706769.119 3  -8342919.812 2
  20757984.448     1209029.562 4    942100.944 2
  20569722.285    -1818466.847 4  -1416985.001 3
  24587785.428    12438212.891 2   9692109.177 1
 91  8 10  0 39 30.0010000  0  4 23 03 17 16
  22059367.016   -10738266.940 3  -8367463.524 2
  20762161.751     1230983.500 4    959207.896 2
  20571101.917    -1811224.225 4  -1411341.394 3
  24599037.538    12497315.786 2   9738163.467 1
 91  8 10  0 39 45.0010000  0  4 23 03 17 16
  22053394.556   -10769659.241 3  -8391925.017 2
  20766366.049     1253069.557 4    976417.807 2
  20572503.152    -1803887.725 4  -1405624.639 3
  24610286.960    12556466.417 2   9784254.768 1
 91  8 10  0 40  0.0010000  0  4 23 03 17 16
  22047440.368   -10800944.093 3  -8416302.775 2
  20770593.120     1275289.696 4    993732.208 2
  20573914.281    -1796455.664 4  -1399833.417 3
  24621560.953    12615666.541 2   9830384.709 1
 91  8 10  0 40 15.0010000  0  4 23 03 17 16
  22041505.077   -10832127.446 3  -8440601.456 2
  20774844.779     1297637.868 4   1011146.362 2
  20575349.684    -1788934.240 4  -1393972.562 3
  24632833.148    12674909.659 2   9876548.177 1
 91  8 10  0 40 30.0010000  0  4 23 03 17 16
  22035591.984   -10863208.254 3  -8464820.217 2
  20779124.916     1320114.933 4   1028660.948 2
  20576798.872    -1781322.711 4  -1388041.493 3
  24644115.237    12734196.294 2   9922745.551 1
 91  8 10  0 40 45.0010000  0  4 23 03 17 16
  22029697.754   -10894184.453 3  -8488957.486 2
  20783427.529     1342722.703 4   1046277.405 2
  20578260.974    -1773619.165 4  -1382038.732 3
  24655400.921    12793528.097 2   9968978.089 1
 91  8 10  0 41  0.0010000  0  4 23 03 17 16
  22023821.533   -10925054.116 3  -8513011.718 2
  20787752.338     1365463.072 4   1063997.169 2
  20579744.347    -1765822.142 4  -1375963.116 3
  24666704.596    12852906.615 2  10015247.023 1
 91  8 10  0 41 15.0010000  0  4 23 03 17 16
  22017970.475   -10955816.937 3  -8536982.703 2
  20792108.331     1388336.259 4   1081820.429 2
  20581244.804    -1757931.346 4  -1369814.442 3
  24678007.364    12912331.178 2  10061551.906 1
 91  8 10  0 41 30.0010000  0  4 23 03 17 16
  22012135.314   -10986476.028 3  -8560872.859 2
  20796483.502     1411339.179 4   1099744.772 2
  20582763.252    -1749950.109 4  -1363595.288 3
  24689333.236    12971798.541 2  10107890.082 1
 91  8 10  0 41 45.0010000  0  4 23 03 17 16
  22006322.332   -11017028.708 3  -8584680.101 2
  20800884.744     1434474.396 4   1117772.225 2
  20584299.081    -1741876.057 4  -1357303.822 3
  24700660.591    13031311.178 2  10154263.550 1
 91  8 10  0 42  0.0010000  0  4 23 03 17 16
  22000524.061   -11047477.583 3  -8608406.453 2
  20805311.480     1457738.967 4   1135900.451 2
  20585853.808    -1733712.221 4  -1350942.383 3
  24711996.043    13090865.650 2  10200669.608 1
 91  8 10  0 42 15.0010000  0  4 23 03 17 16
  21994752.454   -11077820.737 3  -8632050.426 2
  20809763.397     1481134.803 4   1154130.969 2
  20587426.823    -1725456.741 4  -1344509.537 3
  24723329.087    13150463.177 2  10247109.230 1
 91  8 10  0 42 30.0010000  0  4 23 03 17 16
  21989000.025   -11108061.065 3  -8655614.267 2
  20814241.996     1504659.022 4   1172461.523 2
  20589014.827    -1717112.482 4  -1338007.510 3
  24734671.449    13210100.914 2  10293580.204 1
 91  8 10  0 42 45.0010000  0  4 23 03 17 16
  21983263.510   -11138193.218 3  -8679093.846 2
  20818743.384     1528316.737 4   1190896.100 2
  20590619.916    -1708674.484 4  -1331432.442 3
  24746027.283    13269783.761 2  10340086.264 1
 91  8 10  0 43  0.0010000  0  4 23 03 17 16
  21977549.454   -11168217.095 3  -8702489.033 2
  20823271.454     1552108.127 4   1209434.850 2
  20592239.383    -1700143.081 4  -1324784.592 3
  24757408.594    13329511.128 2  10386627.060 1
 91  8 10  0 43 15.0010000  0  4 23 03 17 16
  21971857.594   -11198134.241 3  -8725801.051 2
  20827825.001     1576031.431 4   1228076.382 2
  20593884.346    -1691519.676 4  -1318065.050 3
  24768771.339    13389280.967 2  10433200.916 1
 91  8 10  0 43 30.0010000  0  4 23 03 17 16
  21966184.022   -11227948.370 3  -8749032.816 2
  20832401.320     1600082.748 4   1246817.650 2
  20595539.202    -1682808.358 4  -1311277.009 3
  24780156.559    13449089.123 2  10479804.690 1
 91  8 10  0 43 45.0010000  0  4 23 03 17 16
  21960531.443   -11257655.765 3  -8772181.396 2
  20837003.135     1624265.846 4   1265661.632 2
  20597215.348    -1674005.626 4  -1304417.722 3
  24791541.779    13508939.122 2  10526441.012 1
 91  8 10  0 44  0.0010000  0  4 23 03 17 16
  21954899.245   -11287258.322 3  -8795248.265 2
  20841628.333     1648578.555 4   1284606.591 2
  20598906.466    -1665113.794 4  -1297489.019 3
  24802942.582    13568828.412 2  10573107.954 1
 91  8 10  0 44 15.0010000  0  4 23 03 17 16
  21949280.223   -11316756.469 3  -8818233.809 2
  20846281.712     1673020.488 4   1303652.261 2
  20600615.889    -1656133.450 4  -1290491.337 3
  24814344.292    13628756.098 2  10619804.836 1
 91  8 10  0 44 30.0010000  0  4 23 03 17 16
  21943693.291   -11346142.448 3  -8841131.938 2
  20850955.491     1697599.273 4   1322804.566 2
  20602342.693    -1647056.903 4  -1283418.700 3
  24825752.582    13688729.842 2  10666537.608 1
 91  8 10  0 44 45.0010000  0  4 23 03 17 16
  21938120.756   -11375421.757 3  -8863946.942 2
  20855657.121     1722309.132 4   1342058.996 2
  20604090.786    -1637889.963 4  -1276275.626 3
  24837173.487    13748743.283 2  10713301.312 1
 91  8 10  0 45  0.0010000  0  4 23 03 17 16
  21932569.790   -11404594.774 3  -8886679.125 2
  20860386.060     1747149.776 4   1361415.342 2
  20605849.070    -1628633.383 4  -1269062.701 3
  24848601.879    13808795.568 2  10760095.263 1
 91  8 10  0 45 15.0010000  0  4 23 03 17 16
  21927038.332   -11433661.955 3  -8909328.849 2
  20865135.975     1772120.691 4   1380873.194 2
  20607626.532    -1619287.666 4  -1261780.316 3
  24860038.351    13868886.087 2  10806919.048 1
 91  8 10  0 45 30.0010000  0  4 23 03 17 16
  21921524.238   -11462619.516 3  -8931893.148 2
  20869914.961     1797225.401 4   1400435.294 1
  20609424.689    -1609849.152 4  -1254425.620 3
  24871488.032    13929018.023 2  10853775.060 1
 91  8 10  0 45 45.0010000  0  4 23 03 17 16
  21916036.546   -11491469.569 3  -8954373.674 2
  20874719.128     1822461.654 4   1420099.898 2
  20611237.837    -1600320.303 4  -1247000.538 3
  24882928.709    13989188.603 2  10900661.226 1
 91  8 10  0 46  0.0010000  0  4 23 03 17 16
  21910568.032   -11520215.369 3  -8976772.947 2
  20879549.383     1847826.092 4   1439864.399 2
  20613066.864    -1590704.730 4  -1239507.884 3
  24894386.783    14049394.306 2  10947574.722 1
 91  8 10  0 46 15.0010000  0  4 23 03 17 16
  21905114.804   -11548852.963 3  -8999087.943 2
  20884393.738     1873322.655 4   1459731.869 2
  20614914.790    -1580998.448 4  -1231944.536 3
  24905848.732    14109638.925 2  10994518.581 1
 91  8 10  0 46 30.0010000  0  4 23 03 17 16
  21899686.163   -11577381.196 3  -9021317.685 2
  20889272.261     1898952.405 4   1479703.094 2
  20616781.596    -1571200.552 4  -1224309.815 3
  24917328.096    14169922.883 2  11041493.084 1
 91  8 10  0 46 45.0010000  0  4 23 03 17 16
  21894279.109   -11605798.765 3  -9043461.201 2
  20894177.465     1924716.571 4   1499779.067 2
  20618662.800    -1561309.870 4  -1216602.786 3
  24928802.940    14230247.259 2  11088499.063 1
 91  8 10  0 47  0.0010000  0  4 23 03 17 16
  21888890.342   -11634110.530 3  -9065522.304 2
  20899104.551     1950610.101 4   1519955.841 2
  20620560.790    -1551331.496 4  -1208827.414 3
  24940286.492    14290606.385 2  11135532.104 1
 91  8 10  0 47 15.0010000  0  4 23 03 17 16
  21883525.848   -11662311.865 3  -9087497.329 2
  20904055.317     1976637.419 4   1540236.857 1
  20622478.255    -1541261.089 4  -1200980.338 3
  24951783.533    14351004.686 2  11182595.685 1
 91  8 10  0 47 30.0010000  0  4 23 03 17 16
  21878177.845   -11690405.360 3  -9109388.333 2
  20909033.672     2002796.016 4   1560620.184 2
  20624409.523    -1531101.641 4  -1193063.884 3
  24963285.373    14411438.990 2  11229687.415 1
 91  8 10  0 47 45.0010000  0  4 23 03 17 16
  21872853.836   -11718390.645 3  -9131195.009 2
  20914035.708     2029086.025 4   1581105.910 2
  20626363.267    -1520852.910 4  -1185077.850 3
  24974788.714    14471909.278 2  11276807.080 1
 91  8 10  0 48  0.0010000  0  4 23 03 17 16
  21867551.116   -11746265.252 3  -9152915.463 2
  20919067.426     2055509.957 4   1601695.981 2
  20628328.109    -1510512.383 4  -1177020.290 3
  24986307.341    14532417.502 2  11323956.369 1
 91  8 10  0 48 15.0010000  0  4 23 03 17 16
  21862264.869   -11774031.575 3  -9174551.521 2
  20924120.136     2082064.945 4   1622388.198 1
  20630313.036    -1500082.910 4  -1168893.424 3
  24997828.969    14592961.052 2  11371133.088 1
 91  8 10  0 48 30.0010000  0  4 23 03 17 16
  21857003.803   -11801691.114 3  -9196104.378 2
  20929194.712     2108749.731 4   1643181.528 2
  20632312.639    -1489566.342 4  -1160698.696 3
  25009354.786    14653537.751 2  11418335.697 1
 91  8 10  0 48 45.0010000  0  4 23 03 17 16
  21851760.746   -11829242.604 3  -9217573.039 2
  20934301.378     2135565.306 4   1664076.762 2
  20634332.956    -1478961.368 4  -1152435.076 3
  25020885.401    14714148.516 2  11465564.852 1
 91  8 10  0 49  0.0010000  0  4 23 03 17 16
  21846534.754   -11856688.414 3  -9238959.362 2
  20939429.334     2162509.654 4   1685072.354 2
  20636364.039    -1468270.200 4  -1144104.286 3
  25032425.021    14774790.930 2  11512818.678 1
 91  8 10  0 49 15.0010000  0  3 23 03 17
  21841333.665   -11884027.578 3  -9260262.581 2
  20944578.876     2189583.134 4   1706168.573 2
  20638419.116    -1457492.451 4  -1135706.041 3
 91  8 10  0 49 30.0010000  0  3 23 03 17
  21836155.347   -11911253.871 3  -9281477.843 2
  20949756.879     2216791.941 4   1727370.227 2
  20640486.496    -1446622.173 4  -1127235.695 3
 91  8 10  0 49 45.0010000  0  3 23 03 17
  21830993.521   -11938369.109 3  -9302606.569 2
  20954957.393     2244134.056 4   1748675.787 1
  20642571.552    -1435661.362 4  -1118694.794 3
 91  8 10  0 50  0.0010000  0  3 23 03 17
  21825854.170   -11965377.899 3  -9323652.355 2
  20960185.757     2271604.940 4   1770081.667 1
  20644674.583    -1424614.966 4  -1110087.211 3
 91  8 10  0 50 15.0010000  0  3 23 03 17
  21820735.218   -11992278.316 3  -9344613.697 2
  20965440.821     2299206.116 4   1791589.070 2
  20646791.416    -1413481.156 4  -1101411.515 3
 91  8 10  0 50 30.0010000  0  3 23 03 17
  21815635.148   -12019070.240 3  -9365490.489 2
  20970718.674     2326937.897 4   1813198.248 2
  20648927.742    -1402259.889 4  -1092667.676 3
 91  8 10  0 50 45.0010000  0  3 23 03 17
  21810557.867   -12045752.970 3  -9386282.192 2
  20976016.612     2354800.862 4   1834909.639 2
  20651076.963    -1390950.725 4  -1083855.331 3
 91  8 10  0 51  0.0010000  0  3 23 03 17
  21805500.672   -12072328.387 3  -9406990.287 2
  20981344.513     2382792.927 4   1856721.633 2
  20653247.753    -1379555.816 4  -1074976.178 3
 91  8 10  0 51 15.0010000  0  3 23 03 17
  21800466.249   -12098791.502 3  -9427610.875 2
  20986697.018     2410919.025 4   1878638.068 1
  20655435.347    -1368070.193 4  -1066026.342 3
 91  8 10  0 51 30.0010000  0  3 23 03 17
  21795452.226   -12125148.606 3  -9448148.843 2
  20992075.280     2439172.751 4   1900653.954 2
  20657634.319    -1356500.211 4  -1057010.766 3
 91  8 10  0 51 45.0010000  0  3 23 03 17
  21790457.974   -12151395.878 3  -9468601.239 2
  20997474.255     2467557.627 4   1922772.018 1
  20659851.578    -1344842.824 4  -1047927.080 3
 91  8 10  0 52  0.0010000  0  3 23 03 17
  21785479.322   -12177534.822 3  -9488969.211 2
  21002901.988     2496072.450 4   1944991.374 2
  20662088.033    -1333099.374 4  -1038776.335 3
 91  8 10  0 52 15.0010000  0  3 23 03 17
  21780530.649   -12203564.432 3  -9509252.003 2
  21008351.325     2524717.626 4   1967312.273 2
  20664337.383    -1321268.876 4  -1029557.767 3
 91  8 10  0 52 30.0010000  0  3 23 03 17
  21775594.873   -12229485.808 3  -9529450.441 2
  21013828.826     2553492.326 4   1989734.101 2
  20666608.302    -1309352.851 4  -1020272.546 3
 91  8 10  0 52 45.0010000  0  3 23 03 17
  21770681.869   -12255298.614 3  -9549564.285 2
  21019326.727     2582396.576 4   2012256.887 2
  20668892.431    -1297351.019 4  -1010920.464 3
 91  8 10  0 53  0.0010000  0  3 23 03 17
  21765792.248   -12280999.275 3  -9569590.754 2
  21024855.497     2611433.795 4   2034883.275 2
  20671193.033    -1285260.147 4  -1001499.003 3
 91  8 10  0 53 15.0010000  0  3 23 03 17
  21760922.730   -12306590.234 3  -9589531.724 2
  21030403.148     2640601.609 3   2057611.438 1
  20673512.533    -1273083.054 4   -992010.362 3
 91  8 10  0 53 30.0010000  0  3 23 03 17
  21756076.281   -12332072.573 3  -9609388.060 2
  21035978.702     2669898.619 3   2080440.271 1
  20675843.411    -1260820.998 4   -982455.506 3
 91  8 10  0 53 45.0010000  0  3 23 03 17
  21751246.026   -12357439.950 3  -9629154.816 2
  21041580.920     2699331.203 3   2103374.747 2
  20678194.689    -1248467.644 4   -972829.507 3
 91  8 10  0 54  0.0010000  0  3 23 03 17
  21746442.452   -12382697.571 3  -9648836.041 2
  21047207.725     2728893.965 4   2126410.648 2
  20680559.141    -1236028.124 4   -963136.371 3
 91  8 10  0 54 15.0010000  0  3 23 03 17
  21741657.166   -12407846.093 4  -9668432.266 2
  21052857.617     2758586.338 4   2149547.556 2
  20682942.492    -1223503.494 4   -953376.917 3
 91  8 10  0 54 30.0010000  0  3 23 03 17
  21736891.058   -12432886.106 3  -9687943.930 2
  21058532.375     2788407.369 4   2172784.702 2
  20685343.537    -1210894.525 4   -943551.736 3
 91  8 10  0 54 45.0010000  0  3 23 03 17
  21732144.756   -12457820.221 3  -9707373.086 2
  21064229.644     2818354.516 4   2196120.132 2
  20687760.165    -1198204.159 4   -933663.132 3
 91  8 10  0 55  0.0010000  0  3 23 03 17
  21727423.617   -12482645.109 4  -9726717.117 2
  21069952.374     2848430.936 4   2219556.294 2
  20690190.579    -1185429.240 4   -923708.647 3
 91  8 10  0 55 15.0010000  0  3 23 03 17
  21722715.670   -12507355.828 3  -9745972.190 2
  21075700.894     2878641.258 3   2243096.790 2
  20692636.890    -1172564.858 4   -913684.451 3
 91  8 10  0 55 30.0010000  0  3 23 03 17
  21718037.110   -12531956.342 3  -9765141.389 2
  21081476.393     2908981.568 3   2266738.590 1
  20695104.176    -1159615.407 4   -903593.963 3
 91  8 10  0 55 45.0010000  0  3 23 03 17
  21713377.744   -12556446.530 4  -9784224.627 2
  21087275.274     2939451.985 3   2290481.768 2
  20697583.765    -1146580.732 4   -893437.065 3
 91  8 10  0 56  0.0010000  0  3 23 03 17
  21708743.856   -12580823.350 3  -9803219.521 2
  21093097.260     2970055.361 4   2314328.547 2
  20700076.843    -1133457.970 4   -883211.534 3
 91  8 10  0 56 15.0010000  0  3 23 03 17
  21704121.957   -12605087.809 4  -9822126.863 2
  21098946.800     3000790.305 3   2338277.840 1
  20702593.286    -1120248.214 4   -872918.222 3
 91  8 10  0 56 30.0010000  0  3 23 03 17
  21699526.739   -12629242.149 4  -9840948.392 2
  21104819.444     3031654.764 3   2362328.067 2
  20705123.533    -1106953.925 4   -862559.019 3
 91  8 10  0 56 45.0010000  0  3 23 03 17
  21694949.494   -12653290.533 4  -9859687.360 2
  21110717.251     3062644.273 3   2386475.727 2
  20707664.581    -1093579.609 4   -852137.470 3
 91  8 10  0 57  0.0010000  0  3 23 03 17
  21690394.446   -12677226.420 3  -9878338.677 2
  21116637.848     3093765.547 3   2410726.041 2
  20710229.310    -1080118.993 4   -841648.677 3
 91  8 10  0 57 15.0010000  0  3 23 03 17
  21685859.187   -12701052.940 3  -9896904.767 2
  21122587.832     3125014.988 4   2435076.248 2
  20712805.119    -1066575.203 4   -831095.067 3
 91  8 10  0 57 30.0010000  0  3 23 03 17
  21681345.811   -12724767.031 3  -9915383.238 2
  21128555.213     3156395.720 3   2459528.764 2
  20715399.827    -1052945.325 4   -820474.370 3
 91  8 10  0 57 45.0010000  0  3 23 03 17
  21676857.318   -12748370.419 3  -9933775.473 2
  21134553.446     3187905.928 3   2484082.160 2
  20718008.913    -1039231.416 4   -809788.215 3
 91  8 10  0 58  0.0010000  0  3 23 03 17
  21672385.926   -12771862.910 4  -9952081.277 2
  21140573.579     3219545.548 3   2508736.405 1
  20720634.805    -1025433.470 4   -799036.567 3
 91  8 10  0 58 15.0010000  0  3 23 03 17
  21667937.604   -12795242.925 4  -9970299.450 2
  21146618.893     3251315.938 3   2533492.551 2
  20723278.077    -1011549.982 4   -788218.258 3
 91  8 10  0 58 30.0010000  0  3 23 03 17
  21663509.070   -12818507.107 4  -9988427.353 2
  21152692.389     3283220.608 3   2558353.326 1
  20725933.633     -997577.765 4   -777330.805 3
 91  8 10  0 58 45.0010000  0  3 23 03 17
  21659102.123   -12841660.685 3 -10006469.060 2
  21158786.581     3315254.282 3   2583314.654 1
  20728609.589     -983522.317 4   -766378.495 3
 91  8 10  0 59  0.0010000  0  3 23 03 17
  21654720.949   -12864702.516 4 -10024423.723 2
  21164908.641     3347417.851 4   2608377.130 2
  20731299.628     -969382.644 4   -755360.574 3
 91  8 10  0 59 15.0010000  0  3 23 03 17
  21650356.562   -12887627.395 4 -10042287.234 2
  21171055.585     3379716.199 3   2633544.667 2
  20734009.751     -955153.591 4   -744272.992 3
 91  8 10  0 59 30.0010000  0  3 23 03 17
  21646013.779   -12910446.674 4 -10060068.460 2
  21177223.207     3412138.007 3   2658808.423 2
  20736732.159     -940846.792 4   -733124.835 3
 91  8 10  0 59 45.0010000  0  3 23 03 17
  21641685.968   -12933172.040 3 -10077776.510 2
  21183411.525     3444671.564 3   2684159.238 1
  20739467.760     -926474.137 4   -721925.356 3
 91  8 10  1  0  0.0010000  0  3 23 03 17
  21637375.555   -12955821.935 4 -10095425.750 2
  21189622.023     3477298.097 3   2709582.514 2
  20742212.069     -912054.261 4   -710689.089 3
 91  8 10  1  0 15.0010000  0  3 23 03 17
  21633090.025   -12978357.722 4 -10112986.081 2
  21195856.515     3510056.357 3   2735108.435 1
  20744969.552     -897548.367 4   -699385.782 3
 91  8 10  1  0 30.0010000  0  3 23 03 17
  21628823.971   -13000776.994 4 -10130455.616 2
  21202115.873     3542948.586 3   2760738.719 2
  20747748.325     -882954.328 4   -688013.799 3
 91  8 10  1  0 45.0010000  0  3 23 03 17
  21624580.113   -13023083.160 4 -10147837.009 2
  21208400.133     3575971.233 3   2786470.658 2
  20750539.400     -868275.730 4   -676575.929 3
 91  8 10  1  1  0.0010000  0  3 23 03 17
  21620356.636   -13045270.471 4 -10165125.801 2
  21214712.260     3609129.936 3   2812308.600 2
  20753350.857     -853507.053 4   -665067.860 3
 91  8 10  1  1 15.0010000  0  3 23 03 17
  21616158.952   -13067345.429 4 -10182327.047 2
  21221043.880     3642418.083 3   2838247.400 2
  20756177.600     -838655.035 4   -653494.851 3
 91  8 10  1  1 30.0010000  0  3 23 03 17
  21611977.443   -13089305.865 4 -10199439.046 2
  21227403.367     3675837.674 3   2864288.640 1
  20759018.723     -823717.562 4   -641855.259 3
 91  8 10  1  1 45.0010000  0  3 23 03 17
  21607818.411   -13111156.624 4 -10216465.587 2
  21233789.554     3709383.713 3   2890428.389 2
  20761875.149     -808699.924 4   -630153.198 3
 91  8 10  1  2  0.0010000  0  3 23 03 17
  21603685.484   -13132882.403 4 -10233394.732 2
  21240197.326     3743071.269 3   2916678.443 2
  20764753.754     -793586.882 4   -618376.799 3
 91  8 10  1  2 15.0010000  0  3 23 03 17
  21599576.516   -13154469.109 4 -10250215.521 2
  21246638.358     3776914.525 3   2943049.801 1
  20767652.462     -778364.343 4   -606515.071 3
 91  8 10  1  2 30.0010000  0  3 23 03 17
  21595492.449   -13175945.252 4 -10266950.148 2
  21253103.088     3810884.766 3   2969520.104 1
  20770564.345     -763061.197 4   -594590.540 3
 91  8 10  1  2 45.0010000  0  3 23 03 17
  21591422.465   -13197312.808 4 -10283600.163 2
  21259589.701     3844979.746 3   2996087.622 1
  20773487.920     -747679.505 4   -582604.802 3
 91  8 10  1  3  0.0010000  0  3 23 03 17
  21587376.772   -13218567.439 4 -10300162.191 2
  21266104.181     3879204.073 3   3022755.919 1
  20776433.080     -732214.869 4   -570554.425 3
 91  8 10  1  3 15.0010000  0  3 23 03 17
  21583354.148   -13239709.843 4 -10316636.769 2
  21272642.062     3913556.553 3   3049524.080 1
  20779390.822     -716668.104 4   -558440.056 3
 91  8 10  1  3 30.0010000  0  3 23 03 17
  21579351.626   -13260741.191 3 -10333024.805 2
  21279200.308     3948036.023 3   3076391.188 1
  20782362.664     -701040.718 4   -546262.881 3
 91  8 10  1  3 45.0010000  0  3 23 03 17
  21575370.673   -13281658.036 4 -10349323.623 2
  21285787.364     3982645.787 3   3103359.831 2
  20785351.607     -685329.507 4   -534020.372 3
 91  8 10  1  4  0.0010000  0  3 23 03 17
  21571414.918   -13302466.335 4 -10365537.846 2
  21292397.785     4017379.720 3   3130425.222 1
  20788357.913     -669540.638 4   -521717.350 3
 91  8 10  1  4 15.0010000  0  3 23 03 17
  21567476.544   -13323162.456 4 -10381664.671 2
  21299032.794     4052241.765 3   3157590.451 1
  20791378.930     -653670.276 4   -509350.838 3
 91  8 10  1  4 30.0010000  0  3 23 03 17
  21563555.567   -13343751.997 4 -10397708.444 2
  21305689.075     4087225.568 3   3184850.542 2
  20794413.732     -637724.469 4   -496925.526 3
 91  8 10  1  4 45.0010000  0  3 23 03 17
  21559661.551   -13364227.412 4 -10413663.271 2
  21312369.647     4122338.708 3   3212211.431 1
  20797463.524     -621696.009 4   -484435.815 3
 91  8 10  1  5  0.0010000  0  4 21 23 03 17
  25392880.767           0.783 2         0.089 1
  21555786.747   -13384589.336 4 -10429529.690 2
  21319074.806     4157580.673 3   3239672.689 1
  20800527.992     -605585.423 4   -471882.104 3
 91  8 10  1  5 15.0010000  0  4 21 23 03 17
  25384443.412      -44342.099 2    -34552.686 1
  21551932.605   -13404840.528 4 -10445309.816 2
  21325806.349     4192948.481 3   3267232.015 1
  20803610.154     -589395.376 4   -459266.487 3
 91  8 10  1  5 30.0010000  0  4 21 23 03 17
  25376015.358      -88650.985 2    -69079.026 1
  21548100.956   -13424974.687 4 -10460998.737 2
  21332563.370     4228448.268 3   3294894.185 2
  20806706.416     -573120.120 4   -446584.475 3
 91  8 10  1  5 45.0010000  0  4 21 23 03 17
  25367591.475     -132936.081 2   -103586.736 1
  21544292.690   -13445002.238 4 -10476604.598 2
  21339336.882     4264069.428 3   3322650.916 2
  20809818.854     -556770.058 4   -433844.162 3
 91  8 10  1  6  0.0010000  0  4 21 23 03 17
  25359162.514     -177194.951 2   -138074.069 1
  21540499.414   -13464920.859 4 -10492125.573 2
  21346142.170     4299814.418 3   3350504.151 1
  20812946.300     -540342.990 4   -421043.847 3
 91  8 10  1  6 15.0010000  0  4 21 23 03 17
  25350747.635     -221425.829 2   -172539.900 1
  21536734.024   -13484728.801 4 -10507560.307 2
  21352967.840     4335684.614 3   3378454.928 2
  20816084.529     -523837.341 4   -408182.301 3
 91  8 10  1  6 30.0010000  0  4 21 23 03 17
  25342340.556     -265629.253 1   -206984.354 1
  21532983.920   -13504426.550 4 -10522909.178 2
  21359816.614     4371679.234 3   3406502.673 1
  20819242.233     -507253.807 4   -395260.064 3
 91  8 10  1  6 45.0010000  0  3 23 03 17
  21529256.012   -13524010.840 4 -10538169.634 2
  21366692.942     4407801.697 4   3434650.034 1
  20822410.443     -490589.286 4   -382274.719 3
 91  8 10  1  7  0.0010000  0  3 23 03 17
  21525550.267   -13543484.636 4 -10553343.998 2
  21373588.780     4444048.919 3   3462894.623 1
  20825599.330     -473846.589 4   -369228.453 3
 91  8 10  1  7 15.0010000  0  3 23 03 17
  21521864.030   -13562851.524 4 -10568435.046 2
  21380508.280     4480417.316 3   3491233.611 1
  20828801.428     -457029.563 4   -356124.286 3
 91  8 10  1  7 30.0010000  0  3 23 03 17
  21518202.957   -13582108.619 4 -10583440.552 2
  21387455.665     4516909.375 3   3519668.973 2
  20832012.791     -440135.598 4   -342960.155 3
 91  8 10  1  7 45.0010000  0  3 23 03 17
  21514556.874   -13601252.134 4 -10598357.550 2
  21394423.746     4553528.910 3   3548203.668 1
  20835243.054     -423160.888 4   -329733.102 3
 91  8 10  1  8  0.0010000  0  3 23 03 17
  21510934.488   -13620281.521 4 -10613185.616 2
  21401416.101     4590276.368 3   3576838.049 1
  20838487.415     -406105.164 4   -316442.926 3
 91  8 10  1  8 15.0010000  0  3 23 03 17
  21507335.485   -13639199.914 4 -10627927.203 2
  21408431.856     4627148.305 3   3605569.433 1
  20841750.065     -388971.837 4   -303092.274 3
 91  8 10  1  8 30.0010000  0  4 21 23 03 17
  25275240.421      284653.62412    221807.287 1
  21503756.567   -13658006.971 4 -10642582.019 2
  21415473.072     4664145.068 3   3634398.051 2
  20845024.389     -371760.491 4   -289680.834 3
 91  8 10  1  8 45.0010000  0  4 21 23 03 17
  25266880.998      240716.472 2    187570.660 1
  21500199.218   -13676698.969 4 -10657147.188 2
  21422537.094     4701270.170 3   3663326.678 1
  20848313.406     -354467.762 4   -276205.971 3
 91  8 10  1  9  0.0010000  0  4 21 23 03 17
  25258520.093      196807.660 2    153356.113 1
  21496664.677   -13695281.110 4 -10671626.759 2
  21429624.779     4738518.396 3   3692351.271 1
  20851619.228     -337098.762 4   -262671.689 3
 91  8 10  1  9 15.0010000  0  4 21 23 03 17
  25250169.379      152926.669 2    119163.223 1
  21493148.406   -13713753.644 4 -10686020.910 2
  21436734.958     4775889.327 3   3721471.462 1
  20854940.022     -319653.780 4   -249078.199 3
 91  8 10  1  9 30.0010000  0  4 21 23 03 17
  25241821.648      109077.120 2     84994.935 1
  21489655.814   -13732113.109 4 -10700326.959 2
  21443873.022     4813386.034 3   3750689.662 1
  20858275.212     -302129.653 4   -235423.037 3
 91  8 10  1  9 45.0010000  0  4 21 23 03 17
  25233483.515       65256.463 2     50849.093 1
  21486186.624   -13750362.279 4 -10714547.078 2
  21451032.061     4851005.913 3   3780003.853 1
  20861623.891     -284529.238 4   -221708.424 3
 91  8 10  1 10  0.0010000  0  4 21 23 03 17
  25225157.388       21467.433 2     16727.912 1
  21482731.516   -13768498.429 4 -10728679.111 2
  21458212.389     4888751.524 3   3809416.017 1
  20864989.061     -266850.054 4   -207932.437 3
 91  8 10  1 10 15.0010000  0  4 21 23 03 17
  25216835.746      -22292.898 2    -17370.914 1
  21479301.291   -13786524.660 4 -10742725.511 2
  21465420.603     4926619.712 3   3838923.671 1
  20868367.737     -249095.173 4   -194097.465 3
 91  8 10  1 10 30.0010000  0  4 21 23 03 17
  25208518.309      -66025.083 2    -51447.826 1
  21475889.652   -13804441.606 4 -10756686.749 2
  21472647.995     4964609.590 3   3868526.160 1
  20871759.885     -231265.262 4   -180204.025 3
 91  8 10  1 10 45.0010000  0  4 21 23 03 17
  25200202.059     -109723.031 2    -85498.083 1
  21472504.397   -13822243.326 4 -10770558.187 2
  21479901.771     5002726.975 3   3898228.019 1
  20875169.413     -213354.958 4   -166247.931 3
 91  8 10  1 11  0.0010000  0  4 21 23 03 17
  25191884.325     -153391.846 2   -119525.591 1
  21469138.616   -13839934.768 4 -10784343.701 2
  21487179.541     5040966.587 3   3928025.101 1
  20878591.558     -195369.166 4   -152233.037 3
 91  8 10  1 11 15.0010000  0  4 21 23 03 17
  25183576.765     -197028.812 2   -153528.265 1
  21465791.438   -13857513.653 4 -10798041.514 2
  21494477.990     5079330.700 3   3957919.210 1
  20882025.970     -177305.596 4   -138157.521 3
 91  8 10  1 11 30.0010000  0  4 21 23 03 17
  25175281.507     -240634.869 2   -187506.942 1
  21462467.049   -13874980.844 4 -10811652.289 2
  21501804.604     5117818.373 3   3987909.614 1
  20885478.391     -159165.470 4   -124022.357 3
 91  8 10  1 11 45.0010000  0  4 21 23 03 17
  25166984.452     -284207.420 2   -221459.397 1
  21459164.525   -13892333.929 4 -10825174.155 2
  21509153.117     5156431.951 3   4017998.080 1
  20888945.191     -140946.322 4   -109825.620 3
 91  8 10  1 12  0.0010000  0  4 21 23 03 17
  25158695.494     -327744.131 2   -255384.014 1
  21455885.996   -13909570.532 4 -10838605.243 2
  21516521.123     5195173.579 3   4048186.355 2
  20892430.279     -122646.068 4    -95565.678 3
 91  8 10  1 12 15.0010000  0  4 21 23 03 17
  25150422.433     -371251.251 2   -289285.523 1
  21452626.051   -13926697.084 4 -10851950.592 2
  21523917.903     5234036.925 3   4078469.477 1
  20895929.449     -104271.134 4    -81247.545 3
 91  8 10  1 12 30.0010000  0  4 21 23 03 17
  25142158.045     -414722.920 2   -323159.468 1
  21449388.006   -13943707.853 4 -10865205.720 2
  21531339.568     5273027.441 3   4108851.674 2
  20899441.218      -85815.742 4    -66866.720 3
 91  8 10  1 12 45.0010000  0  4 21 23 03 17
  25133894.268     -458164.009 2   -357009.561 1
  21446172.419   -13960607.678 4 -10878374.387 2
  21538780.114     5312140.073 3   4139329.036 1
  20902967.383      -67284.901 4    -52427.104 3
 91  8 10  1 13  0.0010000  0  4 21 23 03 17
  25125620.596     -501570.480 2   -390832.655 1
  21442979.937   -13977392.751 4 -10891453.650 2
  21546249.139     5351378.586 3   4169904.481 2
  20906505.520      -48675.063 4    -37925.928 3
 91  8 10  1 13 15.0010000  0  4 21 23 03 17
  25117366.102     -544946.035 2   -424631.715 1
  21439805.428   -13994067.025 4 -10904446.564 2
  21553738.860     5390738.962 3   4200574.899 1
  20910061.961      -29990.184 4    -23366.273 3
 91  8 10  1 13 30.0010000  0  4 21 23 03 17
  25109122.724     -588287.123 1   -458403.896 1
  21436654.914   -14010626.931 4 -10917350.380 2
  21561251.964     5430224.592 3   4231342.908 1
  20913632.485      -11226.788 4     -8745.437 3
 91  8 10  1 13 45.0010000  0  4 21 23 03 17
  25100877.531     -631593.267 1   -492148.871 1
  21433522.983   -14027072.090 4 -10930164.760 2
  21568789.341     5469835.670 3   4262208.679 1
  20917217.109        7615.266 4      5936.684 3
 91  8 10  1 14  0.0010000  0  3 23 03 17
  21430414.733   -14043403.134 4 -10942890.220 2
  21576350.398     5509571.614 3   4293171.733 1
  20920820.021       26535.447 4     20679.690 3
 91  8 10  1 14 15.0010000  0  3 23 03 17
  21427332.868   -14059617.984 4 -10955525.158 2
  21583936.060     5549434.115 3   4324233.409 1
  20924430.715       45535.290 4     35484.772 3
 91  8 10  1 14 30.0010000  0  3 23 03 17
  21424268.383   -14075720.556 4 -10968072.597 2
  21591545.681     5589419.282 3   4355390.666 1
  20928061.198       64611.101 4     50349.048 3
 91  8 10  1 14 45.0010000  0  4 21 23 03 17
  25067998.389      276290.02612    215292.803 1
  21421227.002   -14091707.895 4 -10980530.240 2
  21599174.794     5629530.044 3   4386645.783 1
  20931709.672       83765.679 4     65274.696 3
 91  8 10  1 15  0.0010000  0  4 21 23 03 17
  25059781.378      233158.627 2    181683.935 1
  21418205.688   -14107581.048 4 -10992898.912 2
  21606835.998     5669764.982 3   4417997.669 1
  20935368.040      102997.706 4     80260.698 3
 91  8 10  1 15 15.0010000  0  4 21 23 03 17
  25051573.354      190065.567 2    148104.924 1
  21415206.868   -14123336.632 4 -11005175.960 2
  21614515.787     5710127.204 3   4449448.742 1
  20939044.103      122310.609 4     95309.751 3
 91  8 10  1 15 30.0010000  0  4 21 23 03 17
  25043383.321      147003.038 2    114549.500 1
  21412231.118   -14138982.660 4 -11017367.664 2
  21622218.941     5750609.055 3   4480993.027 1
  20942730.043      141696.504 4    110415.621 3
 91  8 10  1 15 45.0010000  0  4 21 23 03 17
  25035195.696      103976.356 2     81022.182 1
  21409276.970   -14154513.854 4 -11029469.869 2
  21629949.702     5791215.196 3   4512634.143 1
  20946436.382      161160.051 4    125582.028 3
 91  8 10  1 16  0.0010000  0  4 21 23 03 17
  25027021.857       60986.524 2     47523.720 1
  21406339.593   -14169929.483 4 -11041482.018 2
  21637699.029     5831946.423 3   4544372.751 1
  20950156.803      180701.845 4    140809.410 3
 91  8 10  1 16 15.0010000  0  4 21 23 03 17
  25018838.124       18031.966 2     14052.678 1
  21403427.710   -14185231.130 4 -11053405.361 2
  21645471.758     5872801.084 3   4576207.556 1
  20953885.618      200320.542 4    156096.712 3
 91  8 10  1 16 30.0010000  0  4 21 23 03 17
  25010677.460      -24889.085 2    -19392.356 1
  21400538.320   -14200420.606 4 -11065241.307 2
  21653267.555     5913776.992 3   4608136.808 1
  20957633.925      220014.079 4    171442.324 3
 91  8 10  1 16 45.0010000  0  4 21 23 03 17
  25002509.327      -67775.729 2    -52810.388 1
  21397668.702   -14215497.146 4 -11076989.232 2
  21661090.331     5954875.041 3   4640161.245 1
  20961399.019      239783.164 4    186846.817 3
 91  8 10  1 17  0.0010000  0  4 21 23 03 17
  24994359.761     -110624.358 2    -86198.744 1
  21394824.875   -14230457.451 4 -11088646.597 2
  21668935.006     5996098.338 3   4672283.280 1
  20965175.211      259631.127 4    202312.766 3
 91  8 10  1 17 15.0010000  0  4 21 23 03 17
  24986210.806     -153434.466 2   -119557.204 1
  21391995.723   -14245300.949 4 -11100212.935 2
  21676804.269     6037447.398 3   4704503.308 1
  20968966.393      279558.339 4    217840.468 3
 91  8 10  1 17 30.0010000  0  4 21 23 03 17
  24978074.136     -196207.298 2   -152886.622 1
  21389197.162   -14260028.968 4 -11111689.295 2
  21684696.601     6078920.584 3   4736820.072 1
  20972773.751      299563.257 4    233428.716 3
 91  8 10  1 17 45.0010000  0  4 21 23 03 17
  24969944.062     -238942.841 2   -186186.947 1
  21386413.590   -14274641.588 4 -11123075.730 2
  21692612.317     6120517.729 3   4769233.413 1
  20976591.615      319645.586 4    249077.294 3
 91  8 10  1 18  0.0010000  0  4 21 23 03 17
  24961819.991     -281642.258 2   -219459.156 1
  21383654.903   -14289140.062 4 -11134373.222 2
  21700552.026     6162237.291 3   4801742.146 1
  20980430.453      339804.042 4    264785.184 3
 91  8 10  1 18 15.0010000  0  4 21 23 03 17
  24953692.326     -324303.777 2   -252701.738 1
  21380918.395   -14303522.976 4 -11145580.671 2
  21708513.304     6204080.869 3   4834347.535 1
  20984280.390      360040.126 4    280553.564 3
 91  8 10  1 18 30.0010000  0  4 21 23 03 17
  24945582.930     -366932.151 2   -285918.705 1
  21378205.270   -14317795.288 4 -11156701.925 2
  21716499.780     6246043.357 3   4867045.566 1
  20988144.706      380348.706 4    296378.431 3
 91  8 10  1 18 45.0010000  0  4 21 23 03 17
  24937485.837     -409522.979 2   -319106.220 1
  21375509.246   -14331952.470 4 -11167733.484 2
  21724507.842     6288129.094 3   4899839.625 1
  20992025.215      400734.229 4    312263.264 3
 91  8 10  1 19  0.0010000  0  4 21 23 03 17
  24929384.853     -452076.711 2   -352264.879 1
  21372837.199   -14345995.189 4 -11178675.845 2
  21732538.083     6330337.112 3   4932728.982 1
  20995917.731      421195.933 4    328207.446 3
 91  8 10  1 19 15.0010000  0  4 21 23 03 17
  24921291.651     -494592.452 2   -385394.011 1
  21370183.736   -14359922.574 4 -11189528.328 2
  21740595.006     6372668.218 3   4965714.241 1
  20999829.721      441734.259 4    344211.329 3
 91  8 10  1 19 30.0010000  0  4 21 23 03 17
  24913216.144     -537074.559 2   -418496.809 1
  21367556.048   -14373739.319 4 -11200294.604 2
  21748672.904     6415117.859 3   4998791.859 1
  21003749.807      462345.009 4    360271.659 3
 91  8 10  1 19 45.0010000  0  4 21 23 03 17
  24905129.539     -579519.877 2   -451571.012 1
  21364949.055   -14387442.275 4 -11210972.215 2
  21756773.591     6457688.605 3   5031963.864 1
  21007686.384      483031.006 4    376390.623 3
 91  8 10  1 20  0.0010000  0  4 21 23 03 17
  24897057.330     -621929.874 2   -484617.679 1
  21362363.351   -14401032.905 4 -11221562.307 2
  21764898.570     6500379.045 3   5065229.142 1
  21011634.950      503790.283 4    392566.681 3
 91  8 10  1 20 15.0010000  0  4 21 23 03 17
  24889009.097     -664296.505 2   -517630.533
  21359798.623   -14414503.268 4 -11232058.660 2
  21773043.040     6543196.938 3   5098593.723 1
  21015602.397      524631.176 4    408806.333 3
 91  8 10  1 20 30.0010000  0  4 21 23 03 17
  24880938.982     -706625.052 2   -550613.763 1
  21357258.779   -14427858.970 4 -11242465.678 2
  21781214.471     6586136.683 3   5132053.235 1
  21019583.053      545547.832 4    425105.033 3
 91  8 10  1 20 45.0010000  0  4 21 23 03 17
  24872901.255     -748914.710 2   -583566.635 1
  21354739.316   -14441099.262 4 -11252782.779 2
  21789410.507     6629198.807 3   5165608.121 1
  21023576.274      566540.909 4    441463.268 3
 91  8 10  1 21  0.0010000  0  4 21 23 03 17
  24864852.726     -791168.558 2   -616491.632 1
  21352241.754   -14454227.286 4 -11263012.387 2
  21797627.518     6672380.013 3   5199255.782 1
  21027588.096      587607.283 4    457878.623 3
 91  8 10  1 21 15.0010000  0  4 21 23 03 17
  24856824.282     -833384.870 2   -649387.336 1
  21349763.963   -14467241.502 4 -11273153.312 2
  21805870.006     6715681.757 3   5232997.410 1
  21031610.424      608748.387 4    474352.212 3
 91  8 10  1 21 30.0010000  0  4 21 23 03 17
  24848793.430     -875562.739 2   -682253.147 1
  21347306.867   -14480141.084 4 -11283204.911 2
  21814129.892     6759104.761 3   5266833.494 1
  21035644.722      629964.941 4    490884.590 3
 91  8 10  1 21 45.0010000  0  4 21 23 03 17
  24840774.287     -917703.988 2   -715090.354 1
  21344874.656   -14492928.067 4 -11293168.768 2
  21822416.459     6802646.786 3   5300762.331 1
  21039697.919      651254.824 4    507474.113 3
 91  8 10  1 22  0.0010000  0  4 21 23 03 17
  24832765.336     -959810.114 2   -747900.321 1
  21342464.624   -14505603.982 4 -11303046.093 2
  21830726.707     6846306.091 3   5334782.564 1
  21043764.012      672616.357 4    524119.457 3
 91  8 10  1 22 15.0020000  0  4 21 23 03 17
  24824752.181    -1001880.354 2   -780682.183 1
  21340071.679   -14518166.121 4 -11312834.753 2
  21839054.931     6890089.030 3   5368899.101 1
  21047843.876      694054.292 4    540824.335 3
 91  8 10  1 22 30.0020000  0  4 21 23 03 17
  24816761.517    -1043905.803 2   -813429.203 1
  21337705.115   -14530609.708 4 -11322531.021 2
  21847409.554     6933992.722 3   5403109.770 1
  21051932.758      715568.892 4    557588.967 3
 91  8 10  1 22 45.0020000  0  4 21 23 03 17
  24808775.634    -1085891.910 2   -846145.822 1
  21335357.136   -14542938.495 4 -11332137.862 2
  21855789.655     6978017.001 3   5437414.382 1
  21056045.304      737158.608 4    574412.119 3
 91  8 10  1 23  0.0020000  0  4 21 23 03 17
  24800789.769    -1127838.095 2   -878831.372 1
  21333037.042   -14555151.960 4 -11341654.825 2
  21864178.149     7022162.367 3   5471813.341 1
  21060165.056      758823.877 4    591294.137 3
 91  8 10  1 23 15.0020000  0  4 21 23 03 17
  24792818.283    -1169741.786 2   -911483.508 1
  21330733.142   -14567247.651 4 -11351080.020 2
  21872614.911     7066430.972 3   5506308.354 1
  21064305.486      780567.127 4    608236.933 2
 91  8 10  1 23 30.0020000  0  4 21 23 03 17
  24784850.112    -1211606.579 2   -944105.623
  21328451.422   -14579229.448 4 -11360416.472 2
  21881063.050     7110818.971 3   5540896.388 1
  21068457.015      802384.412 4    625237.417 3
 91  8 10  1 23 45.0020000  0  4 21 23 03 17
  24776888.817    -1253430.410 2   -976695.677 1
  21326194.882   -14591095.327 4 -11369662.586 2
  21889526.493     7155328.182 3   5575578.882 1
  21072623.534      824277.449 4    642296.933 3
 91  8 10  1 24  0.0020000  0  4 21 23 03 17
  24768937.730    -1295214.178 2  -1009254.440 1
  21323960.835   -14602846.500 4 -11378819.337 2
  21898024.714     7199957.315 3   5610354.794 1
  21076802.931      846245.250 4    659414.694 3
 91  8 10  1 24 15.0020000  0  4 21 23 03 17
  24760989.330    -1336958.914 2  -1041783.040 1
  21321742.371   -14614483.922 4 -11387887.441 2
  21906538.221     7244705.240 3   5645223.287 1
  21080997.021      868286.431 4    676589.639 2
 91  8 10  1 24 30.0020000  0  4 21 23 03 17
  24753060.108    -1378663.260 2  -1074279.998 1
  21319549.978   -14626006.428 4 -11396865.996 2
  21915070.907     7289572.994 3   5680185.185 1
  21085206.711      890402.326 4    693822.817 3
 91  8 10  1 24 45.0020000  0  4 21 23 03 17
  24745131.200    -1420327.695 2  -1106745.737 1
  21317380.689   -14637414.718 4 -11405755.552 2
  21923635.386     7334559.863 3   5715239.854 1
  21089427.797      912592.488 4    711113.849 3
 91  8 10  1 25  0.0020000  0  4 21 23 03 17
  24737207.091    -1461954.263 2  -1139181.902 1
  21315232.672   -14648710.755 4 -11414557.639 2
  21932219.637     7379663.600 3   5750385.639 1
  21093665.652      934854.447 4    728460.831 3
 91  8 10  1 25 15.0020000  0  4 21 23 03 17
  24729296.157    -1503537.175 2  -1171584.139 1
  21313104.740   -14659888.871 4 -11423267.850 2
  21940822.786     7424889.686 3   5785626.709 1
  21097915.810      957193.834 4    745868.152 2
 91  8 10  1 25 30.0020000  0  4 21 23 03 17
  24721393.338    -1545078.532 2  -1203953.980 1
  21310999.302   -14670951.294 4 -11431887.900 2
  21949455.915     7470235.632 3   5820961.181 1
  21102183.958      979608.255 4    763333.936 3
 91  8 10  1 25 45.0020000  0  4 21 23 03 17
  24713494.409    -1586582.852 2  -1236294.857 1
  21308913.948   -14681903.021 4 -11440421.684 2
  21958104.627     7515696.633 3   5856385.319 1
  21106459.907     1002092.960 4    780854.484 3
 91  8 10  1 26  0.0020000  0  4 21 23 03 17
  24705597.872    -1628045.096 2  -1268602.963 1
  21306853.165   -14692738.924 4 -11448865.225 2
  21966779.723     7561277.549 3   5891902.910 1
  21110752.033     1024652.600 4    798433.430 3
 91  8 10  1 26 15.0020000  0  4 21 23 03 17
  24697722.030    -1669465.095 2  -1300878.269 1
  21304810.390   -14703458.986 4 -11457218.513 2
  21975477.296     7606978.032 3   5927513.671 1
  21115062.149     1047287.083 4    816070.692 2
 91  8 10  1 26 30.0020000  0  4 21 23 03 17
  24689847.968    -1710845.114 2  -1333122.312 1
  21302791.888   -14714065.507 4 -11465483.312 2
  21984195.250     7652795.808 3   5963215.802 1
  21119382.457     1069994.542 4    833764.819 3
 91  8 10  1 26 45.0020000  0  4 21 23 03 17
  24681982.614    -1752181.057 2  -1365332.056 1
  21300798.568   -14724554.536 4 -11473656.565 3
  21992934.214     7698734.581 3   5999012.257 1
  21123717.161     1092778.654 4    851518.672 3
 91  8 10  1 27  0.0020000  0  4 21 23 03 17
  24674123.560    -1793477.674 2  -1397511.060 1
  21298825.925   -14734931.073 4 -11481742.152 2
  22001703.734     7744789.407 3   6034899.122 1
  21128067.744     1115634.146 4    869328.151 3
 91  8 10  1 27 15.0020000  0  4 21 23 03 17
  24666265.098    -1834731.600 2  -1429656.865 1
  21296872.478   -14745191.997 4 -11489737.676 2
  22010488.558     7790963.305 3   6070878.751 1
  21132428.519     1138564.408 4    887195.896 3
 91  8 10  1 27 30.0020000  0  4 21 23 03 17
  24658421.627    -1875939.535 2  -1461766.907 1
  21294938.523   -14755334.108 4 -11497640.608 2
  22019295.857     7837259.380 3   6106953.557 1
  21136807.895     1161572.623 4    905124.368 3
 91  8 10  1 27 45.0020000  0  4 21 23 03 17
  24650584.455    -1917107.432 2  -1493845.659 1
  21293034.547   -14765363.440 4 -11505455.657 2
  22028131.635     7883671.289 3   6143118.701 1
  21141199.853     1184652.455 4    923108.652 2
 91  8 10  1 28  0.0020000  0  4 21 23 03 17
  24642772.760    -1958236.279 2  -1525894.013 1
  21291143.449   -14775281.115 4 -11513183.690 2
  22036982.106     7930197.569 3   6179372.924 1
  21145608.005     1207802.689 4    941147.798 3
 91  8 10  1 28 15.0020000  0  4 21 23 03 17
  24634947.576    -1999326.621 2  -1557912.360 1
  21289280.534   -14785087.794 4 -11520825.242 2
  22045856.275     7976837.542 3   6215715.747 1
  21150023.940     1231022.632 4    959241.268 2
 91  8 10  1 28 30.0020000  0  4 21 23 03 17
  24627135.585    -2040371.443 2  -1589895.275 1
  21287435.016   -14794776.676 4 -11528375.008 2
  22054758.015     8023598.100 3   6252152.538 1
  21154457.866     1254319.035 4    977394.301 3
 91  8 10  1 28 45.0020000  0  4 21 23 03 17
  24619328.689    -2081374.525 2  -1621845.638 1
  21285612.271   -14804351.886 4 -11535836.192 2
  22063678.025     8070474.936 3   6288679.914 1
  21158903.204     1277687.972 4    995603.860 2
 91  8 10  1 29  0.0020000  0  4 21 23 03 17
  24611544.880    -2122331.465 2  -1653760.008 1
  21283809.926   -14813808.953 4 -11543205.311 2
  22072614.247     8117472.299 3   6325301.245 1
  21163363.514     1301133.557 4   1013873.162 3
 91  8 10  1 29 15.0020000  0  4 21 23 03 17
  24603756.865    -2163241.903 2  -1685638.232 1
  21282037.245   -14823147.623 4 -11550482.189 2
  22081588.842     8164590.287 3   6362016.503 1
  21167840.612     1324656.064 4   1032202.381 3
 91  8 10  1 29 30.0020000  0  4 21 23 03 17
  24595974.853    -2204109.191 2  -1717482.770 1
  21280281.369   -14832371.471 4 -11557669.589 2
  22090575.407     8211825.135 3   6398822.866 1
  21172332.403     1348251.797 4   1050588.662 3
 91  8 10  1 29 45.0020000  0  4 21 23 03 17
  24588207.535    -2244935.260 2  -1749295.236 1
  21278547.062   -14841482.454 4 -11564769.042 2
  22099585.077     8259174.807 3   6435718.685 1
  21176837.683     1371918.901 4   1069030.560 2
 91  8 10  1 30  0.0020000  0  4 21 23 03 17
  24580452.815    -2285715.180 2  -1781071.672 1
  21276837.045   -14850475.766 4 -11571776.799 2
  22108619.927     8306643.863 3   6472707.584 1
  21181353.450     1395661.950 4   1087531.636 2
 91  8 10  1 30 15.0020000  0  4 21 23 03 17
  24572694.483    -2326451.650 2  -1812814.337 1
  21275143.816   -14859354.209 4 -11578695.044 2
  22117673.658     8354229.349 3   6509787.147 1
  21185885.725     1419477.831 4   1106089.456 2
 91  8 10  1 30 30.0020000  0  4 21 23 03 17
  24564946.639    -2367144.490 2  -1844522.952 1
  21273479.972   -14868117.925 4 -11585523.906 3
  22126750.476     8401931.116 3   6546957.364 1
  21190432.065     1443366.857 4   1124704.292 2
 91  8 10  1 30 45.0020000  0  4 21 23 03 17
  24557219.194    -2407793.732 2  -1876197.588 1
  21271831.415   -14876767.227 4 -11592263.603 3
  22135852.772     8449748.646 3   6584217.769 1
  21194989.521     1467328.524 4   1143375.723 2
 91  8 10  1 31  0.0020000  0  4 21 23 03 17
  24549486.636    -2448401.456 2  -1907839.894 1
  21270207.149   -14885304.122 4 -11598915.718 2
  22144972.447     8497679.841 3   6621566.736 1
  21199566.138     1491360.854 4   1162102.213 3
 91  8 10  1 31 15.0020000  0  4 21 23 03 17
  24541775.385    -2488966.309 2  -1939448.834 1
  21268605.952   -14893727.424 4 -11605479.322 2
  22154112.522     8545725.647 3   6659005.004 1
  21204150.571     1515464.860 4   1180884.552 3
 91  8 10  1 31 30.0020000  0  4 21 23 03 17
  24534056.630    -2529486.044 2  -1971022.584 1
  21267023.950   -14902035.015 4 -11611952.748 2
  22163283.170     8593887.947 3   6696534.046 1
  21208752.089     1539642.645 4   1199724.380 3
 91  8 10  1 31 45.0020000  0  4 21 23 03 17
  24526360.351    -2569959.662 2  -2002560.472 1
  21265465.018   -14910226.183 4 -11618335.466 2
  22172466.417     8642167.510 3   6734154.458 1
  21213368.893     1563895.057 4   1218622.361 3
 91  8 10  1 32  0.0020000  0  4 21 23 03 17
  24518664.386    -2610391.740 2  -2034065.881 1
  21263924.687   -14918305.670 4 -11624631.150 2
  22181677.253     8690559.445 3   6771862.446 2
  21217998.279     1588216.988 4   1237574.510 2
 91  8 10  1 32 15.0020000  0  4 21 23 03 17
  24510980.706    -2650778.339 2  -2065535.834 1
  21262411.945   -14926269.596 4 -11630836.800 2
  22190907.249     8739067.289 3   6809660.742 1
  21222636.966     1612612.207 4   1256583.774 3
 91  8 10  1 32 30.0020000  0  4 21 23 03 17
  24503306.920    -2691114.953 2  -2096966.984 1
  21260916.880   -14934113.826 4 -11636949.173 2
  22200159.145     8787695.368 3   6847552.724 1
  21227295.144     1637085.041 4   1275653.518 2
 91  8 10  1 32 45.0020000  0  4 21 23 03 17
  24495641.825    -2731408.018 2  -2128364.070 1
  21259449.997   -14941844.762 4 -11642973.262 3
  22209433.238     8836436.941 3   6885533.145 1
  21231965.922     1661629.054 4   1294778.721 3
 91  8 10  1 33  0.0020000  0  4 21 23 03 17
  24487982.122    -2771652.964 2  -2159723.665 1
  21258001.699   -14949458.053 4 -11648905.695 3
  22218731.900     8885296.220 3   6923605.305 1
  21236648.967     1686248.564 4   1313962.758 3
 91  8 10  1 33 15.0020000  0  4 21 23 03 17
  24480324.530    -2811853.562 2  -2191048.811 1
  21256574.987   -14956957.423 4 -11654749.342 3
  22228048.851     8934269.273 3   6961766.103 1
  21241349.724     1710939.486 4   1333202.438 2
 91  8 10  1 33 30.0020000  0  4 21 23 03 17
  24472685.819    -2852004.715 2  -2222335.339 1
  21255169.546   -14964337.968 4 -11660500.390 2
  22237387.073     8983360.910 3   7000019.301 1
  21246060.951     1735706.955 4   1352501.757 2
 91  8 10  1 33 45.0020000  0  4 21 23 03 17
  24465059.987    -2892109.857 2  -2253586.032 1
  21253785.116   -14971603.364 4 -11666161.733 2
  22246754.995     9032567.208 3   7038361.855 1
  21250790.187     1760547.292 4   1371857.871 2
 91  8 10  1 34  0.0020000  0  4 21 23 03 17
  24457432.078    -2932171.592 2  -2284802.887 1
  21252427.646   -14978756.544 4 -11671735.625 2
  22256141.799     9081885.330 3   7076791.525 1
  21255530.504     1785457.496 4   1391268.413 3
 91  8 10  1 34 15.0020000  0  4 21 23 03 17
  24449819.735    -2972186.392 2  -2315983.181 1
  21251085.480   -14985794.047 4 -11677219.385 2
  22265548.374     9131318.586 3   7115310.921 1
  21260283.420     1810441.068 4   1410736.131 2
 91  8 10  1 34 30.0020000  0  4 21 23 03 17
  24442217.896    -3012153.572 2  -2347126.339 1
  21249768.198   -14992715.285 4 -11682612.544 2
  22274979.257     9180867.253 3   7153920.282 1
  21265053.105     1835498.368 4   1430261.308 2
 91  8 10  1 34 45.0020000  0  4 21 23 03 17
  24434609.479    -3052076.725 2  -2378235.204 1
  21248472.781   -14999524.135 4 -11687918.125 2
  22284427.206     9230527.299 3   7192616.368 1
  21269833.296     1860625.438 4   1449840.843 3
 91  8 10  1 35  0.0020000  0  4 21 23 03 17
  24427026.522    -3091957.480 2  -2409311.102 1
  21247197.467   -15006222.166 4 -11693137.357 3
  22293895.555     9280296.886 3   7231397.883 1
  21274625.178     1885820.669 4   1469473.490 3
 91  8 10  1 35 15.0020000  0  4 21 23 03 17
  24419444.769    -3131794.410 2  -2440352.811 1
  21245942.238   -15012808.068 4 -11698269.213 2
  22303392.382     9330177.338 3   7270265.745 1
  21279434.755     1911085.472 4   1489160.343 3
 91  8 10  1 35 30.0020000  0  4 21 23 03 17
  24411876.208    -3171584.173 2  -2471357.723 1
  21244711.596   -15019278.868 4 -11703311.389 2
  22312905.996     9380171.592 3   7309222.280 1
  21284258.117     1936422.717 4   1508903.661 2
 91  8 10  1 35 45.0020000  0  4 21 23 03 17
  24404307.054    -3211327.971 2  -2502326.791 1
  21243504.023   -15025635.910 4 -11708264.915 2
  22322436.991     9430278.022 3   7348266.212 1
  21289093.171     1961831.140 4   1528702.430 2
 91  8 10  1 36  0.0020000  0  4 21 23 03 17
  24396754.984    -3251025.215 2  -2533259.634 1
  21242315.349   -15031878.846 4 -11713129.518 3
  22331997.686     9480496.989 3   7387397.879 1
  21293942.604     1987310.933 4   1548556.810 3
 91  8 10  1 36 15.0020000  0  4 21 23 03 17
  24389211.900    -3290680.106 2  -2564159.544 1
  21241148.558   -15038011.957 4 -11717908.559 2
  22341575.448     9530823.913 3   7426613.595 1
  21298802.245     2012857.978 4   1568463.607 2
 91  8 10  1 36 30.0020000  0  4 21 23 03 17
  24381670.928    -3330287.555 2  -2595022.375 1
  21240004.243   -15044030.364 4 -11722598.211 2
  22351168.513     9581263.528 3   7465917.236 1
  21303678.970     2038476.980 4   1588426.468 3
 91  8 10  1 36 45.0020000  0  4 21 23 03 17
  24374143.131    -3369849.059 2  -2625849.390 1
  21238881.827   -15049935.759 4 -11727199.804 2
  22360790.947     9631813.916 3   7505307.126 1
  21308568.591     2064166.140 4   1608443.992 3
 91  8 10  1 37  0.0020000  0  4 21 23 03 17
  24366622.244    -3409365.549 2  -2656641.442 1
  21237774.698   -15055729.161 4 -11731714.121 2
  22370431.372     9682474.071 3   7544782.572 1
  21313468.699     2089924.672 4   1628515.569 2
 91  8 10  1 37 15.0020000  0  4 21 23 03 17
  24359113.328    -3448836.446 2  -2687397.878 1
  21236696.344   -15061410.037 4 -11736140.761 2
  22380090.992     9733244.232 3   7584343.689 1
  21318381.983     2115752.988 4   1648641.543 2
 91  8 10  1 37 30.0020000  0  4 21 23 03 17
  24351611.933    -3488259.170 2  -2718116.827 1
  21235635.371   -15066975.982 4 -11740477.861 2
  22389770.087     9784126.712 3   7623992.338 1
  21323310.273     2141653.119 4   1668823.467 2
 91  8 10  1 37 45.0020000  0  4 21 23 03 17
  24344117.710    -3527633.992 2  -2748798.427 1
  21234596.891   -15072427.794 4 -11744726.010 2
  22399479.161     9835120.731 3   7663727.965 1
  21328253.554     2167624.635 4   1689061.007 2
 91  8 10  1 38  0.0020000  0  4 21 23 03 17
  24336639.402    -3566961.053 2  -2779442.850 1
  21233583.295   -15077765.535 4 -11748885.263 2
  22409202.929     9886226.049 3   7703550.221 1
  21333208.822     2193667.319 4   1709354.007 2
 91  8 10  1 38 15.0020000  0  4 21 23 03 17
  24329154.166    -3606242.902 2  -2810051.983 1
  21232587.970   -15082992.010 4 -11752957.834 2
  22418948.596     9937439.652 3   7743456.925 1
  21338179.098     2219778.508 4   1729700.405 2
 91  8 10  1 38 30.0020000  0  4 21 23 03 17
  24321690.848    -3645475.129 2  -2840622.445 1
  21231613.375   -15088102.821 4 -11756940.264 2
  22428716.111     9988765.512 3   7783451.102 1
  21343159.530     2245962.216 4   1750103.296 3
 91  8 10  1 38 45.0020000  0  4 21 23 03 17
  24314232.590    -3684658.738 2  -2871155.135 1
  21230665.410   -15093099.286 4 -11760833.604 2
  22438503.136    10040202.424 3   7823531.769 1
  21348158.563     2272217.298 4   1770561.790 2
 91  8 10  1 39  0.0020000  0  4 21 23 03 17
  24306790.875    -3723794.602 2  -2901650.490 1
  21229735.453   -15097982.369 4 -11764638.587 2
  22448314.172    10091749.333 3   7863698.160 1
  21353168.102     2298542.590 4   1791075.012 2
 91  8 10  1 39 15.0020000  0  4 21 23 03 17
  24299353.592    -3762884.131 2  -2932109.826 1
  21228826.785   -15102753.536 4 -11768356.366 2
  22458141.052    10143404.451 3   7903948.894 1
  21358189.332     2324936.721 4   1811641.872 3
 91  8 10  1 39 30.0020000  0  4 21 23 03 17
  24291927.163    -3801923.958 2  -2962530.405 1
  21227946.282   -15107409.834 4 -11771984.638 2
  22467994.039    10195170.893 3   7944286.324 1
  21363225.256     2351402.956 4   1832264.909 3
 91  8 10  1 39 45.0020000  0  4 21 23 03 17
  24284501.607    -3840911.806 2  -2992910.515 1
  21227080.786   -15111949.078 4 -11775521.692 3
  22477865.906    10247050.569 3   7984712.029 1
  21368274.337     2377943.125 4   1852945.560 2
 91  8 10  1 40  0.0020000  0  4 21 23 03 17
  24277095.525    -3879848.782 2  -3023250.907 1
  21226241.081   -15116372.521 4 -11778968.519 2
  22487757.841    10299041.948 3   8025224.799 1
  21373340.239     2404555.905 4   1873682.798 2
 91  8 10  1 40 15.0020000  0  4 21 23 03 17
  24269689.443    -3918736.230 2  -3053552.763 1
  21225415.442   -15120681.634 4 -11782326.258 2
  22497676.196    10351143.473 3   8065823.356 1
  21378417.834     2431239.946 4   1894475.555 3
 91  8 10  1 40 30.0020000  0  4 21 23 03 17
  24262306.745    -3957575.784 2  -3083817.269 1
  21224616.815   -15124878.111 4 -11785596.222 3
  22507610.710    10403353.100 3   8106506.157 1
  21383510.087     2457993.513 4   1915322.488 3
 91  8 10  1 40 45.0020000  0  4 21 23 03 17
  24254920.451    -3996365.098 2  -3114042.504
  21223841.851   -15128960.072 4 -11788776.958 2
  22517564.418    10455672.708 3   8147274.673 1
  21388613.787     2484818.552 4   1936225.113 2
 91  8 10  1 41  0.0020000  0  4 21 23 03 17
  24247550.666    -4035104.396 2  -3144229.105 1
  21223086.047   -15132927.687 4 -11791868.590 2
  22527543.919    10508102.018 3   8188128.659 1
  21393733.018     2511714.930 4   1957183.338 2
 91  8 10  1 41 15.0020000  0  4 21 23 03 17
  24240186.569    -4073793.342 2  -3174376.199 1
  21222353.068   -15136780.648 4 -11794870.880 3
  22537539.578    10560641.186 3   8229068.259 1
  21398862.788     2538682.567 4   1978197.084 2
 91  8 10  1 41 30.0020000  0  4 21 23 03 17
  24232836.259    -4112429.881 2  -3204482.557 1
  21221641.378   -15140517.516 4 -11797782.710 3
  22547559.563    10613291.486 3   8270094.463 1
  21404011.126     2565723.289 4   1999267.765 3
 91  8 10  1 41 45.0020000  0  4 21 23 03 17
  24225493.730    -4151014.674 2  -3234548.541 1
  21220954.224   -15144139.007 4 -11800604.637 3
  22557598.987    10666052.199 3   8311206.669 1
  21409169.655     2592836.278 4   2020394.782 2
 91  8 10  1 42  0.0020000  0  4 21 23 03 17
  24218159.613    -4189550.598 2  -3264576.509 1
  21220289.301   -15147648.211 4 -11803339.070 2
  22567659.736    10718919.903 3   8352402.239 1
  21414341.969     2620018.250 4   2041575.535 3
 91  8 10  1 42 15.0020000  0  4 21 23 03 17
  24210835.687    -4228037.464 2  -3294566.171 1
  21219637.849   -15151044.978 4 -11805985.884 2
  22577742.646    10771894.632 3   8393681.221 1
  21419525.975     2647269.377 4   2062810.178 3
 91  8 10  1 42 30.0020000  0  4 21 23 03 17
  24203526.733    -4266471.142 2  -3324514.436 1
  21219018.192   -15154325.250 4 -11808541.918 3
  22587834.875    10824980.229 3   8435046.646 1
  21424728.862     2674593.785 4   2084101.915 3
 91  8 10  1 42 45.0020000  0  4 21 23 03 17
  24196214.813    -4304854.918 2  -3354423.782 1
  21218413.193   -15157492.661 4 -11811010.019 2
  22597965.145    10878173.023 3   8476495.523 1
  21429941.975     2701987.950 4   2105448.026 2
 91  8 10  1 43  0.0020000  0  4 21 23 03 17
  24188924.147    -4343184.797 2  -3384291.149 1
  21217833.706   -15160543.387 4 -11813387.199 2
  22608108.642    10931476.771 3   8518030.870 1
  21435165.558     2729455.507 4   2126851.313 2
 91  8 10  1 43 15.0020000  0  4 21 23 03 17
  24181639.483    -4381462.493 2  -3414117.865 1
  21217271.600   -15163479.331 4 -11815674.930 2
  22618273.394    10984889.349 3   8559651.071 1
  21440408.022     2756994.945 4   2148310.606 2
 91  8 10  1 43 30.0020000  0  4 21 23 03 17
  24174361.137    -4419694.439 2  -3443908.972 1
  21216735.250   -15166306.992 4 -11817878.288 2
  22628459.435    11038403.960 3   8601350.712 1
  21445662.178     2784599.606 4   2169820.725 2
 91  8 10  1 43 45.0020000  0  4 21 23 03 17
  24167103.766    -4457868.785 2  -3473655.095 1
  21216220.503   -15169014.702 4 -11819988.171 2
  22638663.485    11092032.178 3   8643138.895 1
  21450928.933     2812280.882 4   2191390.548 2
 91  8 10  1 44  0.0020000  0  4 21 23 03 17
  24159845.802    -4495989.037 2  -3503359.133 1
  21215726.453   -15171606.347 4 -11822007.634 2
  22648887.288    11145770.045 3   8685012.555 1
  21456209.474     2840035.027 4   2213017.156 3
 91  8 10  1 44 15.0020000  0  4 21 23 03 17
  24152605.497    -4534058.987 2  -3533023.967 1
  21215252.784   -15174085.718 4 -11823939.600 2
  22659128.821    11199613.571 3   8726968.531 1
  21461507.116     2867858.252 4   2234697.584 2
 91  8 10  1 44 30.0020000  0  4 21 23 03 17
  24145371.823    -4572075.498 2  -3562647.150 1
  21214807.908   -15176449.860 4 -11825781.767 2
  22669400.299    11253565.423 3   8769008.910 1
  21466812.540     2895753.299 4   2256433.985 2
 91  8 10  1 44 45.0020000  0  4 21 23 03 17
  24138141.396    -4610040.290 2  -3592230.022 1
  21214376.504   -15178700.699 4 -11827535.660 2
  22679682.874    11307623.789 3   8811132.322 1
  21472135.345     2923718.211 4   2278224.824 2
 91  8 10  1 45  0.0020000  0  4 21 23 03 17
  24130927.196    -4647952.562 2  -3621772.000 1
  21213968.762   -15180837.748 4 -11829200.877 2
  22689989.462    11361789.045 3   8853338.972 1
  21477473.157     2951753.867 4   2300070.785 2
 91  8 10  1 45 15.0020000  0  4 21 23 03 17
  24123724.410    -4685812.978 2  -3651273.558 1
  21213587.440   -15182861.858 4 -11830778.101 2
  22700321.212    11416060.186 3   8895628.141 1
  21482818.438     2979859.313 4   2321971.126 2
 91  8 10  1 45 30.0020000  0  4 21 23 03 17
  24116527.591    -4723616.262 2  -3680730.579 1
  21213221.090   -15184767.875 4 -11832263.283 2
  22710672.437    11470441.936 3   8938003.478 1
  21488178.726     3008039.410 4   2343929.642 2
 91  8 10  1 45 45.0020000  0  4 21 23 03 17
  24109342.149    -4761364.379 2  -3710144.634 1
  21212880.846   -15186557.734 4 -11833657.968 2
  22721039.541    11524932.143 3   8980463.390 1
  21493555.522     3036292.615 4   2365945.133 2
 91  8 10  1 46  0.0020000  0  4 21 23 03 17
  24102174.996    -4799056.415 2  -3739515.000 1
  21212560.948   -15188230.985 4 -11834961.791 2
  22731428.563    11579531.495 3   9023008.292 1
  21498946.383     3064619.324 4   2388017.886 2
 91  8 10  1 46 15.0020000  0  4 21 23 03 17
  24095016.254    -4836691.246 2  -3768840.762 1
  21212268.343   -15189786.511 4 -11836173.880 2
  22741842.435    11634240.646 3   9065638.755 1
  21504349.564     3093020.479 4   2410148.645 2
 91  8 10  1 46 30.0020000  0  4 21 23 03 17
  24087862.013    -4874271.006 2  -3798123.654 1
  21211993.746   -15191226.762 4 -11837296.140 2
  22752268.346    11689057.176 3   9108352.907 1
  21509768.310     3121493.832 4   2432335.674 2
 91  8 10  1 46 45.0020000  0  4 21 23 03 17
  24080726.654    -4911793.350 2  -3827361.799 1
  21211738.903   -15192549.497 4 -11838326.839 2
  22762722.981    11743983.166 3   9151152.377 1
  21515202.622     3150041.659 4   2454580.729 2
 91  8 10  1 47  0.0020000  0  4 21 23 03 17
  24073582.919    -4949266.313 2  -3856561.433 1
  21211509.573   -15193763.077 4 -11839272.469 2
  22773193.845    11799010.232 3   9194030.581 1
  21520646.567     3178655.287 4   2476877.062 2
 91  8 10  1 47 15.0020000  0  4 21 23 03 17
  24066471.222    -4986686.065 2  -3885719.629 1
  21211299.716   -15194863.780 4 -11840130.149 2
  22783688.964    11854141.743 3   9236990.182 1
  21526106.984     3207338.703 4   2499227.771 2
 91  8 10  1 47 30.0020000  0  4 21 23 03 17
  24059356.245    -5024052.190 2  -3914836.065 1
  21211109.649   -15195851.388 4 -11840899.705 2
  22794192.809    11909377.693 3   9280031.141 1
  21531574.591     3236092.094 4   2521633.011 2
 91  8 10  1 47 45.0020000  0  4 21 23 03 17
  24052258.962    -5061361.331 2  -3943908.001 1
  21210948.374   -15196722.555 4 -11841578.519 2
  22804725.725    11964721.330 3   9323156.053 1
  21537063.208     3264918.582 4   2544095.202 2
 91  8 10  1 48  0.0020000  0  4 21 23 03 17
  24045171.277    -5098614.460 2  -3972936.360 1
  21210802.664   -15197478.518 4 -11842167.567 2
  22815282.025    12020171.117 3   9366363.616 1
  21542560.794     3293817.177 4   2566613.579 2
 91  8 10  1 48 15.0020000  0  4 21 23 03 17
  24038088.373    -5135811.942 2  -4001921.394 1
  21210680.338   -15198119.957 4 -11842667.376 2
  22825851.203    12075726.660 3   9409653.644 1
  21548074.575     3322787.107 4   2589187.550 2
 91  8 10  1 48 30.0020000  0  4 21 23 03 17
  24031029.481    -5172952.000 2  -4030861.595 1
  21210582.303   -15198645.386 4 -11843076.789 2
  22836439.576    12131389.113 3   9453026.949 1
  21553601.547     3351829.951 4   2611818.336 2
 91  8 10  1 48 45.0020000  0  4 21 23 03 17
  24023965.738    -5210039.075 2  -4059760.603 1
  21210502.276   -15199059.303 4 -11843399.313 2
  22847054.020    12187153.741 3   9496479.860 1
  21559141.433     3380941.303 4   2634502.512 2
 91  8 10  1 49  0.0020000  0  4 21 23 03 17
  24016921.224    -5247068.303 2  -4088614.509 1
  21210446.226   -15199356.869 4 -11843631.164 2
  22857691.254    12243025.060 3   9540015.945 1
  21564696.570     3410125.915 4   2657243.754 2
 91  8 10  1 49 15.0020000  0  4 21 23 03 17
  24009888.403    -5284038.495 2  -4117422.440 1
  21210412.338   -15199537.338 4 -11843771.785 2
  22868338.365    12299004.033 3   9583635.860 1
  21570260.432     3439384.493 4   2680042.651 2
 91  8 10  1 49 30.0020000  0  4 21 23 03 17
  24002858.862    -5320953.918 2  -4146187.618 1
  21210400.646   -15199605.197 4 -11843824.653 2
  22879010.395    12355085.947 3   9627336.064 1
  21575843.455     3468712.664 4   2702895.780 2
 91  8 10  1 49 45.0020000  0  4 21 23 03 17
  23995849.109    -5357812.090 2  -4174908.196 1
  21210408.150   -15199557.913 4 -11843787.797 2
  22889708.774    12411272.934 3   9671118.090 1
  21581437.890     3498113.000 4   2725805.118 2
 91  8 10  1 50  0.0020000  0  4 21 23 03 17
  23988845.953    -5394617.114 2  -4203587.369 1
  21210437.536   -15199399.750 4 -11843664.539 2
  22900416.786    12467560.714 3   9714978.687 1
  21587045.483     3527581.056 4   2748767.237 2
 91  8 10  1 50 15.0020000  0  4 21 23 03 17
  23981850.614    -5431366.556 2  -4232223.322 1
  21210489.991   -15199128.591 4 -11843453.233 2
  22911140.643    12523951.054 2   9758919.156 1
  21592664.523     3557118.997 4   2771783.822 2
 91  8 10  1 50 30.0020000  0  4 21 23 03 17
  23974862.744    -5468060.280 2  -4260815.751 1
  21210562.235   -15198744.675 4 -11843154.057 2
  22921895.701    12580443.921 3   9802939.565 1
  21598299.721     3586727.036 4   2794855.020 2
 91  8 10  1 50 45.0020000  0  4 21 23 03 17
  23967892.883    -5504700.124 2  -4289366.248 1
  21210656.362   -15198250.025 4 -11842768.612 2
  22932669.360    12637037.162 3   9847038.161 1
  21603948.706     3616402.947 4   2817979.111 2
 91  8 10  1 51  0.0020000  0  4 21 23 03 17
  23960930.491    -5541281.904 2  -4317871.488 1
  21210772.092   -15197640.465 4 -11842293.611 2
  22943455.270    12693734.650 3   9891217.979 1
  21609607.288     3646150.567 4   2841159.079 2
 91  8 10  1 51 15.0020000  0  4 21 23 03 17
  23953985.199    -5577805.872 2  -4346331.660 1
  21210909.111   -15196916.453 4 -11841729.429 2
  22954264.877    12750535.773 3   9935478.541 1
  21615280.563     3675969.678 4   2864394.756 2
 91  8 10  1 51 30.0020000  0  4 21 23 03 17
  23947041.409    -5614270.964 2  -4374745.938 1
  21211070.665   -15196077.220 4 -11841075.480 2
  22965092.214    12807441.099 3   9979820.299 1
  21620968.217     3705861.141 4   2887686.805 2
 91  8 10  1 51 45.0020000  0  4 21 23 03 17
  23940108.996    -5650678.569 2  -4403115.483 1
  21211251.449   -15195124.277 4 -11840332.917 2
  22975945.586    12864449.137 3  10024242.181 1
  21626669.971     3735823.593 4   2911034.170 2
 91  8 10  1 52  0.0020000  0  4 21 23 03 17
  23933196.092    -5687028.007 2  -4431439.691 1
  21211451.428   -15194056.993 4 -11839501.246 2
  22986807.649    12921560.083 3  10068744.190 1
  21632387.605     3765857.550 4   2934437.255 2
 91  8 10  1 52 15.0020000  0  4 21 23 03 17
  23926290.657    -5723319.701 2  -4459718.853 1
  21211678.351   -15192876.129 4 -11838581.084 2
  22997695.538    12978773.106 3  10113325.689 1
  21638114.557     3795962.034 4   2957895.295 2
 91  8 10  1 52 30.0020000  0  4 21 23 03 17
  23919401.450    -5759552.068 2  -4487951.852 1
  21211925.691   -15191580.168 4 -11837571.228 2
  23008600.772    13036089.572 3  10157987.903 1
  21643859.169     3826138.777 4   2981409.637 2
 91  8 10  1 52 45.0020000  0  4 21 23 03 17
  23912513.710    -5795730.940 2  -4516143.076 1
  21212194.319   -15190175.248 4 -11836476.466 2
  23019527.296    13093503.361 3  10202725.855 1
  21649611.598     3856381.864 4   3004975.688 2
 91  8 10  1 53  0.0020000  0  4 21 23 03 17
  23905639.162    -5831852.818 2  -4544289.953 1
  21212478.793   -15188658.256 4 -11835294.383 2
  23030474.829    13151017.403 2  10247542.001 1
  21655382.280     3886694.394 4   3028595.847 2
 91  8 10  1 53 15.0020000  0  4 21 23 03 17
  23898770.930    -5867914.581 2  -4572389.989 1
  21212794.781   -15187026.281 4 -11834022.708 2
  23041437.056    13208634.428 2  10292438.315 1
  21661165.283     3917079.280 4   3052272.377 2
 91  8 10  1 53 30.0020000  0  4 21 23 03 17
  23891922.453    -5903915.505 2  -4600442.620 1
  21213126.056   -15185278.662 4 -11832660.913 2
  23052419.944    13266355.048 3  10337415.387 1
  21666959.383     3947537.134 4   3076005.761 2
 91  8 10  1 53 45.0020000  0  4 21 23 03 17
  23885089.611    -5939862.390 2  -4628453.097 1
  21213478.306   -15183422.435 4 -11831214.499 2
  23063426.215    13324171.815 3  10382467.366 1
  21672768.456     3978060.998 4   3099790.605 2
 91  8 10  1 54  0.0020000  0  4 21 23 03 17
  23878260.922    -5975749.194 2  -4656416.789 1
  21213853.940   -15181451.600 4 -11829678.766 2
  23074445.399    13382090.485 2  10427598.783 1
  21678588.941     4008656.794 4   3123631.485 2
 91  8 10  1 54 15.0020000  0  4 21 23 03 17
  23871434.048    -6011578.427 2  -4684335.623 1
  21214249.396   -15179368.908 4 -11828055.882 2
  23085479.242    13440108.440 2  10472807.529 1
  21684425.271     4039321.942 4   3147526.405 2
 91  8 10  1 54 30.0020000  0  4 21 23 03 17
  23864623.367    -6047348.439 2  -4712208.271 1
  21214665.200   -15177173.036 4 -11826344.797 2
  23096547.880    13498226.693 3  10518094.448 1
  21690274.549     4070057.740 4   3171476.388 2
 91  8 10  1 54 45.0020000  0  4 21 23 03 17
  23857836.070    -6083056.327 2  -4740032.581 1
  21215105.888   -15174861.253 4 -11824543.395 3
  23107624.022    13556447.989 3  10563461.659 1
  21696138.171     4100866.866 4   3195483.500 2
 91  8 10  1 55  0.0020000  0  4 21 23 03 17
  23851055.369    -6118705.016 2  -4767810.701 1
  21215566.364   -15172436.621 4 -11822654.068 2
  23118720.546    13614768.932 3  10608906.559 1
  21702009.925     4131746.168 4   3219545.292 2
 91  8 10  1 55 15.0020000  0  4 21 23 03 17
  23844279.135    -6154297.095 2  -4795544.742 1
  21216051.131   -15169901.885 4 -11820678.942 3
  23129836.265    13673186.559 2  10654426.759 1
  21707903.841     4162693.098 4   3243659.775 2
 91  8 10  1 55 30.0020000  0  4 21 23 03 17
  23837519.131    -6189831.774 2  -4823234.052 1
  21216556.001   -15167256.606 4 -11818617.668 2
  23140977.147    13731701.420 3  10700022.753 1
  21713803.132     4193708.046 4   3267827.276 2
 91  8 10  1 55 45.0020000  0  4 21 23 03 17
  23830762.720    -6225304.787 2  -4850875.294 1
  21217080.031   -15164496.635 4 -11816467.037 2
  23152131.221    13790317.398 3  10745697.508 1
  21719721.338     4224795.391 4   3292051.175 2
 91  8 10  1 56  0.0020000  0  4 21 23 03 17
  23824032.660    -6260721.725 2  -4878472.862 1
  21217628.945   -15161627.774 4 -11814231.554 2
  23163300.582    13849028.518 3  10791446.362 1
  21725648.235     4255949.250 4   3316326.912 2
 91  8 10  1 56 15.0020000  0  4 21 23 03 17
  23817299.912    -6296074.404 2  -4906020.345 1
  21218193.460   -15158641.877 4 -11811904.874 2
  23174488.824    13907842.671 2  10837275.547 1
  21731589.545     4287177.924 4   3340660.938 2
 91  8 10  1 56 30.0020000  0  4 21 23 03 17
  23810583.987    -6331370.781 2  -4933523.941 1
  21218781.637   -15155547.323 4 -11809493.518 2
  23185702.578    13966751.493 3  10883178.497 1
  21737548.201     4318472.885 4   3365046.627 2
 91  8 10  1 56 45.0020000  0  4 21 23 03 17
  23803882.126    -6366604.943 2  -4960979.094 1
  21219395.012   -15152338.251 4 -11806992.929 2
  23196933.085    14025760.613 3  10929159.612 1
  21743515.582     4349840.206 4   3389488.691 2
 91  8 10  1 57  0.0020000  0  4 21 23 03 17
  23797182.045    -6401780.340 2  -4988388.469 1
  21220027.582   -15149018.464 4 -11804406.086 2
  23208175.911    14084866.066 2  10975215.752 1
  21749494.341     4381276.060 4   3413984.154 2
 91  8 10  1 57 15.0020000  0  4 21 23 03 17
  23790501.787    -6436894.015 2  -5015749.707 1
  21220678.441   -15145585.456 4 -11801731.006 2
  23219442.714    14144070.403 2  11021348.966 1
  21755494.075     4412783.292 4   3438535.236 2
 91  8 10  1 57 30.0020000  0  4 21 23 03 17
  23783833.187    -6471949.831 2  -5043065.839 1
  21221351.775   -15142042.997 4 -11798970.628 2
  23230731.399    14203369.586 2  11067556.100 1
  21761501.033     4444357.728 4   3463138.696 2
 91  8 10  1 57 45.0020000  0  4 21 23 03 17
  23777172.090    -6506944.891 2  -5070334.706 1
  21222042.768   -15138388.250 4 -11796122.779 2
  23242037.779    14262766.197 2  11113839.156 1
  21767522.056     4476002.233 4   3487796.744 2
 91  8 10  1 58  0.0020000  0  4 21 23 03 17
  23770519.403    -6541880.910 2  -5097557.517 1
  21222762.904   -15134623.349 4 -11793189.086 2
  23253353.722    14322257.877 2  11160196.255 1
  21773557.179     4507714.910 4   3512507.918 2
 91  8 10  1 58 15.0020000  0  4 21 23 03 17
  23763886.820    -6576757.084 2  -5124733.700 1
  21223499.478   -15130747.681 4 -11790169.071 2
  23264692.490    14381845.159 2  11206627.890 1
  21779603.680     4539496.160 4   3537272.520 2
 91  8 10  1 58 30.0020000  0  4 21 23 03 17
  23757265.893    -6611572.485 2  -5151862.543 1
  21224257.655   -15126760.385 4 -11787062.069 2
  23276044.729    14441528.883 2  11253134.616 1
  21785667.002     4571347.184 4   3562091.506 2
 91  8 10  1 58 45.0020000  0  4 21 23 03 17
  23750650.062    -6646325.025 2  -5178942.394 1
  21225039.494   -15122659.611 4 -11783866.658 3
  23287425.167    14501310.609 2  11299717.768 1
  21791738.701     4603269.791 4   3586966.252 2
 91  8 10  1 59  0.0020000  0  4 21 23 03 17
  23744052.833    -6681015.529 2  -5205973.822 1
  21225841.751   -15118446.467 4 -11780583.683 2
  23298824.452    14561189.190 2  11346376.342 1
  21797828.094     4635262.962 4   3611895.983 2
 91  8 10  1 59 15.0020000  0  4 21 23 03 17
  23737452.288    -6715647.935 2  -5232960.132 1
  21226663.202   -15114124.939 4 -11777216.259 2
  23310230.962    14621160.254 2  11393106.991 1
  21803929.144     4667322.703 4   3636877.597 2
 91  8 10  1 59 30.0020000  0  4 21 23 03 17
  23730872.474    -6750220.817 2  -5259899.987 1
  21227508.316   -15109694.043 4 -11773763.597 2
  23321661.448    14681224.942 2  11439910.577 1
  21810044.921     4699450.120 4   3661911.949 2
 91  8 10  1 59 45.0020000  0  4 21 23 03 17
  23724312.693    -6784729.018 2  -5286789.428 1
  21228371.997   -15105148.810 4 -11770221.856 2
  23333113.816    14741387.779 2  11486790.709 1
  21816171.763     4731650.111 4   3687002.831 2
 91  8 10  2  0  0.0020000  0  4 21 23 03 17
  23717757.134    -6819180.072 2  -5313634.393 1
  21229257.875   -15100496.977 4 -11766597.036 2
  23344581.192    14801640.946 3  11533741.199 1
  21822311.238     4763915.072 4   3712144.359 2
 91  8 10  2  0 15.0020000  0  4 21 23 03 17
  23711212.081    -6853568.146 2  -5340430.194 1
  21230165.077   -15095732.903 4 -11762884.754 2
  23356062.632    14861990.261 3  11580766.585 1
  21828464.185     4796250.623 4   3737340.886 2
 91  8 10  2  0 30.0020000  0  4 21 23 03 17
  23704682.594    -6887894.420 2  -5367177.914 1
  21231089.310   -15090857.606 4 -11759085.814 2
  23367559.080    14922434.047 2  11627865.617 1
  21834631.790     4828655.559 4   3762591.488 2
 91  8 10  2  0 45.0020000  0  4 21 23 03 17
  23698154.014    -6922159.885 2  -5393878.243 1
  21232040.556   -15085872.724 4 -11755201.490 2
  23379080.098    14982970.760 3  11675037.074 1
  21840813.215     4861128.612 4   3787895.147 2
 91  8 10  2  1  0.0020000  0  4 21 23 03 17
  23691654.505    -6956363.376 2  -5420530.245 1
  21233008.904   -15080777.283 4 -11751231.006 2
  23390623.591    15043601.283 3  11722281.577 1
  21847004.832     4893670.859 4   3813252.739 2
 91  8 10  2  1 15.0020000  0  4 21 23 03 17
  23685153.497    -6990500.797 2  -5447130.809 1
  21234003.915   -15075567.262 4 -11747171.246 2
  23402180.905    15104329.118 3  11769601.855 1
  21853210.827     4926286.338 4   3838667.390 2
 91  8 10  2  1 30.0020000  0  4 21 23 03 17
  23678666.902    -7024582.010 2  -5473687.541 1
  21235014.807   -15070252.960 4 -11743030.220 2
  23413745.688    15165144.483 2  11816990.454 1
  21859426.141     4958964.924 4   3864131.229 2
 91  8 10  2  1 45.0030000  0  4 21 23 03 17
  23672194.986    -7058603.029 2  -5500197.355 1
  21236045.193   -15064827.817 4 -11738802.836 2
  23425336.876    15226057.069 2  11864454.808 1
  21865663.323     4991715.026 4   3889650.775 2
 91  8 10  2  2  0.0030000  0  4 21 23 03 17
  23665734.461    -7092557.484 2  -5526655.326 1
  21237098.348   -15059290.744 4 -11734488.216 2
  23436948.740    15287060.247 2  11911989.759 1
  21871907.395     5024533.772 4   3915223.820 2
 91  8 10  2  2 15.0030000  0  4 21 23 03 17
  23659283.535    -7126451.058 2  -5553065.877 1
  21238177.016   -15053645.143 4 -11730089.036 2
  23448576.483    15348154.254 2  11959595.513 1
  21878162.565     5057419.919 4   3940849.396 2
 91  8 10  2  2 30.0030000  0  4 21 23 03 17
  23652843.078    -7160279.986 2  -5579425.990 1
  21239267.969   -15047887.377 4 -11725602.455 2
  23460221.642    15409342.691 2  12007274.710 1
  21884436.337     5090377.069 4   3966530.283 2
 91  8 10  2  2 45.0030000  0  4 21 23 03 17
  23646426.005    -7194043.466 2  -5605735.150 1
  21240387.086   -15042017.188 4 -11721028.282 2
  23471878.771    15470625.601 2  12055027.652 1
  21890722.359     5123405.526 4   3992266.731 2
 91  8 10  2  3  0.0030000  0  4 21 23 03 17
  23640000.555    -7227744.791 2  -5631995.910 1
  21241525.085   -15036037.894 4 -11716369.084 2
  23483553.874    15531999.642 2  12102851.484 1
  21897016.827     5156501.954 4   4018056.161 2
 91  8 10  2  3 15.0030000  0  4 21 23 03 17
  23633606.307    -7261387.057 2  -5658210.552 1
  21242679.905   -15029952.960 4 -11711627.561 2
  23495259.585    15593461.307 2  12150743.624 1
  21903329.548     5189663.431 4   4043896.266 2
 91  8 10  2  3 30.0030000  0  4 21 23 03 17
  23627217.713    -7294967.022 2  -5684376.758 1
  21243858.981   -15023759.165 4 -11706801.221 2
  23506970.077    15655013.617 2  12198706.430 1
  21909651.553     5222892.804 4   4069789.282 2
 91  8 10  2  3 45.0030000  0  4 21 23 03 17
  23620839.344    -7328483.600 2  -5710493.509 1
  21245058.754   -15017455.529 4 -11701889.284 2
  23518697.949    15716657.020 2  12246740.208 1
  21915988.564     5256190.955 4   4095735.889 2
 91  8 10  2  4  0.0030000  0  4 21 23 03 17
  23614466.943    -7361938.080 2  -5736561.862 1
  21246280.409   -15011043.562 4 -11696892.933 3
  23530446.518    15778389.984 2  12294843.729 1
  21922336.081     5289556.678 4   4121735.152 2
 91  8 10  2  4 15.0030000  0  4 21 23 03 17
  23608117.332    -7395329.860 2  -5762581.387 1
  21247520.351   -15004523.197 4 -11691812.119 2
  23542207.371    15840212.758 2  12343017.306 1
  21928701.292     5322990.275 4   4147787.308 2
 91  8 10  2  4 30.0030000  0  4 21 23 03 17
  23601771.630    -7428659.104 2  -5788552.178 1
  21248784.270   -14997894.736 4 -11686647.084 2
  23553996.424    15902124.768 2  12391260.390 1
  21935072.472     5356491.259 4   4173891.967 2
 91  8 10  2  4 45.0030000  0  4 21 23 03 17
  23595445.996    -7461922.982 2  -5814472.021 1
  21250063.197   -14991155.321 4 -11681395.586 2
  23565795.947    15964128.315 2  12439574.788 1
  21941464.940     5390062.534 4   4200051.390 2
 91  8 10  2  5  0.0030000  0  4 21 23 03 17
  23589129.087    -7495121.496 3  -5840340.946 1
  21251368.787   -14984305.219 4 -11676057.830 2
  23577610.164    16026223.203 2  12487960.388 1
  21947859.223     5423703.820 4   4226265.383 2
 91  8 10  2  5 15.0030000  0  4 21 23 03 17
  23582819.647    -7528257.011 3  -5866160.792 1
  21252690.257   -14977347.033 4 -11670635.856 2
  23589439.666    16088406.610 2  12536414.983 1
  21954278.356     5457412.816 4   4252532.134 2
 91  8 10  2  5 30.0030000  0  4 21 23 03 17
  23576529.402    -7561330.796 3  -5891932.492 1
  21254037.519   -14970282.387 4 -11665130.928 2
  23601291.366    16150676.961 2  12584937.280 1
  21960706.213     5491188.153 4   4278850.568 2
 91  8 10  2  5 45.0030000  0  4 21 23 03 17
  23570240.972    -7594338.575 2  -5917652.822 1
  21255400.102   -14963107.087 4 -11659539.775 2
  23613156.851    16213038.220 2  12633530.416 1
  21967149.357     5525033.748 4   4305223.755 2
 91  8 10  2  6  0.0030000  0  4 21 23 03 17
  23563977.111    -7627283.706 3  -5943324.307 1
  21256785.719   -14955824.683 4 -11653865.165 2
  23625044.532    16275486.735 3  12682191.597 1
  21973600.598     5558946.107 4   4331648.964 2
 91  8 10  2  6 15.0030000  0  4 21 23 03 17
  23557720.126    -7660167.085 2  -5968947.660 1
  21258190.845   -14948436.104 4 -11648107.825 2
  23636945.685    16338021.220 3  12730919.679 1
  21980067.404     5592924.382 4   4358125.529 2
 91  8 10  2  6 30.0030000  0  4 21 23 03 17
  23551468.551    -7692983.349 2  -5994518.718 1
  21259623.578   -14940936.450 4 -11642263.930 2
  23648858.530    16400646.460 2  12779718.533 1
  21986543.529     5626973.433 4   4384657.254 2
 91  8 10  2  6 45.0030000  0  4 21 23 03 17
  23545235.857    -7725736.331 2  -6020040.506 1
  21261070.061   -14933329.569 4 -11636336.486 2
  23660792.664    16463358.327 2  12828584.893 1
  21993035.534     5661089.324 4   4411241.063 2
 91  8 10  2  7  0.0030000  0  4 21 23 03 17
  23539023.858    -7758425.896 3  -6045512.795 1
  21262536.962   -14925615.861 4 -11630325.801 3
  23672743.586    16526156.582 2  12877518.559 1
  21999544.639     5695272.282 4   4437877.132 2
 91  8 10  2  7 15.0030000  0  4 21 23 03 17
  23532813.675    -7791044.860 3  -6070930.165 1
  21264026.024   -14917788.521 4 -11624226.559 3
  23684712.515    16589047.896 2  12926524.759 1
  22006064.808     5729528.858 4   4464570.553 2
 91  8 10  2  7 30.0030000  0  4 21 23 03 17
  23526616.370    -7823597.482 3  -6096295.781 1
  21265533.687   -14909851.740 4 -11618042.047 2
  23696696.732    16652027.886 2  12975600.043 1
  22012593.982     5763855.097 4   4491318.271 2
 91  8 10  2  7 45.0030000  0  4 21 23 03 17
  23520433.757    -7856086.261 3  -6121611.694 1
  21267066.200   -14901808.234 4 -11611774.383 2
  23708693.512    16715093.447 2  13024742.035 1
  22019140.850     5798248.308 4   4518118.161 2
 91  8 10  2  8  0.0030000  0  4 21 23 03 17
  23514260.429    -7888512.420 2  -6146878.763 1
  21268616.129   -14893659.502 4 -11605424.704 2
  23720710.395    16778243.113 2  13073949.519 1
  22025695.536     5832707.101 4   4544969.166 2
 91  8 10  2  8 15.0030000  0  4 21 23 03 17
  23508105.667    -7920873.579 2  -6172095.229 1
  21270190.662   -14885403.121 4 -11598991.159 2
  23732745.566    16841479.007 2  13123224.248 1
  22032265.473     5867233.944 4   4571873.192 2
 91  8 10  2  8 30.0030000  0  4 21 23 03 17
  23501959.317    -7953168.388 2  -6197259.964 1
  21271778.946   -14877038.226 4 -11592473.047 2
  23744798.431    16904802.072 2  13172566.822 1
  22038850.417     5901829.744 4   4598830.941 2
 91  8 10  2  8 45.0030000  0  4 21 23 03 17
  23495825.565    -7985399.420 3  -6222375.024 1
  21273392.742   -14868567.596 4 -11585872.544 2
  23756866.862    16968209.262 2  13221974.900 1
  22045446.739     5936491.586 4   4625840.166 2
 91  8 10  2  9  0.0030000  0  4 21 23 03 17
  23489711.916    -8017565.242 3  -6247439.258 1
  21275024.512   -14859990.055 4 -11579188.745 2
  23768936.201    17031701.558 2  13271449.472 1
  22052056.882     5971220.893 4   4652901.958 2
 91  8 10  2  9 15.0030000  0  4 21 23 03 17
  23483598.547    -8049670.921 3  -6272456.650 1
  21276676.350   -14851310.816 4 -11572425.689 2
  23781042.429    17095273.540 2  13320986.075 1
  22058675.400     6006012.629 4   4680012.386 2
 91  8 10  2  9 30.0030000  0  4 21 23 03 17
  23477502.278    -8081710.131 3  -6297422.250 1
  21278348.604   -14842523.677 4 -11565578.560 2
  23793155.847    17158931.337 2  13370589.472 1
  22065309.519     6040872.920 4   4707176.255 2
 91  8 10  2  9 45.0030000  0  4 21 23 03 17
  23471413.164    -8113687.593 2  -6322339.712 1
  21280036.424   -14833633.585 4 -11558651.201 3
  23805285.458    17222669.572 2  13420255.623 1
  22071955.609     6075796.682 4   4734389.564 2
 91  8 10  2 10  0.0030000  0  4 21 23 03 17
  23465345.095    -8145597.800 3  -6347204.766 1
  21281750.035   -14824635.235 4 -11551639.500 2
  23817428.541    17286493.539 2  13469988.507 1
  22078612.797     6110789.576 4   4761656.748 2
 91  8 10  2 10 15.0030000  0  4 21 23 03 17
  23459281.494    -8177441.505 2  -6372017.974 1
  21283486.157   -14815529.667 4 -11544544.249 2
  23829592.913    17350402.339 2  13519787.473 1
  22085284.085     6145850.564 4   4788976.993 2
 91  8 10  2 10 30.0030000  0  4 21 23 03 17
  23453239.146    -8209218.372 2  -6396779.171 1
  21285239.032   -14806316.951 4 -11537365.500 2
  23841766.290    17414395.564 2  13569652.342 1
  22091970.032     6180979.768 4   4816350.381 2
 91  8 10  2 10 45.0030000  0  4 21 23 03 17
  23447202.523    -8240930.062 2  -6421489.534 1
  21287012.916   -14796999.052 4 -11530104.793 2
  23853960.956    17478471.190 2  13619581.364 1
  22098669.519     6216175.489 4   4843775.619 2
 91  8 10  2 11  0.0030000  0  4 21 23 03 17
  23441182.721    -8272573.402 3  -6446146.653 1
  21288803.274   -14787572.660 4 -11522759.542 2
  23866170.280    17542632.201 2  13669576.914 1
  22105375.254     6251440.560 4   4871254.895 2
 91  8 10  2 11 15.0030000  0  4 21 23 03 17
  23435171.261    -8304150.990 3  -6470752.523 1
  21290617.922   -14778040.507 4 -11515331.877 2
  23878399.427    17606875.632 2  13719636.679 1
  22112103.500     6286772.516 4   4898786.281 2
 91  8 10  2 11 30.0030000  0  4 21 23 03 17
  23429177.530    -8335662.284 3  -6495306.765 1
  21292452.952   -14768402.521 4 -11507821.753 2
  23890638.766    17671201.518 2  13769760.713 1
  22118837.748     6322171.683 4   4926370.051 2
 91  8 10  2 11 45.0030000  0  4 21 23 03 17
  23423194.862    -8367106.753 3  -6519808.917 1
  21294307.770   -14758658.498 4 -11500229.007 2
  23902892.762    17735610.052 2  13819949.159 1
  22125587.283     6357638.343 4   4954006.398 2
 91  8 10  2 12  0.0030000  0  4 21 23 03 17
  23417220.012    -8398484.699 3  -6544259.256 1
  21296179.062   -14748808.577 4 -11492553.743 2
  23915166.268    17800100.632 2  13870201.532 1
  22132350.883     6393171.973 4   4981694.930 2
 91  8 10  2 12 15.0030000  0  4 21 23 03 17
  23411260.135    -8429797.818 3  -6568659.030 1
  21298076.145   -14738854.863 4 -11484797.588 2
  23927452.967    17864671.338 2  13920516.299 1
  22139124.115     6428770.999 4   5009434.433 2
 91  8 10  2 12 30.0030000  0  4 21 23 03 17
  23405315.544    -8461041.103 3  -6593004.420 1
  21299991.236   -14728792.669 4 -11476956.913 2
  23939758.546    17929326.454 2  13970896.858 1
  22145909.318     6464440.142 4   5037228.555 2
 91  8 10  2 12 45.0030000  0  4 21 23 03 17
  23399383.237    -8492218.520 3  -6617298.522 1
  21301923.988   -14718626.037 4 -11469034.855 2
  23952077.911    17994061.690 2  14021339.831 1
  22152712.180     6500175.501 4   5065074.303 2
 91  8 10  2 13  0.0030000  0  4 21 23 03 17
  23393463.251    -8523331.711 3  -6641542.498 1
  21303880.715   -14708356.833 4 -11461032.874 2
  23964410.783    18058875.319 2  14071843.986 1
  22159523.175     6535975.090 4   5092970.086 2
 91  8 10  2 13 15.0030000  0  4 21 23 03 17
  23387558.516    -8554377.038 3  -6665733.646 1
  21305850.077   -14697981.805 4 -11452948.422 2
  23976761.628    18123770.347 2  14122411.414 1
  22166350.363     6571842.535 4   5120918.733 2
 91  8 10  2 13 30.0030000  0  4 21 23 03 17
  23381661.006    -8585358.016 3  -6689874.634 1
  21307845.789   -14687504.760 4 -11444784.483 2
  23989120.884    18188743.048 2  14173039.470 1
  22173184.113     6607774.150 4   5148917.396 2
 91  8 10  2 13 45.0030000  0  4 21 23 03 17
  23375778.782    -8616267.485 3  -6713959.904 1
  21309861.882   -14676918.648 4 -11436535.567 2
  24001501.116    18253799.950 2  14223733.065
  22180037.965     6643776.743 4   5176971.376 2
 91  8 10  2 14  0.0030000  0  5 21 23 03 11 17
  23369908.842    -8647111.581 3  -6737994.239 1
  21311894.170   -14666229.730 4 -11428206.526 2
  24013898.134    18318934.779 2  14274487.465 1
  26148146.701           0.484 2         0.406 1
  22186902.916     6679844.311 4   5205075.955 2
 91  8 10  2 14 15.0030000  0  5 21 23 03 11 17
  23364054.504    -8677889.828 3  -6761977.239 1
  21313947.153   -14655437.982 4 -11419797.371 2
  24026310.125    18384147.418 2  14325302.566 1
  26139593.337      -44933.216 1    -35012.717 1
  22193778.650     6715977.032 4   5233231.325 2
 91  8 10  2 14 30.0030000  0  5 21 23 03 11 17
  23358217.545    -8708599.723 3  -6785907.005 1
  21316024.427   -14644541.060 4 -11411306.257 2
  24038732.028    18449439.848 2  14376179.660 1
  26131041.753      -89868.160 2    -70027.054 1
  22200663.983     6752177.255 3   5261439.287 2
 91  8 10  2 14 45.0030000  0  5 21 23 03 11 17
  23352371.583    -8739242.202 3  -6809784.246 1
  21318112.764   -14633539.946 4 -11402733.945 2
  24051169.217    18514810.992 2  14427118.182 1
  26122497.359     -134804.955 2   -105042.593 1
  22207568.510     6788443.798 4   5289698.928 2
 91  8 10  2 15  0.0030000  0  5 21 23 03 11 17
  23346559.823    -8769817.355 3  -6833608.964 1
  21320228.708   -14622435.126 4 -11394080.836 2
  24063623.786    18580260.312 2  14478117.604 1
  26113945.182     -179743.629 2   -140059.988 1
  22214478.727     6824776.456 3   5318010.076 2
 91  8 10  2 15 15.0030000  0  5 21 23 03 11 17
  23340751.343    -8800327.311 3  -6857382.953 1
  21322363.846   -14611228.709 4 -11385348.557 3
  24076098.458    18645785.447 2  14529176.108 1
  26105399.007     -224686.055 2   -175079.860 1
  22221408.139     6861173.141 4   5346371.127 2
 91  8 10  2 15 30.0030000  0  5 21 23 03 11 17
  23334955.149    -8830768.714 3  -6881103.477 1
  21324513.050   -14599917.807 4 -11376534.865 3
  24088574.038    18711389.244 2  14580296.009 1
  26096844.736     -269628.664 2   -210100.262 1
  22228346.834     6897637.229 4   5374784.698 2
 91  8 10  2 15 45.0030000  0  5 21 23 03 11 17
  23329182.338    -8861140.796 3  -6904770.019 1
  21326686.231   -14588501.734 4 -11367639.222 2
  24101081.063    18777072.164 2  14631477.403 1
  26088300.062     -314570.609 2   -245120.131 1
  22235297.535     6934169.014 4   5403251.017 2
 91  8 10  2 16  0.0030000  0  5 21 23 03 11 17
  23323413.121    -8891447.519 3  -6928385.614 1
  21328876.826   -14576984.591 4 -11358664.817 2
  24113593.497    18842829.937 2  14682717.171 1
  26079746.384     -359515.783 2   -280142.247 1
  22242262.615     6970764.287 4   5431766.803 2
 91  8 10  2 16 15.0030000  0  5 21 23 03 11 17
  23317658.318    -8921686.396 3  -6951948.322 1
  21331089.304   -14565364.230 4 -11349609.981 2
  24126120.345    18908664.523 2  14734016.880 1
  26071193.300     -404461.400 2   -315164.649 1
  22249236.071     7007425.739 4   5460334.169 2
 91  8 10  2 16 30.0030000  0  5 21 23 03 11 17
  23311913.707    -8951856.965 3  -6975457.807 1
  21333314.940   -14553640.502 4 -11340474.606 2
  24138663.946    18974576.137 2  14785376.532 1
  26062635.399     -449406.699 2   -350187.033 1
  22256228.443     7044153.610 4   5488953.281 2
 91  8 10  2 16 45.0030000  0  5 21 23 03 11 17
  23306193.351    -8981959.127 3  -6998914.011 1
  21335568.810   -14541813.416 4 -11331258.682 2
  24151218.644    19040564.440 2  14836795.970 1
  26054074.846     -494351.533 2   -385208.888 1
  22263227.376     7080947.920 4   5517624.169 2
 91  8 10  2 17  0.0030000  0  5 21 23 03 11 17
  23300476.311    -9011991.057 3  -7022315.466 1
  21337843.027   -14529881.560 4 -11321961.132 2
  24163787.164    19106630.686 2  14888276.097 1
  26045525.356     -539294.036 2   -420228.904 1
  22270244.632     7117810.315 4   5546348.110 2
 91  8 10  2 17 15.0030000  0  5 21 23 03 11 17
  23294768.554    -9041955.466 3  -7045664.311 2
  21340129.250   -14517847.743 4 -11312584.126 2
  24176377.251    19172771.919 2  14939814.664 1
  26036983.055     -584236.660 2   -455249.300 1
  22277271.172     7154737.966 4   5575122.907 2
 91  8 10  2 17 30.0030000  0  5 21 23 03 11 17
  23289090.811    -9071847.080 3  -7068956.450 1
  21342440.043   -14505707.095 4 -11303123.881 2
  24188979.903    19238993.058 2  14991415.538 1
  26028417.092     -629174.006 2   -490265.284 1
  22284312.683     7191735.748 4   5603952.335 2
 91  8 10  2 17 45.0030000  0  5 21 23 03 11 17
  23283408.532    -9101670.824 3  -7092195.681 1
  21344770.310   -14493464.556 4 -11293584.233 2
  24201598.191    19305288.777 2  15043074.459 1
  26019875.420     -674110.743 2   -525280.714 1
  22291363.200     7228798.686 4   5632832.532 2
 91  8 10  2 18  0.0030000  0  5 21 23 03 11 17
  23277744.540    -9131428.516 3  -7115383.486 1
  21347117.713   -14481122.177 4 -11283966.784 3
  24214225.133    19371656.803 2  15094789.768 1
  26011331.340     -719048.655 2   -560297.287 1
  22298431.410     7265924.787 4   5661761.965 2
 91  8 10  2 18 15.0030000  0  5 21 23 03 11 17
  23272098.557    -9161115.951 3  -7138516.486 1
  21349488.465   -14468675.862 4 -11274268.353 3
  24226869.177    19438101.039 2  15146564.451 1
  26002771.659     -763983.312 2   -595311.201 1
  22305506.531     7303118.287 4   5690743.900 2
 91  8 10  2 18 30.0030000  0  5 21 23 03 11 17
  23266462.765    -9190735.275 3  -7161596.441 1
  21351876.318   -14456127.993 4 -11264490.795 2
  24239531.509    19504619.010 2  15198396.563 1
  25994217.667     -808916.570 2   -630324.014 1
  22312597.497     7340377.019 4   5719776.680 2
 91  8 10  2 18 45.0030000  0  5 21 23 03 11 17
  23260838.350    -9220287.290 3  -7184623.944 1
  21354283.924   -14443479.970 4 -11254635.178 2
  24252198.936    19571209.402 2  15250285.157 1
  25985665.490     -853849.237 2   -665336.574 1
  22319698.409     7377699.882 3   5748859.423 2
 91  8 10  2 19  0.0030000  0  5 21 23 03 11 17
  23255223.254    -9249770.840 3  -7207598.104 1
  21356708.667   -14430730.590 4 -11244700.588 2
  24264878.369    19637873.190 2  15302230.902 1
  25977125.318     -898779.867 2   -700347.307 1
  22326810.665     7415087.846 4   5777992.893 2
 91  8 10  2 19 15.0030000  0  5 21 23 03 11 17
  23249628.819    -9279185.026 3  -7230518.181 1
  21359151.977   -14417879.135 4 -11234686.462 2
  24277586.281    19704610.531 2  15354233.961 1
  25968574.921     -943707.367 2   -735355.819 1
  22333938.241     7452541.877 4   5807177.840 2
 91  8 10  2 19 30.0030000  0  5 21 23 03 11 17
  23244044.296    -9308528.101 3  -7253382.884 1
  21361620.764   -14404924.249 4 -11224591.749 2
  24290298.066    19771423.028 2  15406295.647 1
  25960020.650     -988629.898 2   -770360.436 1
  22341081.697     7490063.449 4   5836415.413 2
 91  8 10  2 19 45.0030000  0  5 21 23 03 11 17
  23238476.245    -9337801.067 3  -7276192.955 2
  21364105.745   -14391867.050 4 -11214417.299 2
  24303026.953    19838309.280 2  15458414.776 1
  25951475.383    -1033548.214 2   -805361.518 1
  22348234.751     7527651.685 4   5865704.946 2
 91  8 10  2 20  0.0030000  0  5 21 23 03 11 17
  23232918.700    -9367005.487 3  -7298949.602 1
  21366607.512   -14378709.343 4 -11204164.537 2
  24315766.938    19905267.398 2  15510589.900 1
  25942920.204    -1078463.781 2   -840360.845 1
  22355400.682     7565304.590 4   5895044.855 2
 91  8 10  2 20 15.0030000  0  5 21 23 03 11 17
  23227369.810    -9396141.696 3  -7321653.107 1
  21369132.350   -14365451.733 4 -11193833.927 2
  24328522.524    19972296.403 2  15562820.330 1
  25934373.995    -1123376.729 2   -875357.775 1
  22362580.400     7603021.553 4   5924434.694 2
 91  8 10  2 20 30.0030000  0  5 21 23 03 11 17
  23221840.743    -9425208.451 3  -7344302.480 1
  21371674.602   -14352093.193 4 -11183424.669 2
  24341293.675    20039397.624 2  15615106.871 1
  25925841.606    -1168285.379 2   -910351.354 1
  22369765.248     7640803.967 4   5953875.530 2
 91  8 10  2 20 45.0030000  0  5 21 23 03 11 17
  23216323.368    -9454207.509 3  -7366899.114 1
  21374234.828   -14338635.386 4 -11172938.053 2
  24354072.609    20106568.760 2  15667447.900 1
  25917294.246    -1213191.351 2   -945343.144 1
  22376967.162     7678649.886 4   5983365.846 2
 91  8 10  2 21  0.0030000  0  5 21 23 03 11 17
  23210814.405    -9483136.734 3  -7389441.338 2
  21376816.029   -14325076.786 4 -11162372.913 2
  24366871.960    20173811.470 2  15719844.782 1
  25908749.537    -1258092.340 2   -980330.797 1
  22384181.955     7716561.468 4   6012907.347 2
 91  8 10  2 21 15.0030000  0  5 21 23 03 11 17
  23205326.695    -9511995.712 3  -7411928.799 1
  21379412.831   -14311417.059 4 -11151728.968 2
  24379676.092    20241125.792 2  15772297.521 1
  25900203.956    -1302987.853 2  -1015314.130 1
  22391409.940     7754539.014 3   6042500.228 2
 91  8 10  2 21 30.0030000  0  5 21 23 03 11 17
  23199848.862    -9540783.388 3  -7434360.719 1
  21382032.423   -14297655.411 4 -11141005.607 2
  24392505.422    20308512.377 2  15824806.621 1
  25891661.690    -1347876.685 2  -1050292.613 1
  22398649.337     7792583.078 3   6072144.936 2
 91  8 10  2 21 45.0030000  0  5 21 23 03 11 17
  23194379.475    -9569504.836 3  -7456741.046 1
  21384669.989   -14283797.141 4 -11130206.937 3
  24405337.126    20375965.808 2  15877367.688 1
  25883119.704    -1392763.688 2  -1085269.401 1
  22405898.018     7830688.639 3   6101837.571 2
 91  8 10  2 22  0.0030000  0  5 21 23 03 11 17
  23188930.750    -9598155.841 3  -7479066.469 1
  21387326.156   -14269838.238 4 -11119329.868 2
  24418189.246    20443489.813 2  15929983.701 1
  25874577.718    -1437644.376 2  -1120241.467 1
  22413164.987     7868859.882 4   6131581.394 2
 91  8 10  2 22 15.0030000  0  5 21 23 03 11 17
  23183490.993    -9626736.651 3  -7501337.183 1
  21390000.611   -14255779.206 4 -11108374.770 2
  24431048.835    20511083.899 2  15982654.260 1
  25866036.011    -1482518.979 2  -1155208.579 1
  22420440.052     7907096.321 4   6161376.009 2
 91  8 10  2 22 30.0030000  0  5 21 23 03 11 17
  23178066.244    -9655243.215 3  -7523550.061 1
  21392697.542   -14241616.403 4 -11097338.806 2
  24443929.713    20578751.576 2  16035382.335 1
  25857505.437    -1527383.306 2  -1190167.572 1
  22427728.589     7945401.834 4   6191224.447 2
 91  8 10  2 22 45.0030000  0  5 21 23 03 11 17
  23172656.188    -9683680.597 3  -7545709.021 1
  21395410.667   -14227354.757 4 -11086225.834 2
  24456817.781    20646487.572 2  16088163.652 1
  25848962.229    -1572242.058 2  -1225122.676 1
  22435031.540     7983771.268 4   6221122.712 2
 91  8 10  2 23  0.0030000  0  5 21 23 03 11 17
  23167261.732    -9712048.187 3  -7567813.611 1
  21398141.766   -14212994.119 4 -11075035.729 3
  24469722.357    20714291.926 2  16140998.213 1
  25840422.058    -1617094.288 2  -1260072.264 1
  22442346.497     8022205.125 4   6251071.171 2
 91  8 10  2 23 15.0030000  0  5 21 23 03 11 17
  23161876.281    -9740344.734 3  -7589862.837 2
  21400894.468   -14198533.521 4 -11063767.720 2
  24482635.623    20782165.660 2  16193886.722
  25831896.544    -1661938.738 2  -1295015.830 1
  22449669.516     8060704.539 4   6281070.705 2
 91  8 10  2 23 30.0030000  0  5 21 23 03 11 17
  23156500.672    -9768573.627 3  -7611859.331 1
  21403663.643   -14183976.424 4 -11052424.520 2
  24495564.175    20850104.935 2  16246826.363 1
  25823357.560    -1706778.554 2  -1329956.143 1
  22457012.637     8099266.013 4   6311118.598 2
 91  8 10  2 23 45.0030000  0  5 21 23 03 11 17
  23151141.291    -9796730.457 3  -7633799.696 1
  21406457.702   -14169318.682 4 -11041002.899 2
  24508502.011    20918113.844 2  16299820.212 1
  25814835.955    -1751609.154 2  -1364888.949 1
  22464359.353     8137893.755 4   6341218.127 2
 91  8 10  2 24  0.0030000  0  5 21 23 03 11 17
  23145795.696    -9824817.064 3  -7655685.318 1
  21409263.767   -14154562.519 4 -11029504.584 2
  24521462.636    20986190.017 2  16352866.616 1
  25806305.661    -1796432.321 2  -1399816.293 1
  22471724.043     8176585.749 3   6371367.737 2
 91  8 10  2 24 15.0030000  0  5 21 23 03 11 17
  23140470.797    -9852831.196 3  -7677514.497 1
  21412089.934   -14139705.708 4 -11017927.842 2
  24534421.168    21054335.581 2  16405967.010 1
  25797778.053    -1841245.428 2  -1434735.426
  22479098.959     8215344.144 4   6401569.078 2
 91  8 10  2 24 30.0030000  0  5 21 23 03 11 17
  23135156.054    -9880775.521 3  -7699289.262 1
  21414935.262   -14124751.046 4 -11006274.847 3
  24547413.588    21122547.261 2  16459119.067 1
  25789254.669    -1886050.959 2  -1469649.069 1
  22486485.846     8254166.238 4   6431820.031 2
 91  8 10  2 24 45.0030000  0  5 21 23 03 11 17
  23129843.440    -9908653.075 3  -7721011.995 1
  21417799.157   -14109701.798 4 -10994548.157 2
  24560400.005    21190821.632 2  16512319.670 1
  25780721.966    -1930851.590 2  -1504558.898 1
  22493885.610     8293048.888 4   6462118.232 2
 91  8 10  2 25  0.0030000  0  5 21 23 03 11 17
  23124551.208    -9936453.614 3  -7742674.720 1
  21420681.375   -14094548.142 4 -10982740.109 2
  24573409.771    21259168.697 2  16565577.072 1
  25772202.770    -1975636.966 2  -1539456.467 1
  22501298.568     8332002.259 3   6492471.481 2
 91  8 10  2 25 15.0030000  0  5 21 23 03 11 17
  23119275.762    -9964184.910 3  -7764283.495 1
  21423583.067   -14079298.164 4 -10970857.001 2
  24586424.667    21327580.083 2  16618884.592 1
  25763677.885    -2020414.789 2  -1574348.291 1
  22508718.749     8371018.247 3   6522873.543 2
 91  8 10  2 25 30.0030000  0  5 21 23 03 11 17
  23114015.883    -9991844.655 3  -7785836.519 1
  21426505.734   -14063949.672 4 -10958897.138 2
  24599454.256    21396057.696 2  16672243.733 1
  25755160.189    -2065182.477 2  -1609232.159 1
  22516158.684     8410099.027 3   6553326.088 2
 91  8 10  2 25 45.0030000  0  5 21 23 03 11 17
  23108761.134   -10019432.328 3  -7807333.371 1
  21429445.188   -14048502.493 4 -10946860.371 2
  24612500.911    21464602.091 2  16725654.901 1
  25746642.459    -2109939.329 2  -1644107.508 1
  22523606.717     8449245.176 3   6583829.587 2
 91  8 10  2 26  0.0030000  0  5 21 23 03 11 17
  23103531.548   -10046950.156 3  -7828775.791 1
  21432401.744   -14032958.906 4 -10934748.483 2
  24625553.883    21533210.250 2  16779115.753 1
  25738128.672    -2154687.375 2  -1678976.191 1
  22531066.161     8488454.368 3   6614382.196 2
 91  8 10  2 26 15.0030000  0  5 21 23 03 11 17
  23098305.277   -10074395.869 3  -7850162.047 1
  21435375.994   -14017316.865 4 -10922559.864 2
  24638628.424    21601884.348 2  16832628.003 1
  25729610.069    -2199424.028 2  -1713835.801 1
  22538541.800     8527728.826 3   6644985.664 2
 91  8 10  2 26 30.0030000  0  5 21 23 03 11 17
  23093094.887   -10101770.526 3  -7871492.897 1
  21438376.035   -14001577.562 4 -10910295.467 2
  24651704.186    21670622.887 2  16886190.469 1
  25721099.249    -2244150.160 2  -1748687.144 1
  22546026.721     8567067.125 3   6675638.884 2
 91  8 10  2 26 45.0030000  0  5 21 23 03 11 17
  23087898.875   -10129073.328 3  -7892767.757 1
  21441388.327   -13985740.530 4 -10897954.921 2
  24664791.919    21739426.140 2  16939803.333 1
  25712598.654    -2288864.859 2  -1783529.866 1
  22553524.522     8606470.032 3   6706342.447 2
 91  8 10  2 27  0.0030000  0  5 21 23 03 11 17
  23082713.962   -10156303.166 3  -7913985.801 1
  21444418.941   -13969804.967 4 -10885537.597 2
  24677902.128    21808294.771 2  16993467.007 1
  25704087.834    -2333566.741 2  -1818362.421 1
  22561036.107     8645938.548 3   6737097.126 2
 91  8 10  2 27 15.0030000  0  5 21 23 03 11 17
  23077550.337   -10183461.070 3  -7935147.791 2
  21447474.125   -13953772.048 4 -10873044.405 2
  24691021.062    21877227.649 2  17047181.064 1
  25695591.428    -2378256.572 2  -1853185.775 1
  22568559.420     8685471.646 3   6767902.137 2
 91  8 10  2 27 30.0030000  0  5 21 23 03 11 17
  23072392.402   -10210547.040 3  -7956253.692 1
  21450540.093   -13937642.281 4 -10860475.752 2
  24704150.467    21946224.177 2  17100944.604 1
  25687093.207    -2422934.153 2  -1887999.306 1
  22576094.110     8725069.060 3   6798757.260 2
 91  8 10  2 27 45.0030000  0  5 21 23 03 11 17
  23067255.477   -10237562.538 3  -7977304.693 1
  21453625.850   -13921417.057 4 -10847832.709 2
  24717289.468    22015282.451 2  17154756.073 1
  25678581.793    -2467600.787 2  -1922804.390 1
  22583642.271     8764728.832 4   6829660.974 2
 91  8 10  2 28  0.0030000  0  5 21 23 03 11 17
  23062131.116   -10264503.305 3  -7998297.463 1
  21456732.617   -13905092.220 4 -10835112.054 2
  24730449.480    22084406.520 2  17208619.114 1
  25670089.575    -2512251.903 2  -1957597.418 1
  22591201.845     8804455.437 3   6860616.784 2
 91  8 10  2 28 15.0030000  0  5 21 23 03 11 17
  23057016.073   -10291368.875 3  -8019231.643 1
  21459860.359   -13888667.708 4 -10822313.727 3
  24743614.553    22153596.259 2  17262533.074 1
  25661604.232    -2556886.832 2  -1992377.847 1
  22598770.982     8844249.306 3   6891624.988 2
 91  8 10  2 28 30.0030000  0  5 21 23 03 11 17
  23051914.781   -10318164.124 3  -8040111.022 2
  21463003.981   -13872148.546 4 -10809441.657 3
  24756791.945    22222846.719 2  17316494.428 1
  25653094.040    -2601510.319 2  -2027149.271 1
  22606357.848     8884105.484 4   6922681.746 2
 91  8 10  2 28 45.0030000  0  5 21 23 03 11 17
  23046829.124   -10344887.623 3  -8060934.500 1
  21466167.671   -13855533.610 4 -10796494.953 2
  24769978.900    22292158.724 2  17370503.610 1
  25644606.324    -2646120.619 2  -2061910.445 1
  22613953.369     8924025.166 4   6953787.981 2
 91  8 10  2 29  0.0030000  0  5 21 23 03 11 17
  23041757.533   -10371540.000 3  -8081702.546 1
  21469345.181   -13838823.804 4 -10783474.318 2
  24783178.454    22361530.975 2  17424560.023 1
  25636121.295    -2690718.351 2  -2096661.942 1
  22621563.025     8964007.493 4   6984943.050 2
 91  8 10  2 29 15.0030000  0  5 21 23 03 11 17
  23036698.226   -10398118.000 3  -8102412.653 1
  21472543.666   -13822016.097 4 -10770377.406 2
  24796390.014    22430966.825 2  17478665.853 1
  25627643.735    -2735299.848 2  -2131400.697 1
  22629185.839     9004055.697 4   7016149.419 2
 91  8 10  2 29 30.0030000  0  5 21 23 03 11 17
  23031657.800   -10424624.073 3  -8123066.699 1
  21475757.752   -13805112.797 4 -10757205.995 2
  24809620.141    22500463.503 2  17532819.054 1
  25619169.211    -2779867.159 2  -2166128.382 1
  22636816.749     9044167.552 3   7047405.415 2
 91  8 10  2 29 45.0030000  0  5 21 23 03 11 17
  23026625.507   -10451059.065 3  -8143665.358 2
  21478993.092   -13788115.441 4 -10743961.295 2
  24822856.306    22570019.424 2  17587018.401 1
  25610685.997    -2824421.137 2  -2200845.802 1
  22644461.166     9084341.803 3   7078710.022 1
 91  8 10  2 30  0.0030000  0  5 21 23 03 11 17
  23021610.279   -10477419.986 3  -8164206.307 2
  21482246.441   -13771021.233 4 -10730641.128 3
  24836097.531    22639637.354 2  17641266.111 1
  25602208.158    -2868958.616 2  -2235550.244 1
  22652118.775     9124581.379 3   7110065.541 2
 91  8 10  2 30 15.0030000  0  5 21 23 03 11 17
  23016610.338   -10503706.352 3  -8184689.151 1
  21485521.672   -13753829.864 4 -10717245.265 2
  24849361.232    22709317.255 2  17695562.051 1
  25593737.229    -2913478.879 2  -2270241.488 1
  22659790.449     9164886.315 3   7141471.986 2
 91  8 10  2 30 30.0030000  0  5 21 23 03 11 17
  23011619.680   -10529922.267 3  -8205117.102 2
  21488809.503   -13736545.590 4 -10703776.996 2
  24862634.845    22779054.786 2  17749903.036 1
  25585269.895    -2957985.794 2  -2304922.009 1
  22667471.442     9205252.756 3   7172926.340 2
 91  8 10  2 30 45.0030000  0  5 21 23 03 11 17
  23006644.937   -10556061.179 3  -8225485.057 1
  21492115.307   -13719162.075 4 -10690231.395 2
  24875916.275    22848856.084 2  17804293.639 1
  25576801.932    -3002472.461 2  -2339586.806 1
  22675166.499     9245686.908 4   7204433.456 2
 91  8 10  2 31  0.0030000  0  5 21 23 03 11 17
  23001684.573   -10582126.971 3  -8245796.020 1
  21495443.901   -13701683.354 4 -10676611.609 2
  24889202.766    22918716.914 2  17858730.580 1
  25568346.011    -3046942.565 2  -2374238.927 1
  22682870.561     9286184.874 3   7235990.310 2
 91  8 10  2 31 15.0030000  0  5 21 23 03 11 17
  22996739.775   -10608120.135 3  -8266050.401 1
  21498787.502   -13684110.303 4 -10662918.324 3
  24902511.454    22988636.444 2  17913213.233 1
  25559876.582    -3091396.292 2  -2408878.086 1
  22690587.536     9326746.038 3   7267596.405 2
 91  8 10  2 31 30.0030000  0  5 21 23 03 11 17
  22991807.297   -10634040.762 3  -8286248.236 1
  21502149.357   -13666443.378 4 -10649151.890 2
  24915831.519    23058613.941 2  17967741.154 1
  25551423.627    -3135833.758 2  -2443504.605 1
  22698322.485     9367370.113 3   7299251.533 2
 91  8 10  2 31 45.0030000  0  5 21 23 03 11 17
  22986888.324   -10659889.755 3  -8306390.279 1
  21505527.719   -13648683.507 4 -10635313.020 2
  24929156.994    23128648.117 2  18022313.166 1
  25542974.860    -3180255.456 2  -2478118.993 1
  22706060.435     9408056.172 3   7330954.938 2
 91  8 10  2 32  0.0030000  0  5 21 23 03 11 17
  22981982.789   -10685661.123 3  -8326471.843 2
  21508925.590   -13630824.885 4 -10621397.206 2
  24942501.350    23198744.912 2  18076934.125 1
  25534522.533    -3224655.192 2  -2512716.077 1
  22713816.952     9448809.908 3   7362711.101 2
 91  8 10  2 32 15.0030000  0  5 21 23 03 11 17
  22977092.889   -10711363.181 3  -8346499.377 1
  21512344.123   -13612876.007 4 -10607411.074 2
  24955845.741    23268895.521 2  18131596.735 1
  25526081.269    -3269040.895 2  -2547302.097 1
  22721585.161     9489623.108 3   7394513.566 1
 91  8 10  2 32 30.0030000  0  5 21 23 03 11 17
  22972217.682   -10736990.730 3  -8366468.868 1
  21515774.626   -13594832.018 4 -10593350.823 2
  24969205.384    23339104.622 2  18186305.184 1
  25517628.000    -3313407.268 2  -2581873.530 1
  22729362.688     9530500.723 3   7426366.244 2
 91  8 10  2 32 45.0030000  0  5 21 23 03 11 17
  22967352.631   -10762543.847 3  -8386380.347 2
  21519230.048   -13576693.246 4 -10579216.704 2
  24982576.718    23409371.772 2  18241058.791 1
  25509192.460    -3357754.185 2  -2616429.451 1
  22737154.000     9571442.874 3   7458269.223 2
 91  8 10  2 33  0.0030000  0  5 21 23 03 11 17
  22962504.088   -10788025.773 3  -8406236.360 2
  21522698.663   -13558463.110 4 -10565011.403 2
  24995960.057    23479693.482 2  18295854.986 1
  25500762.888    -3402084.658 2  -2650972.807 1
  22744953.096     9612445.854 3   7490219.588 1
 91  8 10  2 33 15.0030000  0  5 21 23 03 11 17
  22957666.644   -10813435.301 3  -8426035.944 1
  21526182.250   -13540140.504 4 -10550734.045 2
  25009346.992    23550070.647 2  18350694.211 1
  25492322.846    -3446396.986 2  -2685501.750 1
  22752772.294     9653510.964 3   7522218.319 2
 91  8 10  2 33 30.0030000  0  5 21 23 03 11 17
  22952846.579   -10838768.408 3  -8445775.985 1
  21529686.498   -13521721.698 4 -10536381.720 2
  25022750.400    23620506.682 2  18405579.347 1
  25483889.365    -3490686.965 2  -2720013.246 1
  22760598.961     9694641.921 3   7554268.447 2
 91  8 10  2 33 45.0030000  0  5 21 23 03 11 17
  22948041.208   -10864028.223 3  -8465458.936 2
  21533210.570   -13503210.174 4 -10521957.147 2
  25036164.312    23690998.164 2  18460507.771 1
  25475469.391    -3534957.579 2  -2754509.940 1
  22768437.634     9735835.539 3   7586367.361 2
 91  8 10  2 34  0.0030000  0  5 21 23 03 11 17
  22943251.123   -10889212.137 3  -8485082.745 2
  21536751.428   -13484603.497 4 -10507458.450 2
  25049592.324    23761547.435 2  18515481.139 1
  25467052.418    -3579205.967 2  -2788989.107 1
  22776285.904     9777094.439 3   7618517.148 2
 91  8 10  2 34 15.0030000  0  5 21 23 03 11 17
  22938471.544   -10914322.442 3  -8504649.186 2
  21540309.946   -13465904.020 4 -10492887.428 2
  25063027.840    23832151.567 2  18570497.444 1
  25458632.164    -3623434.254 2  -2823452.646 1
  22784152.777     9818416.113 3   7650715.833 2
 91  8 10  2 34 30.0030000  0  5 21 23 03 11 17
  22933705.715   -10939358.753 3  -8524157.963 1
  21543885.566   -13447111.638 4 -10478244.002 2
  25076474.420    23902810.764 2  18625556.583 1
  25450216.692    -3667641.827 2  -2857899.927 1
  22792025.617     9859800.767 3   7682963.614 1
 91  8 10  2 34 45.0030000  0  5 21 23 03 11 17
  22928953.706   -10964321.094 3  -8543609.106 1
  21547480.101   -13428226.817 4 -10463528.549 2
  25089929.410    23973524.428 2  18680658.046 1
  25441807.816    -3711828.400 2  -2892331.105 1
  22799913.743     9901248.278 3   7715260.379 2
 91  8 10  2 35  0.0030000  0  5 21 23 03 11 17
  22924219.986   -10989211.169 3  -8563003.925 2
  21551085.979   -13409251.271 4 -10448742.409 2
  25103400.874    24044290.704 2  18735800.645 1
  25433408.817    -3755995.340 2  -2926746.964 1
  22807815.691     9942757.016 3   7747604.842 1
 91  8 10  2 35 15.0030000  0  5 21 23 03 11 17
  22919495.549   -11014027.853 3  -8582341.593 2
  21554721.278   -13390184.166 4 -10433884.921 2
  25116877.747    24115110.172 2  18790984.521 1
  25425008.945    -3800141.471 2  -2961146.444 1
  22815722.105     9984327.808 3   7779997.646 2
 91  8 10  2 35 30.0030000  0  5 21 23 03 11 17
  22914791.214   -11038772.196 3  -8601622.862 2
  21558364.640   -13371026.788 4 -10418957.079 2
  25130363.624    24185981.509 2  18846208.873 1
  25416611.761    -3844267.463 2  -2995530.232 1
  22823645.621    10025959.588 3   7812437.999 2
 91  8 10  2 35 45.0030000  0  5 21 23 03 11 17
  22910096.163   -11063440.024 3  -8620844.515 1
  21562028.418   -13351774.990 4 -10403955.683 2
  25143861.158    24256908.578 2  18901476.759 1
  25408220.858    -3888368.720 2  -3029894.910 1
  22831583.236    10067656.554 3   7844929.152 2
 91  8 10  2 36  0.0030000  0  5 21 23 03 11 17
  22905417.027   -11088035.970 3  -8640010.167 1
  21565710.169   -13332433.736 4 -10388884.575 2
  25157364.136    24327886.155 2  18956783.914 1
  25399831.177    -3932449.720 2  -3064243.674 1
  22839526.226    10109413.776 3   7877467.236 2
 91  8 10  2 36 15.0030000  0  5 21 23 03 11 17
  22900748.047   -11112560.593 3  -8659120.214 1
  21569405.707   -13313003.904 4 -10373744.441 2
  25170879.365    24398913.470 2  19012129.809 1
  25391445.371    -3976510.896 2  -3098576.945 1
  22847487.818    10151230.438 3   7910051.643 1
 91  8 10  2 36 30.0030000  0  5 21 23 03 11 17
  22896094.353   -11137009.787 3  -8678171.522 1
  21573121.346   -13293481.823 4 -10358532.422 2
  25184408.414    24469994.236 2  19067517.344 1
  25383064.659    -4020547.955 2  -3132891.551 1
  22855451.504    10193110.718 3   7942685.606 2
 91  8 10  2 36 45.0030000  0  5 21 23 03 11 17
  22891455.073   -11161384.606 3  -8697164.850 1
  21576853.739   -13273868.567 4 -10343249.360 2
  25197945.839    24541126.980 2  19122945.539 1
  25374686.077    -4064561.532 2  -3167187.741 1
  22863433.758    10235053.444 3   7975368.241 2
 91  8 10  2 37  0.0030000  0  5 21 23 03 11 17
  22886833.487   -11185687.598 3  -8716102.222 1
  21580603.860   -13254166.737 4 -10327897.284 2
  25211494.956    24612308.669 2  19178411.748 1
  25366316.778    -4108554.021 2  -3201467.472 1
  22871430.425    10277055.800 3   8008097.356 2
 91  8 10  2 37 15.0030000  0  5 21 23 03 11 17
  22882222.965   -11209915.830 3  -8734981.340 2
  21584367.768   -13234373.729 4 -10312474.150 2
  25225048.575    24683541.820 2  19233918.050 1
  25357951.353    -4152522.101 2  -3235728.427 1
  22879433.409    10319120.726 3   8040875.215 2
 91  8 10  2 37 30.0030000  0  5 21 23 03 11 17
  22877623.263   -11234070.896 3  -8753803.455 1
  21588153.243   -13214491.289 4 -10296981.335 3
  25238610.570    24754824.581 2  19289463.052 1
  25349585.649    -4196466.976 2  -3269971.082 1
  22887447.735    10361246.660 3   8073700.608 2
 91  8 10  2 37 45.0030000  0  5 21 23 03 11 17
  22873041.533   -11258150.590 3  -8772566.832 1
  21591952.819   -13194517.693 4 -10281417.494 2
  25252189.387    24826158.848 2  19345048.130 1
  25341231.636    -4240386.359 2  -3304194.030 1
  22895477.383    10403435.604 3   8106575.121 2
 91  8 10  2 38  0.0030000  0  5 21 23 03 11 17
  22868474.776   -11282154.711 3  -8791271.329 1
  21595772.462   -13174452.887 4 -10265782.572 2
  25265770.264    24897544.256 2  19400673.052 1
  25332878.217    -4284279.853 2  -3338396.688 1
  22903514.220    10445687.510 3   8139498.659 2
 91  8 10  2 38 15.0030000  0  5 21 23 03 11 17
  22863922.119   -11306080.388 3  -8809914.680 2
  21599606.798   -13154294.246 4 -10250074.539 2
  25279361.366    24968983.338 2  19456339.771 1
  25324538.583    -4328144.331 2  -3372576.646 1
  22911570.253    10488005.210 3   8172473.493 2
 91  8 10  2 38 30.0030000  0  5 21 23 03 11 17
  22859384.469   -11329933.353 3  -8828501.383 2
  21603457.922   -13134047.699 4 -10234298.002 2
  25292964.753    25040470.083 2  19512043.687 1
  25316189.666    -4371985.233 2  -3406738.521 1
  22919634.662    10530382.916 3   8205495.081 1
 91  8 10  2 38 45.0030000  0  5 21 23 03 11 17
  22854858.511   -11353709.059 3  -8847027.889 2
  21607330.649   -13113708.927 4 -10218449.604 2
  25306578.017    25112008.530 2  19567788.121
  25307858.723    -4415797.748 2  -3440878.005 1
  22927708.668    10572824.822 3   8238566.683 2
 91  8 10  2 39  0.0030000  0  5 21 23 03 11 17
  22850347.839   -11377410.299 3  -8865496.365 1
  21611220.477   -13093280.992 4 -10202531.724 2
  25320196.690    25183595.460 2  19623570.021 1
  25299528.094    -4459584.392 2  -3474997.345 1
  22935800.090    10615328.257 3   8271686.225 1
 91  8 10  2 39 15.0030000  0  5 21 23 03 11 17
  22845852.733   -11401040.427 3  -8883909.434 2
  21615121.961   -13072767.336 4 -10186547.063 2
  25333829.149    25255227.225 2  19679386.886 1
  25291192.369    -4503348.260 2  -3509099.148 1
  22943899.573    10657889.621 3   8304850.921 2
 91  8 10  2 39 30.0040000  0  5 21 23 03 11 17
  22841369.339   -11424595.353 3  -8902263.895 2
  21619040.254   -13052161.059 4 -10170490.225 2
  25347470.912    25326914.030 2  19735246.769 1
  25282865.634    -4547086.314 2  -3543180.579 1
  22952009.269    10700517.549 3   8338067.489 2
 91  8 10  2 39 45.0040000  0  5 21 23 03 11 17
  22836900.059   -11448072.530 3  -8920557.784 1
  21622983.724   -13031465.872 4 -10154364.100 2
  25361128.255    25398645.229 2  19791141.171 1
  25274549.105    -4590792.993 2  -3577237.830 1
  22960134.230    10743205.717 3   8371330.994 1
 91  8 10  2 40  0.0040000  0  5 21 23 03 11 17
  22832449.939   -11471474.353 3  -8938792.954 1
  21626936.478   -13010681.475 4 -10138168.467 2
  25374775.094    25470424.456 2  19847072.977 1
  25266238.543    -4634471.754 2  -3611273.218 1
  22968265.787    10785955.814 3   8404642.734 2
 91  8 10  2 40 15.0040000  0  5 21 23 03 11 17
  22828007.009   -11494800.260 3  -8956968.954 1
  21630907.519   -12989807.343 4 -10121902.908 2
  25388449.852    25542251.711 2  19903042.221 1
  25257938.801    -4678121.789 2  -3645286.120 1
  22976414.166    10828768.259 3   8438003.078 1
 91  8 10  2 40 30.0040000  0  5 21 23 03 11 17
  22823584.775   -11518051.027 3  -8975086.435 1
  21634898.070   -12968844.708 4 -10105568.396 2
  25402119.166    25614126.012 2  19959048.147 1
  25249633.056    -4721743.576 2  -3679277.154 1
  22984576.610    10871642.272 3   8471411.380 2
 91  8 10  2 40 45.0040000  0  5 21 23 03 11 17
  22819176.606   -11541229.281 3  -8993147.402 2
  21638903.313   -12947796.169 4 -10089166.927 2
  25415813.085    25686044.346 2  20015088.441 1
  25241334.779    -4765339.433 2  -3713247.874 1
  22992744.743    10914575.191 3   8504865.590 2
 91  8 10  2 41  0.0040000  0  5 21 23 03 11 17
  22814780.163   -11564329.387 3  -9011147.464 1
  21642923.215   -12926656.383 4 -10072694.361 2
  25429511.820    25758011.969 2  20071166.973 1
  25233042.540    -4808903.548 2  -3747193.836 1
  23000928.197    10957572.330 3   8538369.866 1
 91  8 10  2 41 15.0040000  0  5 21 23 03 11 17
  22810400.193   -11587354.157 3  -9029088.822 2
  21646965.314   -12905428.389 4 -10056153.071 2
  25443218.023    25830025.575 2  20127281.513 1
  25224757.770    -4852438.496 2  -3781117.181 1
  23009121.528    11000630.920 3   8571922.000 2
 91  8 10  2 41 30.0040000  0  5 21 23 03 11 17
  22806030.414   -11610304.667 3  -9046972.324 1
  21651019.418   -12884113.440 4 -10039544.021 2
  25456929.637    25902083.890 2  20183430.766 1
  25216479.596    -4895944.953 2  -3815018.262 1
  23017326.550    11043749.730 3   8605521.068 1
 91  8 10  2 41 45.0040000  0  5 21 23 03 11 17
  22801679.831   -11633182.007 3  -9064798.814 2
  21655092.997   -12862713.119 4 -10022868.448 2
  25470645.752    25974185.184 2  20239613.731 1
  25208211.614    -4939423.911 2  -3848897.919 1
  23025541.450    11086927.557 3   8639166.131 1
 91  8 10  2 42  0.0040000  0  5 21 23 03 11 17
  22797334.343   -11655986.917 3  -9082568.853 2
  21659182.456   -12841228.316 4 -10006127.038 2
  25484371.151    26046328.386 2  20295829.299 1
  25199942.130    -4982875.800 2  -3882756.540 1
  23033771.636    11130163.396 3   8672856.371 1
 91  8 10  2 42 15.0040000  0  5 21 23 03 11 17
  22793010.737   -11678719.073 3  -9100282.201 1
  21663286.014   -12819658.830 4  -9989319.651 2
  25498106.113    26118513.592 2  20352077.351 1
  25191676.555    -5026299.995 2  -3916593.501 1
  23042007.266    11173457.783 3   8706592.259 1
 91  8 10  2 42 30.0040000  0  5 21 23 03 11 17
  22788700.603   -11701372.669 3  -9117934.348 2
  21667407.267   -12797999.085 4  -9972441.929 2
  25511855.803    26190746.264 2  20408362.576 1
  25183418.798    -5069690.364 2  -3950404.226 1
  23050255.740    11216816.165 3   8740378.012 1
 91  8 10  2 42 45.0040000  0  5 21 23 03 11 17
  22784406.698   -11723949.825 3  -9135526.922 2
  21671546.214   -12776251.248 4  -9955495.550 2
  25525608.494    26263023.741 2  20464682.487 1
  25175174.477    -5113048.606 2  -3984189.762 1
  23058523.129    11260236.303 3   8774211.903 1
 91  8 10  2 43  0.0040000  0  5 21 23 03 11 17
  22780121.134   -11746452.100 3  -9153061.157 1
  21675701.041   -12754417.336 4  -9938482.113 2
  25539369.875    26335344.161 2  20521036.225 1
  25166920.594    -5156376.082 2  -4017951.331 1
  23066795.300    11303716.750 3   8808092.760 1
 91  8 10  2 43 15.0040000  0  5 21 23 03 11 17
  22775852.706   -11768880.160 3  -9170537.531 2
  21679871.434   -12732498.110 4  -9921402.201 2
  25553141.412    26407706.532 2  20577422.349 1
  25158691.595    -5199673.236 2  -4051689.414 1
  23075083.944    11347256.687 3   8842019.973 1
 91  8 10  2 43 30.0040000  0  5 21 23 03 11 17
  22771597.156   -11791232.724 3  -9187955.116 2
  21684059.835   -12710492.524 4  -9904254.997 2
  25566915.393    26480111.771 2  20633841.806 1
  25150445.809    -5242938.488 2  -4085402.540 1
  23083378.626    11390857.303 3   8875994.453 1
 91  8 10  2 43 45.0040000  0  5 21 23 03 11 17
  22767359.894   -11813507.287 3  -9205311.884 2
  21688263.523   -12688398.502 4  -9887038.869 2
  25580711.535    26552561.885 2  20690296.369
  25142219.811    -5286168.981 2  -4119088.612 1
  23091687.966    11434520.794 3   8910017.954 1
 91  8 10  2 44  0.0040000  0  5 21 23 03 11 17
  22763136.104   -11835706.456 3  -9222609.918 2
  21692486.092   -12666218.662 4  -9869755.880 2
  25594510.085    26625053.891 2  20746783.533 1
  25134009.693    -5329367.156 2  -4152749.473 1
  23100006.590    11478244.421 3   8944088.318 2
 91  8 10  2 44 15.0040000  0  5 21 23 03 11 17
  22758926.414   -11857832.597 3  -9239851.057 1
  21696720.387   -12643955.667 4  -9852408.097 2
  25608309.229    26697584.886 2  20803301.058 1
  25125794.759    -5372535.114 2  -4186386.742 1
  23108338.126    11522025.807 3   8978203.667 2
 91  8 10  2 44 30.0040000  0  5 21 23 03 11 17
  22754728.729   -11879881.190 3  -9257031.765 2
  21700975.343   -12621605.102 4  -9834992.073 2
  25622109.000    26770159.383 2  20859852.690 1
  25117582.861    -5415667.944 2  -4219996.913 1
  23116682.541    11565869.492 3   9012367.584 1
 91  8 10  2 44 45.0040000  0  5 21 23 03 11 17
  22750549.018   -11901858.445 3  -9274156.894 2
  21705240.491   -12599173.534 4  -9817512.923 2
  25635938.996    26842770.628 2  20916433.097 1
  25109383.527    -5458771.577 2  -4253583.959 1
  23125034.180    11609769.104 3   9046575.076 1
 91  8 10  2 45  0.0040000  0  5 21 23 03 11 17
  22746381.312   -11923757.404 3  -9291221.010 2
  21709529.615   -12576654.146 4  -9799965.341 2
  25649762.430    26915425.299 2  20973046.952 1
  25101189.917    -5501838.748 2  -4287142.753 1
  23133401.665    11653731.448 3   9080831.434 2
 91  8 10  2 45 15.0040000  0  5 21 23 03 11 17
  22742230.080   -11945581.725 3  -9308226.944 2
  21713830.430   -12554050.743 4  -9782352.304 2
  25663591.274    26988119.176 2  21029691.365 1
  25092993.584    -5544872.895 2  -4320675.946 1
  23141776.687    11697752.822 3   9115133.792 1
 91  8 10  2 45 30.0040000  0  5 21 23 03 11 17
  22738089.632   -11967330.278 3  -9325173.858 2
  21718148.033   -12531362.401 4  -9764673.084 2
  25677432.996    27060853.225 2  21086367.244 1
  25084816.133    -5587872.575 2  -4354182.043 1
  23150163.366    11741834.338 3   9149483.019 2
 91  8 10  2 45 45.0040000  0  5 21 23 03 11 17
  22733965.692   -11989003.888 3  -9342062.343 2
  21722479.456   -12508590.253 4  -9746928.551 2
  25691281.000    27133626.045 2  21143073.205 1
  25076632.714    -5630838.410 2  -4387661.812 1
  23158567.461    11785974.849 3   9183878.228 1
 91  8 10  2 46  0.0040000  0  5 21 23 03 11 17
  22729857.631   -12010602.959 3  -9358892.767 2
  21726828.539   -12485735.077 4  -9729119.326 2
  25705139.510    27206436.840 2  21199808.900 1
  25068468.176    -5673770.497 2  -4421115.459 1
  23166979.618    11830173.789 3   9218318.959 2
 91  8 10  2 46 15.0040000  0  5 21 23 03 11 17
  22725757.982   -12032127.317 3  -9375664.993 2
  21731195.910   -12462796.688 4  -9711245.248 2
  25718995.611    27279285.637 2  21256574.233 1
  25060308.105    -5716668.134 2  -4454542.089 1
  23175402.000    11874431.596 3   9252805.543 2
 91  8 10  2 46 30.0040000  0  5 21 23 03 11 17
  22721676.027   -12053577.299 3  -9392379.258 2
  21735574.972   -12439775.718 4  -9693306.825 2
  25732862.810    27352171.576 2  21313368.447 1
  25052152.850    -5759531.456 2  -4487942.148 1
  23183831.572    11918747.550 3   9287337.469 2
 91  8 10  2 46 45.0040000  0  4 21 23 11 17
  22717610.510   -12074950.008 3  -9409033.314 2
  21739976.231   -12416669.410 4  -9675301.910 2
  25043995.188    -5802357.220 2  -4521312.779 1
  23192273.429    11963124.767 3   9321917.105 2
 91  8 10  2 47  0.0040000  0  4 21 23 11 17
  22713557.348   -12096248.694 3  -9425629.662 2
  21744385.273   -12393481.268 4  -9657233.234 3
  25035850.752    -5845148.419 2  -4554656.516 1
  23200731.480    12007559.540 3   9356541.582 1
 91  8 10  2 47 15.0040000  0  4 21 23 11 17
  22709517.623   -12117471.674 3  -9442167.032 2
  21748812.602   -12370209.979 4  -9639099.762 2
  25027711.377    -5887903.082 2  -4587971.913 1
  23209195.813    12052053.320 3   9391212.063 1
 91  8 10  2 47 30.0040000  0  4 21 23 11 17
  22705493.812   -12138616.909 3  -9458643.803 2
  21753254.346   -12346853.713 4  -9620900.074 2
  25019587.882    -5930619.092 2  -4621256.974 1
  23217675.432    12096608.255 3   9425930.184 1
 91  8 10  2 47 45.0040000  0  4 21 23 11 17
  22701491.290   -12159684.228 3  -9475059.868 2
  21757718.844   -12323412.482 4  -9602634.179 2
  25011470.704    -5973295.921 2  -4654511.748 1
  23226167.650    12141224.437 3   9460696.050 1
 91  8 10  2 48  0.0040000  0  4 21 23 11 17
  22697488.141   -12180676.101 3  -9491417.149 2
  21762196.256   -12299888.702 4  -9584303.961 2
  25003354.154    -6015935.532 2  -4687737.297 1
  23234669.780    12185899.329 3   9495507.649 1
 91  8 10  2 48 15.0040000  0  4 21 23 11 17
  22693511.725   -12201593.639 3  -9507716.509 2
  21766687.733   -12276283.892 4  -9565910.597 2
  24995240.571    -6058538.652 2  -4720934.484 1
  23243182.694    12230631.668 3   9530364.019 1
 91  8 10  2 48 30.0040000  0  4 21 23 11 17
  22689544.871   -12222438.257 3  -9523959.054 2
  21771193.903   -12252599.455 4  -9547455.187 2
  24987147.055    -6101106.383 2  -4754104.158 1
  23251703.077    12275420.205 3   9565264.167 2
 91  8 10  2 48 45.0040000  0  4 21 23 11 17
  22685593.584   -12243204.823 3  -9540140.779 2
  21775721.676   -12228830.704 4  -9528934.090 2
  24979057.762    -6143633.321 2  -4787241.930 1
  23260239.375    12320269.800 3   9600211.906 2
 91  8 10  2 49  0.0040000  0  4 21 23 11 17
  22681653.429   -12263897.992 3  -9556265.294 1
  21780253.044   -12204982.761 4  -9510351.281 2
  24970974.438    -6186124.031 2  -4820351.551 1
  23268782.862    12365175.463 3   9635203.315 1
 91  8 10  2 49 15.0040000  0  4 21 23 11 17
  22677732.749   -12284515.781 3  -9572331.080 2
  21784808.388   -12181053.572 4  -9491705.158 2
  24962889.054    -6228576.232 2  -4853431.160 1
  23277339.227    12410139.041 3   9670239.880 1
 91  8 10  2 49 30.0040000  0  4 21 23 11 17
  22673823.447   -12305054.913 3  -9588335.588 2
  21789375.738   -12157039.971 4  -9472993.261 2
  24954821.050    -6270986.180 2  -4886477.791 1
  23285909.413    12455164.032 3   9705324.281 1
 91  8 10  2 49 45.0040000  0  4 21 23 11 17
  22669926.429   -12325520.266 3  -9604282.596 2
  21793963.470   -12132947.257 4  -9454219.724 2
  24946756.607    -6313358.678 2  -4919495.390 1
  23294488.568    12500245.441 3   9740452.617 2
 91  8 10  2 50  0.0040000  0  4 21 23 11 17
  22666046.513   -12345907.757 3  -9620168.931 2
  21798562.266   -12108771.526 4  -9435381.484 2
  24938703.296    -6355689.273 2  -4952480.153 1
  23303078.822    12545387.047 3   9775627.893 1
 91  8 10  2 50 15.0040000  0  4 21 23 11 17
  22662188.200   -12366215.621 3  -9635993.211 2
  21803179.070   -12084511.229 4  -9416477.354 2
  24930661.049    -6397975.653 2  -4985430.551 1
  23311676.858    12590590.486 3   9810851.349 2
 91  8 10  2 50 30.0040000  0  4 21 23 11 17
  22658340.043   -12386444.900 3  -9651756.279 2
  21807810.881   -12060167.579 4  -9397508.265 2
  24922617.022    -6440218.597 2  -5018347.128 1
  23320294.404    12635854.932 3   9846122.332 1
 91  8 10  2 50 45.0040000  0  4 21 23 11 17
  22654500.925   -12406601.613 3  -9667462.792 2
  21812459.445   -12035746.777 4  -9378479.087 2
  24914585.001    -6482423.878 2  -5051234.309 1
  23328914.637    12681173.992 3   9881435.882 1
 91  8 10  2 51  0.0040000  0  4 21 23 11 17
  22650676.780   -12426681.229 3  -9683109.234 2
  21817123.329   -12011244.615 4  -9359386.492 2
  24906560.135    -6524586.811 2  -5084088.596 1
  23337552.844    12726551.993 3   9916795.338 1
 91  8 10  2 51 15.0040000  0  4 21 23 11 17
  22646871.481   -12446684.926 3  -9698696.520 2
  21821798.278   -11986662.465 4  -9340231.569 2
  24898542.213    -6566708.196 2  -5116910.352 1
  23346196.774    12771987.743 3   9952199.805 1
 91  8 10  2 51 30.0040000  0  4 21 23 11 17
  22643080.037   -12466611.091 3  -9714223.365 2
  21826493.049   -11961998.771 4  -9321013.107 2
  24890540.451    -6608785.880 2  -5149698.049 1
  23354855.363    12817483.032 3   9987650.683 1
 91  8 10  2 51 45.0040000  0  4 21 23 11 17
  22639304.438   -12486459.325 3  -9729689.505 2
  21831203.387   -11937253.393 4  -9301730.991 2
  24882536.280    -6650819.214 2  -5182451.355 1
  23363522.956    12863038.041 3  10023148.087 1
 91  8 10  2 52  0.0040000  0  4 21 23 11 17
  22635535.435   -12506232.743 3  -9745097.348 2
  21835927.789   -11912429.675 4  -9282387.836 2
  24874546.210    -6692811.030 2  -5215172.176 1
  23372208.243    12908649.453 3  10058689.440 1
 91  8 10  2 52 15.0040000  0  4 21 23 11 17
  22631791.945   -12525931.809 3  -9760447.230 2
  21840663.638   -11887528.141 4  -9262984.028 2
  24866560.641    -6734761.507 2  -5247860.797 1
  23380892.937    12954316.732 3  10094274.323 2
 91  8 10  2 52 30.0040000  0  4 21 23 11 17
  22628053.829   -12545554.256 3  -9775737.443 2
  21845418.334   -11862546.823 4  -9243518.075 2
  24858594.547    -6776668.037 2  -5280515.225 1
  23389596.513    13000042.049 3  10129904.432 1
 91  8 10  2 52 45.0040000  0  4 21 23 11 17
  22624339.096   -12565100.646 3  -9790968.371 2
  21850187.723   -11837486.576 4  -9223990.619 2
  24850622.764    -6818530.795 2  -5313135.502 1
  23398306.998    13045824.676 3  10165579.187 1
 91  8 10  2 53  0.0040000  0  4 21 23 11 17
  22620636.963   -12584569.769 3  -9806139.101 1
  21854969.117   -11812346.647 4  -9204401.053 2
  24842665.674    -6860348.451 2  -5345720.475 1
  23407031.235    13091665.899 3  10201299.615 1
 91  8 10  2 53 15.0040000  0  4 21 23 11 17
  22616938.703   -12603963.534 3  -9821251.118 2
  21859771.208   -11787128.977 4  -9184750.923 2
  24834719.368    -6902122.487 2  -5378271.869 1
  23415765.418    13137563.592 3  10237064.023 1
 91  8 10  2 53 30.0040000  0  4 21 23 11 17
  22613265.956   -12623281.143 3  -9836303.770 2
  21864583.769   -11761832.865 4  -9165039.665 2
  24826771.876    -6943851.710 2  -5410788.108 1
  23424507.349    13183518.391 3  10272872.955 1
 91  8 10  2 53 45.0040000  0  4 21 23 11 17
  22609603.400   -12642521.159 3  -9851295.971 2
  21869411.930   -11736457.009 4  -9145266.271 2
  24818842.078    -6985534.409 2  -5443268.134 1
  23433265.194    13229531.688 3  10308727.487 1
 91  8 10  2 54  0.0040000  0  4 21 23 11 17
  22605957.910   -12661684.943 3  -9866228.766 2
  21874256.878   -11711003.110 4  -9125432.051 2
  24810921.843    -7027171.666 2  -5475712.661 1
  23442031.730    13275602.004 3  10344626.425 1
 91  8 10  2 54 15.0040000  0  4 21 23 11 17
  22602327.147   -12680768.212 3  -9881098.823 2
  21879116.205   -11685467.201 4  -9105533.942 2
  24803014.521    -7068758.661 2  -5508118.114 1
  23450806.956    13321733.594 3  10380573.089 2
 91  8 10  2 54 30.0040000  0  4 21 23 11 17
  22598705.041   -12699778.061 3  -9895911.671 2
  21883990.225   -11659856.364 4  -9085577.453 2
  24795108.700    -7110302.350 2  -5540489.811 1
  23459600.155    13367919.122 3  10416561.808 1
 91  8 10  2 54 45.0040000  0  4 21 23 11 17
  22595107.818   -12718712.061 3  -9910665.419 2
  21888877.438   -11634168.419 4  -9065560.862 2
  24787200.192    -7151799.943 2  -5572825.535 1
  23468396.670    13414161.065 3  10452594.508 1
 91  8 10  2 55  0.0040000  0  4 21 23 11 17
  22591521.728   -12737567.698 3  -9925358.108 2
  21893780.251   -11608401.169 4  -9045482.493 2
  24779319.848    -7193248.657 2  -5605123.272 1
  23477209.379    13460461.818 3  10488672.988 1
 91  8 10  2 55 15.0040000  0  4 21 23 11 17
  22587944.294   -12756350.260 3  -9939993.852 2
  21898698.630   -11582560.137 4  -9025346.626 2
  24771442.471    -7234653.424 3  -5637386.687 1
  23486025.962    13506816.359 3  10524793.407 1
 91  8 10  2 55 30.0040000  0  4 21 23 11 17
  22584383.054   -12775058.877 3  -9954571.970 2
  21903629.922   -11556644.649 4  -9005152.731 2
  24763566.036    -7276013.020 2  -5669614.960 1
  23494865.335    13553224.984 3  10560955.956 1
 91  8 10  2 55 45.0040000  0  4 21 23 11 17
  22580836.820   -12793689.442 3  -9969089.281 2
  21908574.127   -11530650.685 4  -8984897.687 2
  24755712.391    -7317323.011 2  -5701804.497 1
  23503705.616    13599691.618 3  10597163.705 1
 91  8 10  2 56  0.0040000  0  4 21 23 11 17
  22577304.966   -12812244.879 3  -9983548.045 2
  21913535.992   -11504581.418 4  -8964583.972 2
  24747860.211    -7358586.044 2  -5733957.433 1
  23512556.087    13646213.542 3  10633414.561 1
 91  8 10  2 56 15.0040000  0  4 21 23 11 17
  22573790.492   -12830723.222 3  -9997946.738 2
  21918516.144   -11478435.221 4  -8944210.317 3
  24740014.942    -7399799.868 2  -5766072.144 1
  23521421.251    13692792.363 3  10669709.721 1
 91  8 10  2 56 30.0040000  0  4 21 23 11 17
  22570288.024   -12849122.799 3 -10012284.050 2
  21923501.986   -11452210.456 4  -8923775.440 2
  24732180.179    -7440962.271 3  -5798146.683 1
  23530297.514    13739429.984 3  10706050.725 1
 91  8 10  2 56 45.0040000  0  4 21 23 11 17
  22566801.715   -12867443.792 4 -10026560.132 2
  21928507.301   -11425907.474 4  -8903279.605 2
  24724359.166    -7482073.188 3  -5830181.142 1
  23539180.966    13786126.012 3  10742437.254 1
 91  8 10  2 57  0.0040000  0  4 21 23 11 17
  22563329.540   -12885694.215 3 -10040781.217 2
  21933523.750   -11399534.531 4  -8882729.254 2
  24716548.378    -7523140.300 3  -5862181.507 1
  23548078.518    13832872.424 3  10778863.019 1
 91  8 10  2 57 15.0040000  0  4 21 23 11 17
  22559872.617   -12903864.516 3 -10054939.869 2
  21938559.360   -11373082.251 4  -8862117.088 2
  24708742.686    -7564153.676 3  -5894139.938 1
  23556981.130    13879678.549 3  10815335.327 1
 91  8 10  2 57 30.0040000  0  4 21 23 11 17
  22556428.608   -12921959.095 3 -10069039.525 2
  21943607.568   -11346555.383 4  -8841446.802 2
  24700938.181    -7605117.480 2  -5926059.766 1
  23565899.971    13926539.608 3  10851850.426 1
 91  8 10  2 57 45.0040000  0  4 21 23 11 17
  22552998.383   -12939981.463 3 -10083082.925 2
  21948671.342   -11319957.451 4  -8820721.137 2
  24693158.874    -7646034.953 2  -5957943.470 1
  23574830.783    13973452.072 3  10888405.567 1
 91  8 10  2 58  0.0040000  0  4 21 23 11 17
  22549584.632   -12957922.962 3 -10097063.293 2
  21953745.935   -11293280.053 4  -8799933.557 2
  24685381.382    -7686897.016 3  -5989784.069 1
  23583767.598    14020424.767 3  10925007.676 1
 91  8 10  2 58 15.0040000  0  4 21 23 11 17
  22546185.609   -12975788.257 3 -10110984.295 2
  21958834.907   -11266527.924 4  -8779087.750 2
  24677618.234    -7727707.664 2  -6021584.532 1
  23592721.515    14067453.152 3  10961653.163 1
 91  8 10  2 58 30.0040000  0  4 21 23 11 17
  22542799.743   -12993572.294 3 -10124841.969 2
  21963942.796   -11239696.512 4  -8758180.151 2
  24669861.996    -7768461.823 2  -6053340.945 1
  23601676.896    14114542.017 3  10998345.773 1
 91  8 10  2 58 45.0040000  0  4 21 23 11 17
  22539432.165   -13011281.071 3 -10138641.001 2
  21969063.841   -11212792.025 4  -8737215.622 2
  24662114.169    -7809165.045 2  -6085057.770 1
  23610647.600    14161685.271 3  11035080.756 1
 91  8 10  2 59  0.0040000  0  4 21 23 11 17
  22536078.408   -13028914.860 4 -10152381.602 2
  21974198.079   -11185814.716 4  -8716194.350 2
  24654378.034    -7849817.309 2  -6116734.771 1
  23619630.553    14208882.324 3  11071857.700 1
 91  8 10  2 59 15.0040000  0  4 21 23 11 17
  22532738.995   -13046471.826 4 -10166062.337 2
  21979342.508   -11158763.049 4  -8695115.131 2
  24646653.590    -7890416.416 3  -6148370.461 1
  23628621.952    14256135.051 3  11108677.996 1
 91  8 10  2 59 30.0040000  0  4 21 23 11 17
  22529409.528   -13063950.639 4 -10179682.184 2
  21984509.448   -11131635.915 4  -8673977.092 2
  24638941.118    -7930960.791 3  -6179963.448 1
  23637625.601    14303444.651 3  11145542.605 1
 91  8 10  2 59 45.0040000  0  4 21 23 11 17
  22526102.502   -13081349.020 4 -10193239.346 2
  21989684.170   -11104431.128 4  -8652778.559 2
  24631230.145    -7971447.849 2  -6211511.753 1
  23646639.477    14350813.124 3  11182453.095 1
 91  8 10  3  0  0.0040000  0  4 21 23 11 17
  22522796.977   -13098671.061 3 -10206737.017 2
  21994874.179   -11077153.154 4  -8631523.003 2
  24623541.684    -8011881.280 2  -6243018.348 1
  23655662.635    14398236.389 3  11219406.287 1
 91  8 10  3  0 15.0040000  0  4 21 23 11 17
  22519520.873   -13115917.960 3 -10220176.164 2
  22000080.347   -11049803.372 4  -8610211.486 2
  24615857.097    -8052261.948 2  -6274483.736 1
  23664701.080    14445713.368 3  11256401.311 1
 91  8 10  3  0 30.0040000  0  4 21 23 11 17
  22516252.518   -13133087.345 4 -10233554.864 2
  22005296.740   -11022379.641 4  -8588842.339 2
  24608184.201    -8092587.133 2  -6305905.911 1
  23673743.992    14493246.340 3  11293439.987 1
 91  8 10  3  0 45.0040000  0  4 21 23 11 17
  22513001.577   -13150181.791 4 -10246875.212 2
  22010529.328   -10994884.792 4  -8567417.785 2
  24600514.028    -8132859.135 2  -6337286.687 1
  23682795.630    14540832.320 3  11330519.974 1
 91  8 10  3  1  0.0040000  0  4 21 23 11 17
  22509764.422   -13167198.218 4 -10260134.746 2
  22015778.109   -10967315.786 4  -8545935.448 2
  24592859.734    -8173074.448 2  -6368623.229 1
  23691864.962    14588474.438 3  11367643.685 1
 91  8 10  3  1 15.0040000  0  4 21 23 11 17
  22506541.960   -13184135.887 4 -10273332.916 2
  22021035.860   -10939671.923 4  -8524394.772 2
  24585226.695    -8213231.902 2  -6399914.829 1
  23700944.170    14636173.533 3  11404811.781 1
 91  8 10  3  1 30.0040000  0  4 21 23 11 17
  22503329.654   -13200994.920 3 -10286469.803 2
  22026312.491   -10911953.760 4  -8502796.199 2
  24577594.877    -8253331.408 2  -6431161.064 1
  23710025.194    14683929.065 3  11442023.875 1
 91  8 10  3  1 45.0040000  0  4 21 23 11 17
  22500140.173   -13217778.086 3 -10299547.570 2
  22031600.256   -10884164.225 4  -8481142.027 2
  24569976.252    -8293375.348 3  -6462364.054 1
  23719128.972    14731738.398 3  11479277.879 1
 91  8 10  3  2  0.0040000  0  4 21 23 11 17
  22496956.695   -13234485.751 3 -10312566.514 2
  22036897.584   -10856303.892 4  -8459432.672 2
  24562367.224    -8333363.706 2  -6493523.855 1
  23728233.972    14779600.967 3  11516573.385 1
 91  8 10  3  2 15.0040000  0  4 21 23 11 17
  22493793.564   -13251115.363 4 -10325524.639 2
  22042215.887   -10828370.138 4  -8437666.111 2
  24554759.697    -8373293.406 2  -6524637.818 1
  23737354.259    14827519.263 3  11553912.283 1
 91  8 10  3  2 30.0040000  0  4 21 23 11 17
  22490641.845   -13267668.228 3 -10338422.962 2
  22047542.321   -10800364.492 4  -8415843.531 2
  24547175.553    -8413165.443 3  -6555706.900 1
  23746482.642    14875491.974 3  11591293.624 1
 91  8 10  3  2 45.0040000  0  4 21 23 11 17
  22487510.822   -13284144.775 3 -10351261.817 2
  22052887.916   -10772287.917 4  -8393965.686 2
  24539597.098    -8452980.062 3  -6586731.259 1
  23755623.031    14923518.573 3  11628716.952 1
 91  8 10  3  3  0.0040000  0  4 21 23 11 17
  22484388.176   -13300544.185 3 -10364040.545 2
  22058244.610   -10744139.722 4  -8372032.022 2
  24532039.025    -8492736.169 3  -6617709.998 1
  23764769.389    14971599.667 3  11666182.727 1
 91  8 10  3  3 15.0040000  0  4 21 23 11 17
  22481281.723   -13316863.137 3 -10376756.597 2
  22063612.087   -10715916.756 4  -8350040.093 2
  24524480.672    -8532429.977 3  -6648640.226 1
  23773931.660    15019738.654 3  11703693.590 1
 91  8 10  3  3 30.0040000  0  4 21 23 11 17
  22478190.277   -13333106.640 3 -10389413.861 2
  22069000.261   -10687624.175 4  -8327993.930 2
  24516933.697    -8572066.062 3  -6679525.455 1
  23783103.809    15067930.538 3  11741245.733 1
 91  8 10  3  3 45.0040000  0  4 21 23 11 17
  22475112.303   -13349273.315 3 -10402011.258 2
  22074395.310   -10659260.677 4  -8305892.505 2
  24509408.605    -8611642.748 3  -6710364.369 1
  23792284.927    15116176.368 3  11778839.866 1
 91  8 10  3  4  0.0040000  0  4 21 23 11 17
  22472053.838   -13365361.579 4 -10414547.550 2
  22079809.554   -10630825.016 4  -8283734.848 2
  24501885.013    -8651158.126 3  -6741155.558 1
  23801471.768    15164477.562 3  11816477.132 1
 91  8 10  3  4 15.0040000  0  4 21 23 11 17
  22469005.529   -13381373.810 3 -10427024.586 2
  22085231.023   -10602319.951 4  -8261523.105 2
  24494384.805    -8690614.182 3  -6771900.451 1
  23810678.119    15212831.910 3  11854155.867 1
 91  8 10  3  4 30.0040000  0  4 21 23 11 17
  22465970.134   -13397307.437 3 -10439440.387 2
  22090671.931   -10573742.869 4  -8239255.251 2
  24486885.190    -8730007.887 3  -6802596.789 1
  23819887.437    15261241.555 3  11891877.668 1
 91  8 10  3  4 45.0040000  0  4 21 23 11 17
  22462957.214   -13413164.815 3 -10451796.777 2
  22096121.878   -10545096.406 4  -8216933.331 2
  24479393.358    -8769341.376 3  -6833246.287 1
  23829110.540    15309704.050 3  11929640.637 1
 91  8 10  3  5  0.0040000  0  4 21 23 11 17
  22459954.206   -13428945.593 3 -10464093.468 2
  22101585.576   -10516380.377 4  -8194557.202 2
  24471923.443    -8808613.992 3  -6863848.250 1
  23838341.461    15358219.828 3  11967445.145 1
 91  8 10  3  5 15.0040000  0  4 21 23 11 17
  22456963.169   -13444649.308 4 -10476330.112 2
  22107062.187   -10487594.275 4  -8172126.474 2
  24464456.809    -8847824.811 3  -6894402.120 1
  23847586.761    15406789.367 3  12005291.501 1
 91  8 10  3  5 30.0040000  0  4 21 23 11 17
  22453990.141   -13460273.552 4 -10488504.831 2
  22112556.493   -10458736.101 4  -8149639.590 2
  24457009.370    -8886971.029 3  -6924905.641 1
  23856838.657    15455415.067 3  12043181.657 1
 91  8 10  3  5 45.0040000  0  4 21 23 11 17
  22451032.084   -13475824.725 3 -10500622.623 2
  22118060.082   -10429812.535 4  -8127101.752 2
  24449576.904    -8926058.748 3  -6955363.542 1
  23866107.026    15504090.176 3  12081110.294 1
 91  8 10  3  6  0.0040000  0  4 21 23 11 17
  22448086.627   -13491297.551 3 -10512679.359 2
  22123577.178   -10400818.351 4  -8104508.878 2
  24442152.534    -8965082.291 3  -6985771.499 1
  23875372.114    15552819.957 3  12119081.583 1
 91  8 10  3  6 15.0040000  0  4 21 23 11 17
  22445154.956   -13506691.443 3 -10524674.577 2
  22129107.152   -10371753.280 4  -8081860.778 2
  24434736.296    -9004040.748 3  -7016128.662 1
  23884657.305    15601604.688 3  12157095.653 1
 91  8 10  3  6 30.0040000  0  4 21 23 11 17
  22442242.759   -13522006.779 4 -10536608.585 2
  22134653.006   -10342617.775 4  -8059157.782 2
  24427333.809    -9042934.048 3  -7046435.075 1
  23893953.560    15650444.213 3  12195152.394 1
 91  8 10  3  6 45.0040000  0  4 21 23 11 17
  22439343.161   -13537241.267 4 -10548479.604 2
  22140209.050   -10313409.639 4  -8036398.190 2
  24419943.328    -9081759.551 3  -7076688.731 1
  23903257.911    15699340.757 3  12233253.594 1
 91  8 10  3  7  0.0040000  0  4 21 23 11 17
  22436459.757   -13552397.135 4 -10560289.368 2
  22145782.196   -10284131.440 4  -8013584.017 2
  24412573.543    -9120519.146 3  -7106890.924 1
  23912570.080    15748291.889 3  12271397.314 1
 91  8 10  3  7 15.0040000  0  4 21 23 11 17
  22433589.859   -13567477.919 4 -10572040.609 2
  22151366.126   -10254786.879 4  -7990718.128 2
  24405205.537    -9159216.198 3  -7137044.510 1
  23921894.534    15797293.839 3  12309580.639 1
 91  8 10  3  7 30.0040000  0  4 21 23 11 17
  22430736.434   -13582482.766 4 -10583732.678 2
  22156960.561   -10225375.357 4  -7967800.067 2
  24397854.005    -9197849.452 3  -7167148.290 1
  23931229.738    15846347.539 3  12347804.312 1
 91  8 10  3  7 45.0040000  0  4 21 23 11 17
  22427895.888   -13597404.441 4 -10595359.939 2
  22162574.471   -10195889.980 4  -7944824.443 2
  24390517.794    -9236411.252 3  -7197196.390 1
  23940576.074    15895460.105 3  12386073.803 1
 91  8 10  3  8  0.0040000  0  4 21 23 11 17
  22425070.348   -13612250.727 4 -10606928.462 2
  22168195.884   -10166338.331 4  -7921797.191 2
  24383194.181    -9274908.939 3  -7227194.600 1
  23949932.602    15944623.629 3  12424383.060 1
 91  8 10  3  8 15.0040000  0  4 21 23 11 17
  22422258.002   -13627020.403 4 -10618437.288 2
  22173832.584   -10136719.653 4  -7898717.701 2
  24375877.724    -9313340.948 3  -7257141.583 1
  23959295.726    15993839.152 2  12462732.797 1
 91  8 10  3  8 30.0040000  0  4 21 23 11 17
  22419467.537   -13641713.520 4 -10629886.461 2
  22179484.255   -10107034.042 4  -7875586.061 2
  24368577.181    -9351706.779 3  -7287036.990 1
  23968671.449    16043106.739 3  12501123.138 1
 91  8 10  3  8 45.0040000  0  4 21 23 11 17
  22416684.542   -13656328.978 4 -10641275.108 2
  22185144.059   -10077280.688 4  -7852401.626 2
  24361292.832    -9390005.089 3  -7316879.842 1
  23978056.420    16092427.390 3  12539554.789 1
 91  8 10  3  9  0.0040000  0  4 21 23 11 17
  22413917.461   -13670867.122 4 -10652603.513 2
  22190819.114   -10047460.007 4  -7829164.722 2
  24354014.451    -9428235.962 3  -7346670.078 1
  23987449.837    16141800.572 3  12578027.413 1
 91  8 10  3  9 15.0040000  0  4 21 23 11 17
  22411166.573   -13685323.738 4 -10663868.396 2
  22196504.081   -10017567.913 4  -7805872.208 2
  24346749.297    -9466394.783 3  -7376404.226 1
  23996856.726    16191230.324 3  12616544.062 1
 91  8 10  3  9 30.0040000  0  4 21 23 11 17
  22408428.285   -13699705.022 3 -10675074.567 2
  22202207.615    -9987610.845 4  -7782529.048 2
  24339504.211    -9504487.131 3  -7406086.542 1
  24006273.492    16240710.664 3  12655100.186 1
 91  8 10  3  9 45.0040000  0  4 21 23 11 17
  22405704.062   -13714009.114 3 -10686220.607 2
  22207921.060    -9957587.144 4  -7759133.950 2
  24332264.534    -9542510.863 3  -7435715.421 1
  24015700.483    16290243.276 3  12693697.037 1
 91  8 10  3 10  0.0040000  0  4 21 23 11 17
  22402997.812   -13728234.509 3 -10697305.310 2
  22213645.918    -9927495.622 4  -7735686.012 2
  24325046.112    -9580464.289 3  -7465289.517 1
  24025138.852    16339829.487 3  12732335.631 1
 91  8 10  3 10 15.0040000  0  4 21 23 11 17
  22400306.884   -13742380.327 4 -10708328.021 2
  22219383.341    -9897335.362 4  -7712184.509 2
  24317840.324    -9618346.108 3  -7494807.773 1
  24034581.410    16389469.878 3  12771016.450 1
 91  8 10  3 10 30.0040000  0  4 21 23 11 17
  22397622.238   -13756490.992 4 -10719323.341 2
  22225128.266    -9867151.007 4  -7688664.212 2
  24310636.002    -9656200.362 3  -7524304.608 1
  24044029.062    16439120.162 3  12809704.969 1
 91  8 10  3 10 45.0040000  0  4 21 23 11 17
  22394949.004   -13770548.242 4 -10730277.019 2
  22230882.476    -9836924.657 4  -7665111.217 2
  24303437.682    -9694008.473 3  -7553765.414 1
  24053486.626    16488798.516 3  12848415.406 1
 91  8 10  3 11  0.0040000  0  4 21 23 11 17
  22392286.240   -13784526.514 4 -10741169.171 2
  22236647.190    -9806630.964 4  -7641505.747 2
  24296262.153    -9731744.417 3  -7583170.052 1
  24062942.969    16538530.371 3  12887167.471 1
 91  8 10  3 11 15.0040000  0  4 21 23 11 17
  22389640.264   -13798423.084 3 -10751997.643 2
  22242423.875    -9776267.501 4  -7617845.911 2
  24289092.312    -9769405.144 3  -7612516.065 1
  24072420.008    16588318.131 3  12925963.115 1
 91  8 10  3 11 30.0040000  0  4 21 23 11 17
  22387016.205   -13812235.736 4 -10762760.729 2
  22248214.974    -9745831.808 4  -7594129.791 2
  24281945.575    -9806987.978 3  -7641801.346 1
  24081906.330    16638164.148 2  12964804.182 1
 91  8 10  3 11 45.0040000  0  4 21 23 11 17
  22384402.895   -13825964.739 4 -10773458.641 2
  22254021.953    -9715324.493 4  -7570357.849 2
  24274803.899    -9844492.834 3  -7671025.941 1
  24091401.971    16688068.379 2  13003690.576 1
 91  8 10  3 12  0.0040000  0  4 21 23 11 17
  22381801.591   -13839613.063 4 -10784093.695 2
  22259843.032    -9684748.855 4  -7546532.676 2
  24267687.421    -9881922.475 3  -7700191.833 1
  24100912.898    16738027.282 2  13042619.580 1
 91  8 10  3 12 15.0040000  0  4 21 23 11 17
  22379220.704   -13853183.240 4 -10794667.848 2
  22265671.614    -9654107.450 4  -7522656.260 2
  24260572.165    -9919278.923 3  -7729300.795 1
  24110421.696    16788038.360 2  13081589.252 1
 91  8 10  3 12 30.0040000  0  4 21 23 11 17
  22376653.254   -13866671.957 4 -10805178.514 2
  22271516.041    -9623397.200 4  -7498726.183 2
  24253476.662    -9956558.512 3  -7758349.770 2
  24119956.286    16838104.931 2  13120602.150 1
 91  8 10  3 12 45.0040000  0  4 21 23 11 17
  22374102.625   -13880079.506 4 -10815625.941 2
  22277371.880    -9592618.681 4  -7474742.930 2
  24246401.261    -9993761.169 3  -7787338.868 1
  24129493.598    16888226.542 2  13159657.938 1
 91  8 10  3 13  0.0040000  0  4 21 23 11 17
  22371568.784   -13893405.406 4 -10826009.750 2
  22283242.447    -9561771.494 4  -7450706.169 2
  24239333.958   -10030886.054 3  -7816267.351 1
  24139039.600    16938403.290 2  13198756.712 1
 91  8 10  3 13 15.0040000  0  4 21 23 11 17
  22369054.417   -13906619.648 4 -10836306.550 2
  22289128.545    -9530825.868 4  -7426592.693 2
  24232289.131   -10067902.791 3  -7845111.526 1
  24148605.076    16988665.352 2  13237921.947 1
 91  8 10  3 13 30.0040000  0  4 21 23 11 17
  22366554.743   -13919756.772 4 -10846543.250 2
  22295030.558    -9499816.448 4  -7402429.504 2
  24225257.810   -10104845.398 3  -7873897.962 1
  24158178.929    17038978.113 2  13277126.696 1
 91  8 10  3 13 45.0040000  0  4 21 23 11 17
  22364067.668   -13932814.590 4 -10856718.168 2
  22300942.762    -9468741.075 4  -7378214.931 2
  24218245.649   -10141711.286 3  -7902624.600 1
  24167766.008    17089343.807 3  13316372.649 1
 91  8 10  3 14  0.0040000  0  4 21 23 11 17
  22361601.289   -13945795.562 4 -10866833.188 2
  22306869.972    -9437602.539 4  -7353951.129 2
  24211245.494   -10178502.637 3  -7931293.209 1
  24177362.372    17139759.557 2  13355657.657 1
 91  8 10  3 14 15.0040000  0  4 21 23 11 17
  22359142.972   -13958703.225 4 -10876891.102 2
  22312807.374    -9406404.521 4  -7329640.986 2
  24204257.625   -10215222.464 3  -7959906.044 1
  24186963.202    17190222.089 2  13394979.095 1
 91  8 10  3 14 30.0040000  0  4 21 23 11 17
  22356703.571   -13971529.835 4 -10886885.848 2
  22318759.434    -9375139.279 4  -7305278.474 2
  24197282.982   -10251862.657 3  -7988456.830 1
  24196575.759    17240739.147 3  13434343.054 1
 91  8 10  3 14 45.0040000  0  4 21 23 11 17
  22354277.956   -13984278.462 4 -10896819.841 2
  22324717.532    -9343810.159 4  -7280866.175 2
  24190322.683   -10288425.956 3  -8016947.696 1
  24206197.007    17291307.472 2  13473746.904 1
 91  8 10  3 15  0.0040000  0  4 21 23 11 17
  22351867.907   -13996950.101 4 -10906693.826 2
  22330689.694    -9312418.488 4  -7256405.133 2
  24183379.486   -10324912.966 3  -8045379.097 1
  24215827.224    17341925.919 2  13513189.870 1
 91  8 10  3 15 15.0040000  0  4 21 23 11 17
  22349469.898   -14009543.900 4 -10916507.165 2
  22336675.328    -9280963.741 4  -7231894.929 2
  24176453.390   -10361322.699 3  -8073750.329 1
  24225473.355    17392595.171 3  13552672.379 1
 91  8 10  3 15 30.0040000  0  4 21 23 11 17
  22347087.419   -14022060.358 4 -10926260.250 2
  22342675.690    -9249446.317 4  -7207335.910 2
  24169536.263   -10397655.105 3  -8102061.255 1
  24235122.174    17443314.558 2  13592193.967 1
 91  8 10  3 15 45.0040000  0  4 21 23 11 17
  22344718.762   -14034496.674 4 -10935950.867 2
  22348683.521    -9217863.576 4  -7182725.979 2
  24162640.147   -10433906.972 3  -8130309.433 1
  24244785.685    17494086.892 2  13631756.824 1
 91  8 10  3 16  0.0040000  0  4 21 23 11 17
  22342368.706   -14046854.058 4 -10945579.992 2
  22354707.266    -9186217.146 4  -7158066.415 2
  24155754.221   -10470079.218 3  -8158495.602 1
  24254453.699    17544910.729 3  13671359.755 1
 91  8 10  3 16 15.0040000  0  4 21 23 11 17
  22340031.214   -14059135.927 4 -10955150.265 2
  22360739.388    -9154510.574 4  -7133360.007 2
  24148883.861   -10506174.885 3  -8186622.047 1
  24264134.906    17595782.611 2  13711000.202 1
 91  8 10  3 16 30.0040000  0  4 21 23 11 17
  22337707.543   -14071346.080 4 -10964664.659 2
  22366786.796    -9122747.596 4  -7108609.646 2
  24142032.417   -10542197.191 3  -8214691.384 1
  24273825.081    17646698.962 3  13750675.271 1
 91  8 10  3 16 45.0050000  0  4 21 23 11 17
  22335395.236   -14083476.863 4 -10974117.222 2
  22372844.101    -9090917.771 4  -7083807.184 2
  24135194.744   -10578139.654 3  -8242698.452 1
  24283526.969    17697671.476 3  13790394.093 1
 91  8 10  3 17  0.0050000  0  4 21 23 11 17
  22333103.010   -14095533.109 4 -10983511.685 2
  22378910.390    -9059032.094 4  -7058961.194 2
  24128373.279   -10614003.688 3  -8270644.456 1
  24293231.559    17748686.823 2  13830146.306 1
 91  8 10  3 17 15.0050000  0  4 21 23 11 17
  22330825.792   -14107513.146 4 -10992846.773 2
  22384992.908    -9027086.148 4  -7034068.256 2
  24121563.786   -10649788.838 3  -8298528.955 1
  24302947.526    17799750.837 2  13869936.459 1
 91  8 10  3 17 30.0050000  0  4 21 23 11 17
  22328559.357   -14119416.965 4 -11002122.460 2
  22391081.987    -8995080.062 4  -7009128.449 2
  24114768.392   -10685494.681 3  -8326351.639 1
  24312673.998    17850863.306 2  13909764.316 1
 91  8 10  3 17 45.0050000  0  4 21 23 11 17
  22326311.211   -14131244.285 4 -11011338.535 2
  22397182.757    -8963013.802 4  -6984141.751 2
  24107984.689   -10721120.592 3  -8354112.099 1
  24322408.253    17902024.222 2  13949629.962 1
 91  8 10  3 18  0.0050000  0  4 21 23 11 17
  22324072.662   -14142995.498 4 -11020495.331 2
  22403294.906    -8930887.964 4  -6959108.621 2
  24101218.088   -10756666.519 3  -8381810.179 1
  24332158.388    17953233.265 2  13989533.085 1
 91  8 10  3 18 15.0050000  0  4 21 23 11 17
  22321850.900   -14154672.325 4 -11029594.140 2
  22409421.188    -8898704.454 4  -6934030.577 2
  24094469.147   -10792133.833 3  -8409446.981 1
  24341911.838    18004488.591 2  14029472.307 1
 91  8 10  3 18 30.0050000  0  4 21 23 11 17
  22319642.645   -14166272.779 4 -11038633.438 2
  22415554.626    -8866461.446 4  -6908906.159 2
  24087738.807   -10827520.090 3  -8437020.731 1
  24351667.103    18055792.021 2  14069448.986 1
 91  8 10  3 18 45.0050000  0  4 21 23 11 17
  22317448.141   -14177797.164 4 -11047613.467 2
  22421701.884    -8834159.469 4  -6883735.784 2
  24081018.344   -10862825.328 3  -8464531.241 1
  24361446.310    18107143.399 2  14109463.068 1
 91  8 10  3 19  0.0050000  0  4 21 23 11 17
  22315271.645   -14189242.067 4 -11056531.569 2
  22427861.427    -8801795.106 4  -6858516.800 2
  24074319.206   -10898045.830 3  -8491975.789 1
  24371232.148    18158545.707 2  14149516.764 1
 91  8 10  3 19 15.0050000  0  4 21 23 11 17
  22313110.749   -14200609.108 4 -11065388.990 2
  22434030.532    -8769370.155 4  -6833250.616 2
  24067631.410   -10933182.560 3  -8519355.005 1
  24381017.078    18209997.662 2  14189609.180 1
 91  8 10  3 19 30.0050000  0  4 21 23 11 17
  22310961.860   -14211896.164 4 -11074184.095 2
  22440212.551    -8736882.776 4  -6807935.757 2
  24060963.751   -10968233.075 3  -8546667.036 1
  24390819.389    18261501.146 2  14229741.780 1
 91  8 10  3 19 45.0050000  0  4 21 23 11 17
  22308828.815   -14223108.899 4 -11082921.275 2
  22446404.482    -8704338.578 4  -6782576.640 2
  24054311.344   -11003202.715 3  -8573916.103 1
  24400627.109    18313050.233 2  14269909.876
 91  8 10  3 20  0.0050000  0  4 21 23 11 17
  22306710.777   -14234242.119 4 -11091596.500 2
  22452612.571    -8671732.711 4  -6757169.471 2
  24047667.034   -11038085.853 3  -8601097.722 1
  24410448.615    18364649.744 2  14310117.271 1
 91  8 10  3 20 15.0050000  0  4 21 23 11 17
  22304603.559   -14245299.321 4 -11100212.481 2
  22458827.292    -8639068.793 4  -6731717.074 2
  24041043.420   -11072885.567 3  -8628214.383 1
  24420277.590    18416296.781 2  14350361.714 1
 91  8 10  3 20 30.0050000  0  4 21 23 11 17
  22302516.687   -14256284.855 4 -11108772.635 2
  22465054.262    -8606351.118 4  -6706222.783 2
  24034439.595   -11107605.866 3  -8655269.120 1
  24430116.791    18467986.762 2  14390639.586 1
 91  8 10  3 20 45.0050000  0  4 21 23 11 17
  22300437.633   -14267191.595 4 -11117271.380 2
  22471289.958    -8573572.936 4  -6680681.352 2
  24027853.150   -11142239.169 3  -8682256.071 1
  24439956.864    18519726.646 2  14430956.421 1
 91  8 10  3 21  0.0050000  0  4 21 23 11 17
  22298375.053   -14278022.494 4 -11125711.035 2
  22477540.626    -8540737.470 4  -6655095.261 2
  24021277.210   -11176788.007 3  -8709177.237 1
  24449815.260    18571513.304 2  14471309.622 1
 91  8 10  3 21 15.0050000  0  4 21 23 11 17
  22296331.981   -14288776.111 4 -11134090.457 2
  22483798.204    -8507843.460 4  -6629463.563 2
  24014719.557   -11211250.653 3  -8736031.198 1
  24459676.622    18623348.292 2  14511700.512 1
 91  8 10  3 21 30.0050000  0  4 21 23 11 17
  22294301.160   -14299451.304 4 -11142408.783 2
  22490068.661    -8474889.816 4  -6603785.401 2
  24008172.375   -11245625.612 3  -8762816.870 1
  24469549.676    18675232.303 2  14552129.579 1
 91  8 10  3 21 45.0050000  0  4 21 23 11 17
  22292285.380   -14310051.509 4 -11150668.677 2
  22496348.994    -8441880.091 4  -6578063.543 2
  24001652.485   -11279915.969 3  -8789536.602 1
  24479431.734    18727161.947 2  14592594.281 1
 91  8 10  3 22  0.0050000  0  4 21 23 11 17
  22290280.664   -14320571.892 4 -11158866.368 2
  22502644.649    -8408809.666 4  -6552294.384 2
  23995139.227   -11314116.339 3  -8816186.209 1
  24489320.982    18779141.968 2  14633098.150 1
 91  8 10  3 22 15.0050000  0  4 21 23 11 17
  22288295.144   -14331012.701 4 -11167002.065 2
  22508948.994    -8375679.171 4  -6526478.409 2
  23988649.909   -11348226.675 3  -8842765.697 1
  24499221.642    18831171.969 2  14673640.975 1
 91  8 10  3 22 30.0050000  0  4 21 23 11 17
  22286317.999   -14341375.660 4 -11175077.076 2
  22515264.123    -8342490.211 4  -6500616.885 2
  23982173.470   -11382248.328 3  -8869276.026 1
  24509132.179    18883250.262 2  14714221.484 1
 91  8 10  3 22 45.0050000  0  4 21 23 11 17
  22284364.866   -14351662.888 4 -11183093.083 2
  22521590.630    -8309245.092 4  -6474711.604 2
  23975715.075   -11416182.936 3  -8895718.552 1
  24519052.907    18935374.865 2  14754838.063 1
 91  8 10  3 23  0.0050000  0  4 21 23 11 17
  22282420.702   -14361871.401 4 -11191047.764 2
  22527927.048    -8275940.884 4  -6448760.262 2
  23969275.212   -11450027.072 3  -8922090.608 1
  24528980.546    18987548.655 2  14795492.940 1
 91  8 10  3 23 15.0050000  0  4 21 23 11 17
  22280495.734   -14372003.404 4 -11198942.815 2
  22534275.158    -8242580.081 4  -6422764.835 2
  23962856.952   -11483782.748 3  -8948393.683 2
  24538917.747    19039768.885 2  14836184.006 1
 91  8 10  3 23 30.0050000  0  4 21 23 11 17
  22278582.143   -14382058.870 4 -11206778.242 2
  22540634.331    -8209163.028 4  -6396725.584 2
  23956452.199   -11517449.358 3  -8974627.407 1
  24548863.673    19092035.614 2  14876911.338 1
 91  8 10  3 23 45.0050000  0  4 21 23 11 17
  22276677.871   -14392038.862 4 -11214554.845 2
  22547004.324    -8175690.742 4  -6370643.288 2
  23950061.231   -11551027.701 3  -9000792.312 1
  24558816.195    19144347.956 2  14917674.160 1
 91  8 10  3 24  0.0050000  0  4 21 23 11 17
  22274799.390   -14401938.570 4 -11222268.898 2
  22553386.008    -8142158.620 4  -6344514.365 2
  23943689.423   -11584512.658 3  -9026884.466 1
  24568783.375    19196710.205 2  14958475.887 1
 91  8 10  3 24 15.0050000  0  4 21 23 11 17
  22272925.969   -14411760.475 4 -11229922.321 2
  22559776.383    -8108569.240 4  -6318340.823 2
  23937332.344   -11617906.143 3  -9052905.370 1
  24578760.782    19249120.159 2  14999314.801 1
 91  8 10  3 24 30.0050000  0  4 21 23 11 17
  22271073.559   -14421505.328 4 -11237515.707 2
  22566178.170    -8074923.544 4  -6292123.399 2
  23930999.520   -11651208.556 3  -9078855.238 1
  24588737.874    19301577.072 2  15040190.305 1
 91  8 10  3 24 45.0050000  0  4 21 23 11 17
  22269233.747   -14431172.630 4 -11245048.653 2
  22572594.615    -8041221.230 4  -6265861.857 2
  23924679.296   -11684419.020 3  -9104733.532 1
  24598731.439    19354081.071 2  15081102.527 1
 91  8 10  3 25  0.0050000  0  4 21 23 11 17
  22267412.503   -14440762.040 4 -11252520.902 2
  22579017.063    -8007462.237 4  -6239556.149 2
  23918371.356   -11717536.736 3  -9130539.532 1
  24608734.637    19406632.440 2  15122051.556 1
 91  8 10  3 25 15.0050000  0  4 21 23 11 17
  22265600.856   -14450270.521 4 -11259930.109 2
  22585453.924    -7973643.439 4  -6213203.846 2
  23912091.895   -11750558.316 3  -9156270.634 1
  24618741.394    19459234.152 2  15163039.915 1
 91  8 10  3 25 30.0050000  0  4 21 23 11 17
  22263804.182   -14459705.218 4 -11267281.816 2
  22591897.662    -7939772.132 4  -6186810.620 2
  23905827.442   -11783490.372 3  -9181931.960 1
  24628763.159    19511879.026 2  15204061.872 1
 91  8 10  3 25 45.0050000  0  4 21 23 11 17
  22262021.921   -14469065.038 4 -11274575.179 2
  22598353.090    -7905847.387 4  -6160375.766 2
  23899574.680   -11816331.433 3  -9207522.362 1
  24638781.329    19564568.324 2  15245118.472 1
 91  8 10  3 26  0.0050000  0  4 21 23 11 17
  22260258.542   -14478350.680 4 -11281810.736 2
  22604816.895    -7871870.025 4  -6133899.900 2
  23893339.577   -11849081.864 3  -9233042.169 1
  24648822.289    19617301.058 2  15286208.930 1
 91  8 10  3 26 15.0050000  0  4 21 23 11 17
  22258505.353   -14487557.061 4 -11288984.525 2
  22611295.742    -7837835.241 4  -6107379.295 2
  23887128.800   -11881736.331 3  -9258487.184 1
  24658856.339    19670081.924 2  15327336.835 1
 91  8 10  3 26 30.0050000  0  4 21 23 11 17
  22256768.359   -14496682.087 4 -11296094.923 2
  22617784.745    -7803741.147 4  -6080812.466 2
  23880934.776   -11914292.192 3  -9283855.370 1
  24668919.146    19722913.112 2  15368504.009 1
 91  8 10  3 26 45.0050000  0  4 21 23 11 17
  22255044.556   -14505727.222 4 -11303143.081 2
  22624284.533    -7769589.389 4  -6054200.710 2
  23874756.352   -11946750.583 3  -9309147.633 1
  24678976.894    19775793.179 2  15409709.206 1
 91  8 10  3 27  0.0050000  0  4 21 23 11 17
  22253343.230   -14514694.677 4 -11310130.691 2
  22630791.230    -7735382.098 4  -6027545.681 2
  23868602.498   -11979113.248 3  -9334365.257 1
  24689053.836    19828719.962 2  15450950.852 1
 91  8 10  3 27 15.0050000  0  4 21 23 11 17
  22251650.908   -14523584.820 4 -11317058.072 2
  22637312.900    -7701119.941 4  -6000847.904 2
  23862459.148   -12011380.268 3  -9359508.402 1
  24699131.337    19881692.871 2  15492228.466 1
 91  8 10  3 27 30.0050000  0  4 21 23 11 17
  22249971.778   -14532394.975 4 -11323923.114 2
  22643845.983    -7666800.476 4  -5974105.461 2
  23856336.216   -12043548.590 3  -9384574.590 2
  24709220.878    19934714.422 2  15533543.948 1
 91  8 10  3 27 45.0050000  0  4 21 23 11 17
  22248310.308   -14541129.706 4 -11330729.388 2
  22650383.881    -7632428.297 4  -5947321.944 2
  23850236.039   -12075622.315 3  -9409567.095 1
  24719319.354    19987779.910 2  15574893.666 1
 91  8 10  3 28  0.0050000  0  4 21 23 11 17
  22246662.065   -14549781.701 4 -11337471.191 2
  22656934.623    -7597996.341 4  -5920491.860 2
  23844147.553   -12107593.708 3  -9434479.871 2
  24729428.684    20040896.595 2  15616283.284 1
 91  8 10  3 28 15.0050000  0  4 21 23 11 17
  22245029.981   -14558362.777 4 -11344157.733 2
  22663497.999    -7563516.540 4  -5893624.467 2
  23838081.822   -12139474.248 3  -9459321.817 1
  24739543.074    20094052.775 2  15657703.669 1
 91  8 10  3 28 30.0050000  0  4 21 23 11 17
  22243413.812   -14566863.927 4 -11350781.996 2
  22670066.750    -7528979.955 4  -5866712.842 2
  23832036.823   -12171254.433 3  -9484085.593 2
  24749666.155    20147257.234 2  15699161.654 1
 91  8 10  3 28 45.0050000  0  4 21 23 11 17
  22241810.521   -14575284.704 4 -11357343.628 2
  22676651.380    -7494386.424 4  -5839756.852 2
  23826006.795   -12202933.505 3  -9508770.572 1
  24759803.336    20200510.230 2  15740657.532 1
 91  8 10  3 29  0.0050000  0  4 21 23 11 17
  22240227.018   -14583623.436 4 -11363841.328 2
  22683245.608    -7459734.445 4  -5812755.323 2
  23819995.963   -12234509.456 3  -9533375.200 2
  24769946.240    20253813.199 2  15782192.261 1
 91  8 10  3 29 15.0050000  0  4 21 23 11 17
  22238651.613   -14591888.171 4 -11370281.378 2
  22689850.341    -7425031.960 4  -5785714.422 2
  23814005.199   -12265989.831 3  -9557905.339 1
  24780096.298    20307158.258 2  15823759.831 1
 91  8 10  3 29 30.0050000  0  4 21 23 11 17
  22237092.366   -14600077.513 4 -11376662.670 2
  22696462.263    -7390277.893 4  -5758633.319 2
  23808037.852   -12297372.866 3  -9582359.616 1
  24790254.454    20360546.645 2  15865361.162 1
 91  8 10  3 29 45.0050000  0  4 21 23 11 17
  22235552.942   -14608187.644 4 -11382982.243 2
  22703087.064    -7355468.738 4  -5731509.303 2
  23802083.349   -12328654.304 3  -9606734.777 1
  24800423.429    20413982.108 2  15906999.162 1
 91  8 10  3 30  0.0050000  0  4 21 23 11 17
  22234022.209   -14616219.216 4 -11389240.595 2
  22709722.369    -7320605.167 4  -5704342.902 2
  23796146.262   -12359834.340 3  -9631030.885 1
  24810602.874    20467463.975 2  15948673.333 1
 91  8 10  3 30 15.0050000  0  4 21 23 11 17
  22232505.262   -14624175.405 4 -11395440.213 2
  22716364.899    -7285690.271 4  -5677136.477 2
  23790239.154   -12390915.838 3  -9655250.238 2
  24820786.228    20520989.047 2  15990381.163 1
 91  8 10  3 30 30.0050000  0  4 21 23 11 17
  22231009.883   -14632053.665 4 -11401579.115 2
  22723017.271    -7250721.682 4  -5649888.227 2
  23784339.235   -12421895.854 3  -9679390.471 2
  24830978.586    20574559.686 2  16032124.465 1
 91  8 10  3 30 45.0050000  0  4 21 23 11 17
  22229524.137   -14639851.775 4 -11407655.553 2
  22729683.778    -7215697.520 4  -5622596.682 2
  23778463.921   -12452771.753 3  -9703449.605 1
  24841183.822    20628177.850 2  16073904.838 1
 91  8 10  3 31  0.0050000  0  4 21 23 11 17
  22228053.956   -14647572.062 4 -11413671.353 2
  22736359.254    -7180620.263 4  -5595263.750 2
  23772608.082   -12483545.436 3  -9727429.079 2
  24851393.246    20681841.288 2  16115720.530 1
 91  8 10  3 31 15.0050000  0  4 21 23 11 17
  22226603.528   -14655215.193 4 -11419627.021 2
  22743047.329    -7145490.722 4  -5567890.088 2
  23766770.810   -12514217.258 3  -9751329.183 1
  24861620.051    20735549.236 2  16157570.867 1
 91  8 10  3 31 30.0050000  0  4 21 23 11 17
  22225161.547   -14662778.660 4 -11425520.620 2
  22749738.092    -7110306.558 4  -5540473.859 2
  23760954.827   -12544784.414 3  -9775147.739 1
  24871850.172    20789303.996 2  16199457.633 1
 91  8 10  3 31 45.0050000  0  4 21 23 11 17
  22223736.911   -14670264.140 4 -11431353.461 2
  22756445.641    -7075069.653 4  -5513016.523 2
  23755155.945   -12575248.099 3  -9798885.673 2
  24882083.887    20843103.876 2  16241379.600 1
 91  8 10  3 32  0.0050000  0  4 21 23 11 17
  22222324.316   -14677673.775 4 -11437127.192 2
  22763159.508    -7039782.141 4  -5485519.756 2
  23749378.945   -12605610.030 3  -9822544.301 1
  24892325.105    20896946.495 2  16283334.874 1
 91  8 10  3 32 15.0050000  0  4 21 23 11 17
  22220932.976   -14685002.761 4 -11442838.072 2
  22769887.125    -7004439.451 4  -5457979.998 2
  23743623.515   -12635865.094 3  -9846119.661 2
  24902580.703    20950836.488 2  16325327.066 1
 91  8 10  3 32 30.0050000  0  4 21 23 11 17
  22219554.827   -14692253.228 4 -11448487.775 2
  22776622.560    -6969043.938 4  -5430399.090 2
  23737885.220   -12666015.039 3  -9869613.090 1
  24912844.083    21004771.999 2  16367354.702 1
 91  8 10  3 32 45.0050000  0  4 21 23 11 17
  22218187.184   -14699426.495 4 -11454077.324 2
  22783367.000    -6933596.755 4  -5402777.907 2
  23732164.864   -12696060.672 3  -9893025.262 1
  24923115.282    21058751.661 2  16409416.732 1
 91  8 10  3 33  0.0050000  0  4 21 23 11 17
  22216833.012   -14706520.957 4 -11459605.474 2
  22790123.724    -6898096.599 4  -5375115.448 2
  23726469.113   -12725999.840 3  -9916354.467 2
  24933396.985    21112776.981 2  16451514.365 1
 91  8 10  3 33 15.0050000  0  4 21 23 11 17
  22215500.129   -14713537.937 4 -11465073.243 2
  22796887.045    -6862544.806 4  -5347412.748 2
  23720791.929   -12755833.512 3  -9939601.493 2
  24943690.938    21166846.549 2  16493646.494 1
 91  8 10  3 33 30.0050000  0  4 21 23 11 17
  22214182.254   -14720477.555 4 -11470480.706 2
  22803663.557    -6826941.779 4  -5319670.130 2
  23715131.846   -12785561.405 3  -9962766.063 2
  24953989.708    21220960.043 2  16535812.858 1
 91  8 10  3 33 45.0050000  0  4 21 23 11 17
  22212878.444   -14727336.389 4 -11475825.260 2
  22810448.446    -6791284.297 4  -5291885.073 2
  23709500.870   -12815179.909 3  -9985845.387 2
  24964291.479    21275120.669 2  16578015.926 1
 91  8 10  3 34  0.0050000  0  4 21 23 11 17
  22211586.325   -14734114.081 4 -11481106.560 2
  22817242.968    -6755572.051 4  -5264057.357 2
  23703884.238   -12844688.117 3 -10008838.782 1
  24974608.222    21329328.922 2  16620256.115 1
 91  8 10  3 34 15.0050000  0  4 21 23 11 17
  22210308.620   -14740820.721 4 -11486332.514 2
  22824051.240    -6719815.362 4  -5236195.004 2
  23698290.432   -12874095.755 3 -10031753.805 2
  24984931.875    21383574.422 2  16662525.320 1
 91  8 10  3 34 30.0050000  0  4 21 23 11 17
  22209051.297   -14747448.636 4 -11491497.106 2
  22830861.327    -6684006.660 4  -5208292.128 2
  23692713.063   -12903394.804 3 -10054584.220 1
  24995258.251    21437864.743 2  16704829.502 1
 91  8 10  3 34 45.0050000  0  4 21 23 11 17
  22207807.166   -14753998.319 4 -11496600.750 2
  22837681.884    -6648146.618 4  -5180349.229 2
  23687162.114   -12932585.466 3 -10077330.173 2
  25005599.878    21492199.215 2  16747167.968 1
 91  8 10  3 35  0.0050000  0  5 21 23 12 11 17
  22206570.818   -14760469.867 4 -11501643.504 2
  22844520.171    -6612235.300 4  -5152366.388 2
  26132501.750           0.877 2         0.282 1
  23681627.044   -12961667.337 3 -10099991.345 2
  25015950.510    21546577.955 2  16789541.038 1
 91  8 10  3 35 15.0050000  0  5 21 23 12 11 17
  22205357.260   -14766863.363 4 -11506625.436 2
  22851363.518    -6576273.049 4  -5124343.860 2
  26127791.412      -24747.062 2    -19283.769 1
  23676108.762   -12990640.146 3 -10122567.558 2
  25026304.143    21601000.559 2  16831948.264 1
 91  8 10  3 35 30.0050000  0  5 21 23 12 11 17
  22204152.672   -14773181.606 4 -11511548.730 2
  22858216.498    -6540262.700 4  -5096283.834 2
  26123099.363      -49404.673 2    -38497.532 1
  23670616.271   -13019506.146 3 -10145060.514 1
  25036663.465    21655464.213 2  16874387.419 1
 91  8 10  3 35 45.0050000  0  5 21 23 12 11 17
  22202963.998   -14779423.186 4 -11516412.294 2
  22865078.447    -6504203.022 4  -5068185.394 2
  26118430.383      -73970.008 2    -57639.253 1
  23665147.163   -13048263.512 3 -10167468.848 1
  25047038.980    21709970.269 2  16916859.751 1
 91  8 10  3 36  0.0050000  0  5 21 23 12 11 17
  22201790.017   -14785586.465 4 -11521214.845 2
  22871952.681    -6468092.666 4  -5040047.464 2
  26113769.220      -98441.123 2    -76707.704 1
  23659692.435   -13076910.304 3 -10189790.993 2
  25057418.405    21764520.247 2  16959366.166 1
 91  8 10  3 36 15.0050000  0  5 21 23 12 11 17
  22200634.603   -14791669.096 4 -11525954.547 2
  22878830.824    -6431929.071 4  -5011868.035 2
  26109133.221     -122815.154 2    -95700.378 1
  23654262.590   -13105443.751 3 -10212024.832 1
  25067817.303    21819116.526 2  17001908.661 1
 91  8 10  3 36 30.0050000  0  5 21 23 12 11 17
  22199489.415   -14797671.076 4 -11530631.403 2
  22885723.660    -6395712.694 4  -4983647.482 2
  26104511.914     -147091.791 2   -114617.386 1
  23648857.036   -13133863.580 3 -10234170.152 2
  25078215.016    21873758.902 2  17044487.127 1
 91  8 10  3 36 45.0050000  0  5 21 23 12 11 17
  22198362.201   -14803595.371 4 -11535247.718 2
  22892626.059    -6359446.502 4  -4955388.107 2
  26099910.397     -171273.519 2   -133460.139 1
  23643470.363   -13162172.307 3 -10256228.876 2
  25088617.195    21928444.463 2  17087099.184 1
 91  8 10  3 37  0.0050000  0  5 21 23 12 11 17
  22197251.774   -14809437.498 4 -11539800.013 2
  22899535.996    -6323126.143 4  -4927086.537 2
  26095332.576     -195355.480 2   -152225.242 1
  23638104.386   -13190365.076 3 -10278197.241 2
  25099031.101    21983177.521 2  17129748.361 1
 91  8 10  3 37 15.0050000  0  5 21 23 12 11 17
  22196154.225   -14815201.864 4 -11544291.722 2
  22906453.402    -6286756.227 4  -4898746.340 2
  26090758.630     -219341.651 2   -170915.791 1
  23632759.070   -13218445.964 3 -10300078.447 2
  25109450.975    22037953.301 2  17172430.748 1
 91  8 10  3 37 30.0050000  0  5 21 23 12 11 17
  22195077.372   -14820886.325 4 -11548721.160 2
  22913386.688    -6250334.960 4  -4870366.134 2
  26086221.887     -243229.708 2   -189529.793 1
  23627440.174   -13246412.473 3 -10321870.487 1
  25119885.577    22092773.696 2  17215147.886 1
 91  8 10  3 37 45.0050000  0  5 21 23 12 11 17
  22194005.614   -14826499.944 4 -11553095.402 2
  22920322.975    -6213871.315 4  -4841952.920 2
  26081690.834     -267027.913 2   -208073.782 1
  23622135.343   -13274273.073 3 -10343580.051 1
  25130326.147    22147630.043 2  17257893.095 1
 91  8 10  3 38  0.0050000  0  5 21 23 12 11 17
  22192952.424   -14832033.874 4 -11557407.548 2
  22927272.768    -6177356.699 4  -4813499.955 2
  26077181.348     -290726.951 2   -226540.549 1
  23616858.676   -13302018.536 3 -10365199.869 2
  25140772.092    22202531.109 2  17300673.105 1
 91  8 10  3 38 15.0050000  0  5 21 23 12 11 17
  22191913.054   -14837488.128 4 -11561657.607 2
  22934233.346    -6140791.191 4  -4785007.357 2
  26072688.336     -314326.620 2   -244929.840 1
  23611598.518   -13329648.596 3 -10386729.786 1
  25151227.076    22257476.603 2  17343487.765 1
 91  8 10  3 38 30.0050000  0  5 21 23 12 11 17
  22190889.564   -14842864.354 4 -11565846.875 2
  22941200.834    -6104176.336 4  -4756476.310 2
  26068219.650     -337828.020 2   -263242.653 1
  23606363.557   -13357164.305 3 -10408170.561 2
  25161694.310    22312464.862 2  17386335.709 1
 91  8 10  3 38 45.0050000  0  5 21 23 12 11 17
  22189883.768   -14848165.146 4 -11569977.344 2
  22948176.698    -6067514.866 4  -4727908.929 2
  26063764.434     -361233.197 2   -281480.416 1
  23601147.478   -13384567.782 3 -10429523.898 2
  25172162.486    22367493.322 2  17429215.027 1
 91  8 10  3 39  0.0050000  0  5 21 23 12 11 17
  22188889.943   -14853388.320 4 -11574047.345 2
  22955161.287    -6030804.928 4  -4699303.773 2
  26059323.005     -384539.717 2   -299641.295 1
  23595953.560   -13411856.739 3 -10450788.015 2
  25182640.504    22422563.895 2  17472127.112 1
 91  8 10  3 39 15.0050000  0  5 21 23 12 11 17
  22187912.627   -14858531.671 4 -11578055.140 2
  22962155.718    -5994044.456 4  -4670659.241 2
  26054913.963     -407745.002 2   -317723.293 1
  23590783.340   -13439028.565 3 -10471960.833 2
  25193129.062    22477678.712 2  17515073.684 1
 91  8 10  3 39 30.0050000  0  5 21 23 12 11 17
  22186945.501   -14863595.729 4 -11582001.153 2
  22969163.691    -5957234.043 4  -4641975.825 2
  26050513.891     -430849.008 2   -335726.498 1
  23585636.817   -13466083.215 3 -10493042.370 2
  25203624.495    22532837.146 2  17558054.319 1
 91  8 10  3 39 45.0050000  0  5 21 23 12 11 17
  22185996.942   -14868581.022 4 -11585885.789 2
  22976178.225    -5920374.183 4  -4613253.861 2
  26046131.548     -453851.896 2   -353650.655 1
  23580507.639   -13493020.956 3 -10514032.806 2
  25214131.027    22588038.751 2  17601068.508 1
 91  8 10  3 40  0.0050000  0  5 21 23 12 11 17
  22185066.391   -14873486.857 4 -11589708.514 2
  22983200.576    -5883464.508 4  -4584493.072 2
  26041778.556     -476752.772 2   -371495.514 1
  23575406.382   -13519840.779 3 -10534931.342 1
  25224648.622    22643284.027 2  17644116.760 1
 91  8 10  3 40 15.0050000  0  5 21 23 12 11 17
  22184145.439   -14878316.473 4 -11593471.837 2
  22990232.491    -5846508.414 4  -4555696.113 2
  26037432.754     -499554.422 2   -389263.016 1
  23570324.600   -13546545.459 3 -10555740.184 1
  25235165.659    22698569.379 2  17687196.231 1
 91  8 10  3 40 30.0050000  0  5 21 23 12 11 17
  22183246.054   -14883065.928 4 -11597172.710 2
  22997273.130    -5809502.090 4  -4526860.019 2
  26033118.746     -522252.378 2   -406949.650 1
  23565264.106   -13573130.672 3 -10576455.887 2
  25245692.573    22753898.744 2  17730310.020 1
 91  8 10  3 40 45.0050000  0  5 21 23 12 11 17
  22182353.860   -14887735.363 4 -11600811.214 2
  23004327.520    -5772445.641 4  -4497984.855 2
  26028815.836     -544846.259 2   -424555.269 1
  23560231.184   -13599596.062 3 -10597078.270 1
  25256228.770    22809272.117 2  17773458.043 1
 91  8 10  3 41  0.0050000  0  5 21 23 12 11 17
  22181484.769   -14892327.024 4 -11604389.125 2
  23011385.854    -5735341.386 4  -4469072.448 2
  26024536.589     -567337.996 2   -442081.311 1
  23555215.363   -13625943.559 3 -10617608.789 2
  25266773.692    22864687.098 2  17816638.523 1
 91  8 10  3 41 15.0050000  0  5 21 23 12 11 17
  22180621.367   -14896839.916 4 -11607905.658 2
  23018456.752    -5698188.629 4  -4440122.255 2
  26020278.631     -589726.118 2   -459526.488 1
  23550225.334   -13652171.871 3 -10638046.406 2
  25277334.774    22920144.650 2  17859852.202 1
 91  8 10  3 41 30.0050000  0  5 21 23 12 11 17
  22179775.974   -14901270.609 4 -11611358.139 2
  23025537.248    -5660984.233 4  -4411131.822 2
  26016039.869     -612006.885 2   -476888.078 1
  23545255.652   -13678277.150 3 -10658388.175 2
  25287896.448    22975648.068 2  17903101.582 1
 91  8 10  3 41 45.0050000  0  5 21 23 12 11 17
  22178948.519   -14905624.398 4 -11614750.691 2
  23032626.154    -5623733.532 4  -4382105.289 2
  26011816.393     -634185.151 2   -494169.914 1
  23540311.481   -13704264.296 3 -10678637.866 2
  25298459.937    23031192.102 2  17946382.685 1
 91  8 10  3 42  0.0050000  0  5 21 23 12 11 17
  22178131.291   -14909905.169 4 -11618086.344 2
  23039723.123    -5586440.246 4  -4353045.588 2
  26007629.492     -656264.452 2   -511374.510 1
  23535385.599   -13730136.800 3 -10698798.267 2
  25309036.619    23086772.503 2  17989692.027 1
 91  8 10  3 42 15.0050000  0  5 21 23 12 11 17
  22177333.258   -14914105.583 4 -11621359.386 2
  23046829.410    -5549097.340 3  -4323947.222 2
  26003433.587     -678236.944 2   -528495.874 1
  23530489.382   -13755886.940 3 -10718863.291 2
  25319620.804    23142396.381 2  18033035.304 1
 91  8 10  3 42 30.0050000  0  5 21 23 12 11 17
  22176550.196   -14918229.226 4 -11624572.611 2
  23053942.572    -5511708.577 4  -4294813.102 2
  25999284.763     -700105.811 2   -545536.618 1
  23525608.766   -13781517.902 3 -10738835.436 2
  25330214.552    23198060.257 2  18076409.715 1
 91  8 10  3 42 45.0050000  0  5 21 23 12 11 17
  22175778.234   -14922273.234 4 -11627723.767 2
  23061068.055    -5474271.351 4  -4265641.256 2
  25995138.626     -721867.929 2   -562494.310
  23520759.629   -13807026.516 3 -10758712.279 2
  25340820.027    23253766.964 2  18119817.534 1
 91  8 10  3 43  0.0050000  0  5 21 23 12 11 17
  22175024.559   -14926240.412 4 -11630815.084 2
  23068198.912    -5436788.410 4  -4236433.758 2
  25991017.408     -743525.415 2   -579370.246 1
  23515925.151   -13832415.017 3 -10778495.502 2
  25351427.281    23309513.604 2  18163256.518 1
 91  8 10  3 43 15.0050000  0  5 21 23 12 11 17
  22174283.448   -14930131.460 4 -11633847.056 2
  23075343.275    -5399260.442 4  -4207191.202 2
  25986912.349     -765078.553 2   -596165.062 1
  23511115.592   -13857683.731 3 -10798185.405 1
  25362042.912    23365299.501 2  18206725.923 1
 91  8 10  3 43 30.0050000  0  5 21 23 12 11 17
  22173563.347   -14933944.305 4 -11636818.085 2
  23082495.421    -5361685.745 4  -4177912.217 2
  25982834.548     -786525.051 2   -612876.687 1
  23506330.603   -13882830.298 3 -10817780.118 2
  25372662.172    23421126.431 2  18250227.453 1
 91  8 10  3 43 45.0050000  0  5 21 23 12 11 17
  22172845.969   -14937677.283 4 -11639726.895 2
  23089652.070    -5324062.840 4  -4148595.666 2
  25978774.754     -807862.846 2   -629503.455 1
  23501568.997   -13907852.698 3 -10837278.070 2
  25383296.719    23476995.904 2  18293762.104
 91  8 10  3 44  0.0050000  0  5 21 23 12 11 17
  22172154.940   -14941326.763 4 -11642570.640 2
  23096821.317    -5286387.973 4  -4119238.616 2
  25974732.377     -829087.774 2   -646042.206 1
  23496832.868   -13932746.895 3 -10856676.139 2
  25393934.546    23532911.372 2  18337332.591 1
 91  8 10  3 44 15.0050000  0  5 21 23 12 11 17
  22171472.916   -14944903.630 4 -11645357.809 2
  23103997.126    -5248671.929 3  -4089849.485 2
  25970714.848     -850210.303 2   -662501.359 1
  23492118.343   -13957523.238 3 -10875982.364 2
  25404578.062    23588862.198 2  18380930.650 1
 91  8 10  3 44 30.0050000  0  5 21 23 12 11 17
  22170810.680   -14948399.827 4 -11648082.105 2
  23111182.253    -5210907.205 4  -4060422.429 2
  25966715.607     -871222.072 2   -678874.187 1
  23487427.794   -13982173.375 4 -10895190.266 1
  25415243.809    23644856.554 2  18424562.557 1
 91  8 10  3 44 45.0050000  0  5 21 23 12 11 17
  22170153.505   -14951817.067 4 -11650744.884 2
  23118377.571    -5173095.545 4  -4030958.818 2
  25962732.560     -892124.422 2   -695161.757 1
  23482761.536   -14006698.720 3 -10914300.902 2
  25425903.519    23700892.146 2  18468226.635 1
 91  8 10  3 45  0.0050000  0  5 21 23 12 11 17
  22169522.156   -14955157.394 4 -11653347.729 2
  23125582.487    -5135239.010 4  -4001460.213 2
  25958782.808     -912918.935 2   -711365.227 1
  23478115.625   -14031100.908 3 -10933315.580 2
  25436568.045    23756966.879 2  18511921.261 1
 91  8 10  3 45 15.0050000  0  5 21 23 12 11 17
  22168900.405   -14958420.862 4 -11655890.672 2
  23132794.592    -5097338.024 4  -3971926.980 2
  25954844.433     -933605.199 2   -727484.294 1
  23473496.133   -14055379.713 3 -10952234.133 2
  25447251.138    23813080.576 2  18555646.074 1
 91  8 10  3 45 30.0050000  0  5 21 23 12 11 17
  22168297.814   -14961606.676 4 -11658373.120 2
  23140015.388    -5059391.630 4  -3942358.351 2
  25950930.035     -954182.034 2   -743518.290 1
  23468899.711   -14079533.838 3 -10971055.497 2
  25457936.640    23869234.126 2  18599402.197
 91  8 10  3 45 45.0050000  0  5 21 23 12 11 17
  22167706.321   -14964708.577 4 -11660790.173 2
  23147245.501    -5021393.858 3  -3912749.695 2
  25947031.831     -974642.838 2   -759461.721 1
  23464326.986   -14103556.616 3 -10989774.548 2
  25468627.830    23925433.539 2  18643193.984 1
 91  8 10  3 46  0.0050000  0  5 21 23 12 11 17
  22167131.930   -14967730.782 4 -11663145.138 2
  23154485.492    -4983348.839 4  -3883104.222 2
  25943161.827     -994991.308 2   -775317.582 1
  23459784.241   -14127451.809 4 -11008394.162 2
  25479330.432    23981674.611 2  18687018.144 1
 91  8 10  3 46 15.0050000  0  5 21 23 12 11 17
  22166568.602   -14970676.985 4 -11665440.877 2
  23161732.951    -4945260.539 4  -3853425.045 2
  25939311.890    -1015230.851 2   -791088.714 1
  23455256.154   -14151222.850 4 -11026917.037 2
  25490048.600    24037953.322 2  18730871.615 1
 91  8 10  3 46 30.0050000  0  5 21 23 12 11 17
  22166023.597   -14973548.715 4 -11667678.583 2
  23168991.858    -4907130.662 4  -3823713.448 2
  25935481.148    -1035362.673 2   -806776.098 1
  23450758.081   -14174870.924 4 -11045344.090 2
  25500756.577    24094268.220 2  18774753.282 1
 91  8 10  3 46 45.0050000  0  5 21 23 12 11 17
  22165493.564   -14976341.053 4 -11669854.421 2
  23176256.104    -4868954.426 3  -3793965.741 2
  25931669.881    -1055381.368 2   -822375.216 1
  23446281.576   -14198390.757 3 -11063671.224 2
  25511483.470    24150624.038 2  18818666.909 1
 91  8 10  3 47  0.0050000  0  5 21 23 12 11 17
  22164978.503   -14979053.332 4 -11671967.872 2
  23183527.889    -4830731.044 4  -3764181.278 2
  25927876.902    -1075285.873 2   -837885.224 1
  23441829.363   -14221781.247 3 -11081897.581 2
  25522213.330    24207021.335 2  18862612.833 1
 91  8 10  3 47 15.0050000  0  5 21 23 12 11 17
  22164474.541   -14981689.505 4 -11674022.033 2
  23190811.924    -4792464.658 4  -3734363.326 2
  25924119.591    -1095079.715 2   -853308.985 1
  23437403.220   -14245045.917 3 -11100025.863 2
  25532950.693    24263456.483 2  18906588.270 1
 91  8 10  3 47 30.0050000  0  5 21 23 12 11 17
  22163987.680   -14984244.020 4 -11676012.562 2
  23198100.496    -4754149.960 3  -3704507.704 2
  25920372.505    -1114757.027 2   -868641.849 1
  23433003.182   -14268178.896 3 -11118051.556 2
  25543700.377    24319934.777 2  18950597.326 1
 91  8 10  3 47 45.0050000  0  5 21 23 12 11 17
  22163515.233   -14986721.807 4 -11677943.302 2
  23205401.318    -4715791.895 4  -3674618.308 2
  25916646.988    -1134322.308 2   -883887.477 1
  23428624.085   -14291184.711 3 -11135978.153 2
  25554460.216    24376450.847 2  18994635.867 1
 91  8 10  3 48  0.0050000  0  5 21 23 12 11 17
  22163061.946   -14989122.907 4 -11679814.274 2
  23212707.585    -4677390.702 3  -3644695.302 2
  25912950.823    -1153775.239 2   -899045.718 1
  23424270.221   -14314063.095 3 -11153805.459 2
  25565218.868    24433004.674 2  19038703.735 1
 91  8 10  3 48 15.0050000  0  5 21 23 12 11 17
  22162616.128   -14991449.094 4 -11681626.888 2
  23220024.915    -4638948.122 3  -3614740.067 2
  25909263.697    -1173117.248 2   -914117.349 1
  23419939.112   -14336815.480 3 -11171534.585 2
  25575987.712    24489594.501 2  19082799.650 1
 91  8 10  3 48 30.0050000  0  5 21 23 12 11 17
  22162190.447   -14993698.565 4 -11683379.713 2
  23227346.154    -4600462.431 3  -3584751.213 2
  25905599.919    -1192345.887 2   -929100.741 1
  23415637.389   -14359439.477 3 -11189163.648 2
  25586762.837    24546222.289 2  19126925.128 1
 91  8 10  3 48 45.0050000  0  5 21 23 12 11 17
  22161773.422   -14995869.359 4 -11685071.236 2
  23234679.957    -4561931.838 3  -3554727.373 2
  25901969.436    -1211458.937 2   -943993.918 1
  23411353.674   -14381932.874 3 -11206690.972 2
  25597547.002    24602889.613 2  19171081.473 1
 91  8 10  3 49  0.0050000  0  5 21 23 12 11 17
  22161375.592   -14997959.860 4 -11686700.193 2
  23242020.984    -4523355.196 3  -3524667.665 2
  25898356.647    -1230454.558 2   -958795.696 1
  23407099.590   -14404293.953 3 -11224115.170 2
  25608340.101    24659597.798 2  19215269.621 1
 91  8 10  3 49 15.0050000  0  5 21 23 12 11 17
  22160996.957   -14999965.974 4 -11688263.392 2
  23249369.201    -4484728.193 3  -3494568.697 2
  25894762.112    -1249328.096 2   -973502.314 1
  23402868.646   -14426517.957 3 -11241432.559 2
  25619134.457    24716351.101 2  19259492.958 1
 91  8 10  3 49 30.0050000  0  5 21 23 12 11 17
  22160629.700   -15001894.938 4 -11689766.470 2
  23256730.017    -4446058.219 4  -3464436.247 2
  25891188.901    -1268086.467 2   -988119.191 1
  23398669.146   -14448611.751 3 -11258648.490 1
  25629947.066    24773142.282 2  19303745.830 1
 91  8 10  3 49 45.0050000  0  5 21 23 12 11 17
  22160277.450   -15003746.262 4 -11691209.060 2
  23264096.801    -4407344.779 3  -3434269.945 2
  25887647.170    -1286728.727 2  -1002645.631 1
  23394488.842   -14470574.437 3 -11275762.243 2
  25640758.174    24829971.475 2  19348028.250 1
 91  8 10  3 50  0.0050000  0  5 21 23 12 11 17
  22159942.301   -15005518.092 4 -11692589.704 2
  23271471.403    -4368586.099 3  -3404068.375 2
  25884119.189    -1305252.574 2  -1017079.822 1
  23390333.107   -14492403.825 3 -11292772.153 2
  25651577.099    24886840.588 2  19392341.839 1
 91  8 10  3 50 15.0050000  0  5 21 23 12 11 17
  22159618.809   -15007214.132 4 -11693911.290 2
  23278852.601    -4329786.100 3  -3373834.613 2
  25880618.815    -1323661.349 2  -1031424.231 1
  23386204.072   -14514103.239 3 -11309680.770 2
  25662407.681    24943745.876 2  19436683.652 1
 91  8 10  3 50 30.0050000  0  5 21 23 12 11 17
  22159310.324   -15008826.766 4 -11695167.891 2
  23286249.364    -4290937.381 3  -3343562.885 2
  25877138.544    -1341947.023 2  -1045672.897 1
  23382100.513   -14535664.838 4 -11326481.988 2
  25673244.895    25000694.857 2  19481059.412 1
 91  8 10  3 50 45.0050000  0  5 21 23 12 11 17
  22159014.438   -15010361.771 4 -11696363.986 2
  23293648.256    -4252045.641 4  -3313257.634 2
  25873678.026    -1360115.039 2  -1059829.686 1
  23378022.432   -14557093.938 4 -11343179.986 2
  25684087.483    25057681.576 2  19525464.589 1
 91  8 10  3 51  0.0050000  0  5 21 23 12 11 17
  22158742.528   -15011822.254 4 -11697502.025 2
  23301059.399    -4213114.162 4  -3282921.400 2
  25870243.020    -1378168.197 2  -1073897.101 1
  23373969.549   -14578393.303 3 -11359776.872 2
  25694941.169    25114702.628 2  19569896.606 1
 91  8 10  3 51 15.0050000  0  5 21 23 12 11 17
  22158475.401   -15013205.082 4 -11698579.541 2
  23308471.483    -4174140.040 3  -3252551.953 2
  25866828.955    -1396103.011 2  -1087872.232 1
  23369944.517   -14599559.500 4 -11376270.009 2
  25705803.825    25171761.164 2  19614357.716 1
 91  8 10  3 51 30.0050000  0  5 21 23 12 11 17
  22158228.969   -15014507.940 4 -11699594.755 2
  23315902.728    -4135120.876 4  -3222147.415 2
  25863444.311    -1413916.679 2  -1101753.014 1
  23365937.807   -14620589.745 4 -11392657.198 2
  25716660.513    25228859.408 2  19658849.875 1
 91  8 10  3 51 45.0050000  0  5 21 23 12 11 17
  22157991.855   -15015735.873 4 -11700551.578 2
  23323331.879    -4096061.845 3  -3191711.818 2
  25860069.229    -1431613.791 2  -1115542.895 1
  23361964.358   -14641488.678 4 -11408942.037 2
  25727536.990    25285992.323 2  19703369.267 1
 91  8 10  3 52  0.0050000  0  5 21 23 12 11 17
  22157778.997   -15016887.806 4 -11701449.182 2
  23330773.629    -4056962.187 3  -3161244.560 2
  25856731.945    -1449193.098 2  -1129241.123 1
  23358010.976   -14662254.916 4 -11425123.526 2
  25738418.247    25343160.887 2  19747916.420 1
 91  8 10  3 52 15.0050000  0  5 21 23 12 11 17
  22157570.328   -15017960.184 4 -11702284.791 2
  23338221.696    -4017818.303 3  -3130742.835 2
  25853396.755    -1466650.748 2  -1142844.438 1
  23354085.201   -14682884.644 4 -11441198.613 2
  25749298.039    25400368.315 2  19792493.661 1
 91  8 10  3 52 30.0050000  0  5 21 23 12 11 17
  22157382.354   -15018953.900 4 -11703059.104 2
  23345675.138    -3978631.192 3  -3100207.400 2
  25850103.550    -1483986.993 2  -1156353.203 1
  23350187.311   -14703378.206 4 -11457167.622 2
  25760193.990    25457613.891 2  19837100.591 1
 91  8 10  3 52 45.0050000  0  5 21 23 12 11 17
  22157207.572   -15019870.985 4 -11703773.711 2
  23353139.957    -3939403.112 3  -3069640.080 2
  25846833.100    -1501203.466 2  -1169768.609 1
  23346311.897   -14723737.317 4 -11473031.836 2
  25771097.445    25514895.600 2  19881735.621 1
 91  8 10  3 53  0.0050000  0  5 21 23 12 11 17
  22157047.484   -15020707.300 4 -11704425.375 2
  23360616.189    -3900130.004 3  -3039037.637 2
  25843569.874    -1518295.729 2  -1183087.234 1
  23342465.240   -14743957.544 4 -11488787.850 2
  25782003.900    25572217.163 2  19926401.731 1
 91  8 10  3 53 15.0050000  0  5 21 23 12 11 17
  22156904.497   -15021463.964 4 -11705014.974 2
  23368097.795    -3860812.833 3  -3008400.906 2
  25840351.600    -1535264.433 2  -1196309.538 1
  23338642.596   -14764039.514 4 -11504436.137 1
  25792916.953    25629577.773 2  19971098.305 1
 91  8 10  3 53 30.0050000  0  5 21 23 12 11 17
  22156777.390   -15022144.330 4 -11705545.122 2
  23375586.626    -3821455.018 3  -2977732.480 2
  25837145.332    -1552112.652 2  -1209438.034 1
  23334846.022   -14783986.273 3 -11519979.034 2
  25803840.475    25686973.760 2  20015822.303 1
 91  8 10  3 53 45.0050000  0  5 21 23 12 11 17
  22156663.160   -15022749.021 4 -11706016.311 2
  23383086.834    -3782057.632 3  -2947033.215 2
  25833957.038    -1568840.652 2  -1222472.808 1
  23331076.426   -14803798.103 4 -11535416.816 2
  25814766.998    25744404.305 2  20060573.366 1
 91  8 10  3 54  0.0050000  0  5 21 23 12 11 17
  22156563.624   -15023275.609 4 -11706426.635 2
  23390590.637    -3742618.253 3  -2916301.242 2
  25830802.318    -1585445.639 2  -1235411.705 1
  23327333.214   -14823472.177 4 -11550747.243 2
  25825699.246    25801871.665 2  20105353.146 1
 91  8 10  3 54 15.0050000  0  5 21 23 12 11 17
  22156475.501   -15023724.098 4 -11706776.106 2
  23398104.038    -3703136.838 3  -2885536.494 2
  25827660.196    -1601927.224 2  -1248254.466 1
  23323616.108   -14843008.099 4 -11565970.021 2
  25836647.059    25859376.015 2  20150161.784 1
 91  8 10  3 54 30.0050000  0  5 21 23 12 11 17
  22156406.538   -15024093.062 4 -11707063.597 2
  23405621.313    -3663612.183 3  -2854738.062 2
  25824549.241    -1618283.669 2  -1260999.737 1
  23319923.258   -14862404.267 4 -11581083.925 2
  25847593.685    25916918.565 2  20195000.081 1
 91  8 10  3 54 45.0050000  0  5 21 23 12 11 17
  22156350.487   -15024382.244 4 -11707288.925 2
  23413153.594    -3624044.210 3  -2823905.864 2
  25821465.264    -1634514.323 2  -1273647.021 1
  23316260.981   -14881659.980 4 -11596088.350 2
  25858555.598    25974499.383 2  20239868.285 1
 91  8 10  3 55  0.0050000  0  5 21 23 12 11 17
  22156312.690   -15024593.751 4 -11707453.740 2
  23420689.192    -3584435.184 3  -2793041.697 2
  25818395.701    -1650621.002 2  -1286197.653 1
  23312620.622   -14900777.024 4 -11610984.734 2
  25869526.794    26032116.162 2  20284764.425 1
 91  8 10  3 55 15.0060000  0  5 21 23 12 11 17
  22156282.732   -15024732.511 4 -11707561.853 2
  23428235.559    -3544787.424 3  -2762147.340 2
  25815355.789    -1666609.159 2  -1298655.877 1
  23309008.726   -14919761.240 4 -11625777.616 2
  25880495.323    26089767.873 2  20329687.779 1
 91  8 10  3 55 30.0060000  0  5 21 23 12 11 17
  22156273.727   -15024789.289 4 -11707606.082 2
  23435790.631    -3505096.940 3  -2731219.686 2
  25812333.586    -1682467.230 2  -1311012.828 1
  23305427.383   -14938600.610 4 -11640457.622 2
  25891460.517    26147455.800 2  20374639.369 1
 91  8 10  3 55 45.0060000  0  5 21 23 12 11 17
  22156277.043   -15024765.085 4 -11707587.207 2
  23443349.297    -3465362.170 3  -2700257.539 1
  25809350.367    -1698196.705 2  -1323269.597 1
  23301864.956   -14957297.008 4 -11655026.246 2
  25902452.095    26205182.814 2  20419621.453 1
 91  8 10  3 56  0.0060000  0  5 21 23 12 11 17
  22156294.702   -15024665.914 4 -11707509.929 2
  23450917.876    -3425589.276 3  -2669265.664 2
  25806379.711    -1713803.304 2  -1335430.539 1
  23298338.512   -14975856.022 4 -11669487.789 2
  25913446.081    26262942.950 2  20464629.328 1
 91  8 10  3 56 15.0060000  0  5 21 23 12 11 17
  22156330.091   -15024489.499 4 -11707372.454 2
  23458493.329    -3385776.257 3  -2638242.535 2
  25803426.751    -1729284.602 2  -1347493.848 1
  23294829.412   -14994275.149 4 -11683840.359 2
  25924436.472    26320738.273 2  20509664.673 1
 91  8 10  3 56 30.0060000  0  5 21 23 12 11 17
  22156376.858   -15024235.149 4 -11707174.259 2
  23466078.066    -3345922.400 3  -2607187.582 2
  25800504.677    -1744639.351 2  -1359458.626 1
  23291349.734   -15012553.237 4 -11698083.009 2
  25935452.062    26378569.440 2  20554727.960 1
 91  8 10  3 56 45.0060000  0  5 21 23 12 11 17
  22156439.225   -15023902.182 4 -11706914.789 2
  23473669.121    -3306026.928 3  -2576100.209 2
  25797605.393    -1759866.455 2  -1371323.829 1
  23287902.409   -15030689.202 4 -11712214.910 2
  25946458.054    26436437.054 2  20599819.523 1
 91  8 10  3 57  0.0060000  0  5 21 23 12 11 17
  22156515.378   -15023491.766 4 -11706594.979 2
  23481269.458    -3266091.202 3  -2544981.467 2
  25794731.586    -1774966.791 2  -1383090.337 1
  23284476.093   -15048683.921 4 -11726236.772 2
  25957479.018    26494339.693 2  20644938.425 1
 91  8 10  3 57 15.0060000  0  5 21 23 12 11 17
  22156614.286   -15023002.897 4 -11706214.032 2
  23488875.485    -3226114.569 3  -2513830.835 2
  25791885.351    -1789939.153 2  -1394757.062 1
  23281080.351   -15066536.220 4 -11740147.635 2
  25968502.984    26552278.154 2  20690085.211 1
 91  8 10  3 57 30.0060000  0  5 21 23 12 11 17
  22156716.509   -15022434.243 4 -11705770.925 2
  23496492.330    -3186095.735 3  -2482647.327 1
  25789066.687    -1804781.804 2  -1406322.749 1
  23277710.679   -15084244.276 4 -11753946.120 2
  25979538.048    26610253.727 2  20735260.964 1
 91  8 10  3 57 45.0060000  0  5 21 23 12 11 17
  22156845.431   -15021784.918 4 -11705264.949 2
  23504114.236    -3146033.777 3  -2451430.206 2
  25786259.436    -1819493.446 2  -1417786.384 1
  23274368.578   -15101806.785 4 -11767631.192 2
  25990574.298    26668267.238 2  20780466.297 1
 91  8 10  3 58  0.0060000  0  5 21 23 12 11 17
  22156981.857   -15021059.413 4 -11704699.608 2
  23511745.461    -3105933.229 3  -2420183.034 2
  25783491.762    -1834078.089 2  -1429151.021 1
  23271052.583   -15119227.809 4 -11781205.997 2
  26001617.459    26726314.245 2  20825697.672 1
 91  8 10  3 58 15.0060000  0  5 21 23 12 11 17
  22157135.035   -15020254.853 4 -11704072.674 2
  23519386.562    -3065791.225 3  -2388903.557 2
  25780737.280    -1848532.528 2  -1440414.183 1
  23267762.973   -15136504.216 4 -11794668.128 2
  26012674.406    26784397.299 2  20870957.231 1
 91  8 10  3 58 30.0060000  0  5 21 23 12 11 17
  22157301.720   -15019373.234 4 -11703385.694 2
  23527034.574    -3025609.913 3  -2357593.450 2
  25778013.336    -1862858.373 2  -1451577.149 1
  23264506.029   -15153637.619 4 -11808018.825 2
  26023727.443    26842514.543 2  20916243.305 1
 91  8 10  3 58 45.0060000  0  5 21 23 12 11 17
  22157483.097   -15018416.406 4 -11702640.095 2
  23534683.772    -2985391.339 3  -2326254.311 2
  25775308.936    -1877057.303 2  -1462641.234 1
  23261271.248   -15170629.729 4 -11821259.417 2
  26034794.302    26900663.915 2  20961554.612 1
 91  8 10  3 59  0.0060000  0  5 21 23 12 11 17
  22157686.043   -15017380.963 4 -11701833.255 2
  23542346.756    -2945132.266 3  -2294883.587 2
  25772632.666    -1891125.459 2  -1473603.478 1
  23258064.386   -15187476.786 4 -11834386.981 2
  26045871.909    26958848.803 2  21006893.437 1
 91  8 10  3 59 15.0060000  0  5 21 23 12 11 17
  22157894.120   -15016265.768 4 -11700964.264 2
  23550015.149    -2904831.663 3  -2263480.520 2
  25769986.724    -1905061.459 2  -1484462.633 1
  23254886.876   -15204177.137 4 -11847400.241 2
  26056948.365    27017070.067 2  21052260.579 1
 91  8 10  3 59 30.0060000  0  5 21 23 12 11 17
  22158122.857   -15015073.540 4 -11700035.253 2
  23557691.640    -2864492.117 4  -2232047.114 1
  25767353.940    -1918867.484 2  -1495220.546 1
  23251735.157   -15220733.138 4 -11860301.018 2
  26068035.570    27075325.214 2  21097654.153 1
 91  8 10  3 59 45.0060000  0  5 21 23 12 11 17
  22158361.192   -15013802.608 4 -11699044.907 2
  23565375.634    -2824112.187 3  -2200582.227 2
  25764750.228    -1932541.720 2  -1505875.812 1
  23248614.011   -15237143.015 4 -11873087.923 2
  26079134.502    27133615.467 2  21143075.084 1
 91  8 10  4  0  0.0060000  0  5 21 23 12 11 17
  22158619.002   -15012456.745 4 -11697996.173 2
  23573067.096    -2783695.739 3  -2169088.896 2
  25762172.621    -1946087.494 2  -1516430.927 1
  23245520.751   -15253410.164 4 -11885763.634 2
  26090232.492    27191936.969 2  21188520.376 1
 91  8 10  4  0 15.0060000  0  5 21 23 12 11 17
  22158889.724   -15011032.771 4 -11696886.586 2
  23580763.689    -2743239.823 3  -2137564.810 2
  25759618.084    -1959501.419 2  -1526883.481 1
  23242450.280   -15269531.172 4 -11898325.454 2
  26101325.141    27250292.628 2  21233992.338 1
 91  8 10  4  0 30.0060000  0  5 21 23 12 11 17
  22159173.918   -15009534.460 4 -11695719.061 2
  23588470.753    -2702748.095 3  -2106012.809 2
  25757091.153    -1972786.815 2  -1537235.676 1
  23239406.195   -15285509.363 4 -11910775.993 2
  26112438.138    27308678.711 2  21279487.958 1
 91  8 10  4  0 45.0060000  0  5 21 23 12 11 17
  22159477.308   -15007960.942 4 -11694492.932 2
  23596182.004    -2662219.936 3  -2074432.421 1
  25754591.165    -1985942.435 2  -1547486.796 1
  23236398.684   -15301343.482 4 -11923114.269 2
  26123560.732    27367095.899 2  21325007.856 1
 91  8 10  4  1  0.0060000  0  5 21 23 12 11 17
  22159790.295   -15006309.018 4 -11693205.706 2
  23603901.352    -2621652.135 3  -2042821.160 1
  25752108.592    -1998964.801 2  -1557634.032 1
  23233412.743   -15317030.108 4 -11935337.587 2
  26134680.953    27425547.706 2  21370554.683 1
 91  8 10  4  1 15.0060000  0  5 21 23 12 11 17
  22160117.068   -15004577.627 4 -11691856.569 2
  23611632.113    -2581043.748 3  -2011178.252 2
  25749659.594    -2011852.492 2  -1567676.448 1
  23230460.096   -15332567.690 4 -11947444.817 2
  26145807.736    27484034.933 2  21416129.142 1
 91  8 10  4  1 30.0060000  0  5 21 23 12 11 17
  22160462.128   -15002767.632 4 -11690446.185 2
  23619363.466    -2540395.603 3  -1979504.377 2
  25747229.476    -2024605.976 2  -1577614.143 1
  23227528.704   -15347956.785 4 -11959436.299 2
  26156948.932    27542556.539 2  21461730.380 1
 91  8 10  4  1 45.0060000  0  5 21 23 12 11 17
  22160820.381   -15000879.669 4 -11688975.035 2
  23627106.512    -2499708.336 3  -1947800.015 2
  25744825.744    -2037225.558 2  -1587447.555 1
  23224627.640   -15363197.701 4 -11971312.335 2
  26168089.500    27601111.935 2  21507357.842 1
 91  8 10  4  2  0.0060000  0  5 21 23 12 11 17
  22161198.109   -14998912.877 4 -11687442.449 2
  23634856.712    -2458981.326 3  -1916064.697 2
  25742450.769    -2049710.096 2  -1597175.750 1
  23221755.299   -15378289.211 4 -11983071.946 2
  26179239.107    27659701.693 2  21553012.122 1
 91  8 10  4  2 15.0060000  0  5 21 23 12 11 17
  22161585.155   -14996868.339 4 -11685849.304 2
  23642616.545    -2418215.909 3  -1884299.439 2
  25740105.180    -2062060.456 2  -1606799.431 1
  23218910.879   -15393232.239 4 -11994715.869 2
  26190400.371    27718324.430 2  21598692.273 1
 91  8 10  4  2 30.0060000  0  5 21 23 12 11 17
  22161989.860   -14994745.201 4 -11684194.905 2
  23650380.879    -2377411.174 3  -1852503.540 2
  25737774.913    -2074275.406 2  -1616317.622 1
  23216096.124   -15408025.587 4 -12006243.144 2
  26201551.758    27776981.059 2  21644398.647 1
 91  8 10  4  2 45.0060000  0  5 21 23 12 11 17
  22162410.166   -14992546.571 4 -11682481.673 2
  23658150.310    -2336570.174 3  -1820679.392 2
  25735480.594    -2086357.639 2  -1625732.293 1
  23213310.755   -15422671.854 4 -12017655.816 2
  26212723.213    27835668.578 2  21690129.217 1
 91  8 10  4  3  0.0060000  0  5 21 23 12 11 17
  22162838.290   -14990272.337 4 -11680709.539 2
  23665931.117    -2295693.005 3  -1788827.045 1
  25733208.471    -2098306.645 2  -1635043.144 1
  23210551.771   -15437170.588 4 -12028953.529 2
  26223901.858    27894386.966 2  21735883.797 1
 91  8 10  4  3 15.0060000  0  5 21 23 12 11 17
  22163286.760   -14987916.405 4 -11678873.743 2
  23673719.115    -2254773.640 3  -1756941.829 2
  25730955.822    -2110116.023 2  -1644245.053 1
  23207822.173   -15451515.534 4 -12040131.405 2
  26235079.944    27953142.224 2  21781667.079 1
 91  8 10  4  3 30.0060000  0  5 21 23 12 11 17
  22163749.959   -14985482.241 4 -11676976.994 2
  23681509.520    -2213815.666 3  -1725026.537 2
  25728734.374    -2121789.038 2  -1653341.085 1
  23205116.831   -15465709.914 4 -12051191.955 2
  26246263.998    28011930.515 2  21827476.032 1
 91  8 10  4  3 45.0060000  0  5 21 23 12 11 17
  22164232.911   -14982965.263 4 -11675015.696 2
  23689308.930    -2172814.662 3  -1693077.706 2
  25726539.870    -2133320.692 2  -1662326.853
  23202445.691   -15479748.775 4 -12062131.334 2
  26257463.024    28070756.400 2  21873314.418 1
 91  8 10  4  4  0.0060000  0  5 21 23 12 11 17
  22164721.273   -14980376.985 4 -11672998.845 2
  23697120.939    -2131782.247 3  -1661104.390 2
  25724370.005    -2144722.192 2  -1671211.119 1
  23199802.716   -15493643.322 4 -12072958.232 2
  26268664.493    28129608.283 2  21919172.972 1
 91  8 10  4  4 15.0060000  0  5 21 23 12 11 17
  22165230.924   -14977714.177 4 -11670923.934 2
  23704938.601    -2090715.180 3  -1629104.086 1
  25722228.584    -2155990.025 2  -1679991.272 1
  23197183.124   -15507390.007 4 -12083669.941 2
  26279863.519    28188489.227 2  21965054.277
 91  8 10  4  4 30.0060000  0  5 21 23 12 11 17
  22165753.453   -14974975.966 4 -11668790.248 2
  23712755.985    -2049612.840 3  -1597076.301 2
  25720106.952    -2167122.910 2  -1688666.179 1
  23194604.296   -15520987.577 4 -12094265.429 2
  26291076.366    28247399.999 2  22010958.752 1
 91  8 10  4  4 45.0060000  0  5 21 23 12 11 17
  22166286.488   -14972159.633 4 -11666595.688 2
  23720587.189    -2008472.287 3  -1565018.712 1
  25718015.892    -2178117.831 2  -1697233.651 1
  23192041.697   -15534432.984 4 -12104742.378 2
  26302287.119    28306343.276 2  22056888.528 1
 91  8 10  4  5  0.0060000  0  5 21 23 12 11 17
  22166836.902   -14969266.551 4 -11664341.332 2
  23728421.359    -1967295.092 3  -1532932.587 2
  25715954.219    -2188975.970 2  -1705694.489 1
  23189512.043   -15547727.444 4 -12115101.690 2
  26313514.624    28365317.757 2  22102842.590 1
 91  8 10  4  5 15.0060000  0  5 21 23 12 11 17
  22167400.544   -14966294.588 4 -11662025.509 2
  23736266.628    -1926079.511 3  -1500816.566 2
  25713907.832    -2199694.942 2  -1714046.972 1
  23187011.462   -15560868.482 4 -12125341.446 2
  26324746.073    28424325.118 2  22148822.370 1
 91  8 10  4  5 30.0060000  0  5 21 23 12 11 17
  22167984.219   -14963243.099 4 -11659647.712 2
  23744117.586    -1884824.786 3  -1468670.039 2
  25711906.117    -2210273.680 2  -1722290.084 1
  23184540.860   -15573855.221 4 -12135460.985 2
  26335981.674    28483365.911 2  22194828.191 1
 91  8 10  4  5 45.0060000  0  5 21 23 12 11 17
  22168578.120   -14960113.710 4 -11657209.218 2
  23751976.640    -1843532.421 3  -1436494.155 1
  25709914.594    -2220713.433 2  -1730424.975 1
  23182098.179   -15586688.834 4 -12145461.189 2
  26347224.187    28542438.655 2  22240858.818 1
 91  8 10  4  6  0.0060000  0  5 21 23 12 11 17
  22169190.588   -14956904.395 4 -11654708.448 2
  23759840.511    -1802200.590 3  -1404287.531 1
  25707953.050    -2231011.906 2  -1738449.821 1
  23179689.037   -15599366.998 4 -12155340.278 2
  26358466.106    28601545.097 2  22286915.775 1
 91  8 10  4  6 15.0060000  0  5 21 23 12 11 17
  22169817.749   -14953617.109 4 -11652146.926 2
  23767711.257    -1760831.394 3  -1372051.803 1
  25706021.799    -2241170.722 2  -1746365.673 1
  23177301.184   -15611891.400 4 -12165099.535 2
  26369725.405    28660683.289 2  22332997.399 1
 91  8 10  4  6 30.0060000  0  5 21 23 12 11 17
  22170458.102   -14950253.242 4 -11649525.721 2
  23775591.601    -1719426.187 3  -1339787.991 1
  25704110.023    -2251190.889 2  -1754173.606 1
  23174947.219   -15624263.155 4 -12174739.857 1
  26380978.736    28719851.747 2  22379102.675 1
 91  8 10  4  6 45.0060000  0  5 21 23 12 11 17
  22171107.459   -14946813.384 4 -11646845.295 2
  23783474.632    -1677985.432 3  -1307496.488 2
  25702234.509    -2261072.757 2  -1761873.763 1
  23172621.733   -15636482.439 4 -12184261.375 2
  26392242.817    28779049.747 2  22425231.027 1
 91  8 10  4  7  0.0060000  0  5 21 23 12 11 17
  22171777.792   -14943294.266 4 -11644103.127 2
  23791370.891    -1636506.294 3  -1275175.088 1
  25700379.097    -2270812.812 2  -1769463.448 1
  23170328.914   -15648545.741 4 -12193661.328 2
  26403514.436    28838280.421 2  22471384.782 1
 91  8 10  4  7 15.0060000  0  5 21 23 12 11 17
  22172465.226   -14939699.426 4 -11641301.944 2
  23799268.022    -1594992.537 3  -1242826.706 2
  25698550.349    -2280414.221 2  -1776945.046 1
  23168060.072   -15660456.321 4 -12202942.300 2
  26414797.119    28897540.132 2  22517561.176 1
 91  8 10  4  7 30.0060000  0  5 21 23 12 11 17
  22173164.037   -14936026.921 4 -11638440.246 2
  23807175.030    -1553441.995 3  -1210449.660 2
  25696751.615    -2289874.694 2  -1784316.774 1
  23165823.617   -15672211.889 3 -12212102.464 2
  26426081.895    28956830.749 2  22563761.755 1
 91  8 10  4  7 45.0060000  0  5 21 23 12 11 17
  22173873.633   -14932279.676 4 -11635520.301 2
  23815090.762    -1511857.704 3  -1178046.305 1
  25694979.825    -2299196.916 2  -1791580.877 1
  23163617.177   -15683815.029 4 -12221143.855 2
  26437368.487    29016149.244 2  22609983.847 1
 91  8 10  4  8  0.0060000  0  5 21 23 12 11 17
  22174603.052   -14928453.933 4 -11632539.197 2
  23823007.961    -1470236.024 3  -1145613.839 1
  25693225.764    -2308376.799 2  -1798733.959 1
  23161436.772   -15695261.760 4 -12230063.381 2
  26448654.764    29075499.363 2  22656230.604 1
 91  8 10  4  8 15.0060000  0  5 21 23 12 11 17
  22175347.129   -14924549.173 4 -11629496.523 2
  23830935.072    -1428576.467 3  -1113151.836 1
  25691503.741    -2317413.480 2  -1805775.558 1
  23159288.162   -15706551.378 4 -12238860.470 2
  26459951.860    29134881.378 2  22702502.278 1
 91  8 10  4  8 30.0060000  0  5 21 23 12 11 17
  22176106.493   -14920565.970 4 -11626392.730 2
  23838869.686    -1386879.847 3  -1080660.974 2
  25689820.110    -2326307.300 2  -1812705.843 1
  23157170.124   -15717684.027 4 -12247535.267 2
  26471263.022    29194294.530 2  22748798.145 1
 91  8 10  4  8 45.0060000  0  5 21 23 12 11 17
  22176876.955   -14916507.177 4 -11623230.020 2
  23846811.803    -1345149.021 3  -1048143.459 2
  25688152.357    -2335060.765 2  -1819526.690 1
  23155086.254   -15728662.180 4 -12256089.650 2
  26482569.995    29253736.002 2  22795116.240 1
 91  8 10  4  9  0.0060000  0  5 21 23 12 11 17
  22177662.424   -14912372.248 4 -11620007.996 2
  23854760.796    -1303383.406 3  -1015598.823 1
  25686522.402    -2343673.007 2  -1826237.481 1
  23153021.614   -15739485.060 4 -12264523.055 2
  26493890.475    29313206.103 2  22841456.650
 91  8 10  4  9 15.0060000  0  5 21 23 12 11 17
  22178463.180   -14908159.316 4 -11616725.185 2
  23862717.572    -1261581.393 3   -983025.828 1
  25684902.010    -2352141.946 2  -1832836.597 1
  23150992.293   -15750150.708 4 -12272833.946 2
  26505213.014    29372706.531 2  22887820.590 1
 91  8 10  4  9 30.0060000  0  5 21 23 12 11 17
  22179283.410   -14903869.602 4 -11613382.540 2
  23870677.977    -1219744.248 3   -950425.450 1
  25683316.413    -2360468.509 2  -1839324.861 1
  23148993.580   -15760660.000 4 -12281022.986 2
  26516539.775    29432236.030 2  22934207.111 1
 91  8 10  4  9 45.0060000  0  5 21 23 12 11 17
  22180111.423   -14899501.551 4 -11609978.858 2
  23878647.666    -1177870.189 3   -917796.329 2
  25681756.573    -2368650.830 2  -1845700.662 1
  23147022.753   -15771011.094 4 -12289088.768 2
  26527878.822    29491795.977 2  22980617.430 1
 91  8 10  4 10  0.0060000  0  5 21 23 12 11 17
  22180961.039   -14895052.725 4 -11606512.241 2
  23886623.323    -1135956.960 3   -885136.660 1
  25680230.342    -2376686.233 2  -1851962.002 1
  23145084.906   -15781201.229 4 -12297029.118 2
  26539220.591    29551388.742 2  23027053.357 1
 91  8 10  4 10 15.0060000  0  5 21 23 12 11 17
  22181820.532   -14890524.581 4 -11602983.809 2
  23894602.610    -1094006.195 3   -852447.762 2
  25678730.496    -2384575.787 2  -1858109.699 1
  23143173.130   -15791231.528 4 -12304844.935 2
  26550554.543    29611012.838 2  23073513.646 1
 91  8 10  4 10 30.0060000  0  5 21 23 12 11 17
  22182696.254   -14885922.871 4 -11599398.048 2
  23902595.089    -1052023.851 3   -819734.281 2
  25677251.625    -2392325.114 2  -1864148.099 1
  23141294.614   -15801107.611 4 -12312540.578 2
  26561909.190    29670662.280 1  23119993.773 1
 91  8 10  4 10 45.0060000  0  5 21 23 12 11 17
  22183591.136   -14881244.067 4 -11595752.227 2
  23910586.939    -1010006.474 3   -786993.451 1
  25675808.108    -2399930.274 2  -1870074.206 1
  23139446.391   -15810825.570 4 -12320112.987 2
  26573265.617    29730340.772 2  23166496.419
 91  8 10  4 11  0.0060000  0  5 21 23 12 11 17
  22184496.209   -14876488.598 4 -11592046.650 2
  23918593.204     -967954.314 3   -754225.551 1
  25674387.695    -2407391.364 2  -1875887.980 1
  23137628.463   -15820385.568 4 -12327562.332 2
  26584623.231    29790047.665 2  23213021.344 1
 91  8 10  4 11 15.0060000  0  5 21 23 12 11 17
  22185413.252   -14871657.730 4 -11588282.331 2
  23926601.563     -925868.727 3   -721431.562 1
  25672993.667    -2414709.402 2  -1881590.363 1
  23135839.885   -15829788.561 4 -12334889.347 2
  26596006.950    29849781.524 2  23259567.158 1
 91  8 10  4 11 30.0060000  0  5 21 23 12 11 17
  22186347.398   -14866751.471 4 -11584459.264 2
  23934618.297     -883749.801 3   -688611.618 1
  25671635.307    -2421884.303 2  -1887181.193 1
  23134075.912   -15839034.341 4 -12342093.834 1
  26607378.105    29909542.054 2  23306133.741 1
 91  8 10  4 11 45.0060000  0  5 21 23 12 11 17
  22187297.457   -14861766.544 4 -11580574.901 2
  23942633.252     -841594.652 3   -655763.446 2
  25670293.141    -2428912.368 2  -1892657.604 1
  23132347.922   -15848119.336 4 -12349173.056 2
  26618752.227    29969332.512 2  23352723.731 1
 91  8 10  4 12  0.0060000  0  5 21 23 12 11 17
  22188259.488   -14856702.289 4 -11576628.716 2
  23950665.308     -799402.604 3   -622886.546 1
  25668983.921    -2435792.600 2  -1898018.838 1
  23130648.376   -15857042.623 4 -12356126.239 2
  26630126.663    30029153.371 2  23399337.309 1
 91  8 10  4 12 15.0060000  0  5 21 23 12 11 17
  22189236.525   -14851562.689 4 -11572623.832 2
  23958698.830     -757177.702 3   -589984.025 2
  25667706.531    -2442528.810 2  -1903267.764 1
  23128984.532   -15865807.899 4 -12362956.331 2
  26641519.073    30089000.695 2  23445971.512 1
 91  8 10  4 12 30.0060000  0  5 21 23 12 11 17
  22190225.534   -14846347.596 4 -11568560.111 2
  23966743.764     -714919.469 3   -557055.534 2
  25666451.581    -2449120.408 2  -1908404.092 1
  23127340.477   -15874414.593 3 -12369662.832 2
  26652916.857    30148874.700 2  23492626.638 1
 91  8 10  4 12 45.0060000  0  5 21 23 12 11 17
  22191237.332   -14841055.077 4 -11564436.062 2
  23974791.386     -672626.314 3   -524099.834 2
  25665222.736    -2455565.428 2  -1913426.122 1
  23125735.372   -15882860.659 4 -12376244.176 2
  26664314.397    30208776.985 2  23539303.739 1
 91  8 10  4 13  0.0060000  0  5 21 23 12 11 17
  22192255.727   -14835684.185 4 -11560250.951 2
  23982845.639     -630297.521 3   -491116.351 1
  25664022.964    -2461862.690 2  -1918333.070 1
  23124160.280   -15891144.914 4 -12382699.449 2
  26675714.275    30268708.516 2  23586003.501 1
 91  8 10  4 13 15.0060000  0  5 21 23 12 11 17
  22193292.410   -14830236.336 4 -11556005.860 2
  23990905.231     -587934.399 3   -458106.127 1
  25662854.986    -2468013.321 2  -1923125.787 1
  23122614.540   -15899268.578 3 -12389029.559 2
  26687130.975    30328667.330 2  23632724.812 1
 91  8 10  4 13 30.0060000  0  5 21 23 12 11 17
  22194342.878   -14824714.808 4 -11551703.368 2
  23998971.769     -545540.361 3   -425071.801 1
  25661715.173    -2474020.173 2  -1927806.480 1
  23121103.281   -15907234.542 4 -12395236.803 2
  26698545.267    30388650.228 2  23679464.722 1
 91  8 10  4 13 45.0060000  0  5 21 23 12 11 17
  22195413.135   -14819115.831 4 -11547340.522 2
  24007047.276     -503111.609 3   -392010.449 2
  25660594.241    -2479879.288 2  -1932371.924 1
  23119615.720   -15915038.784 4 -12401318.016 2
  26709963.782    30448661.117 2  23726226.368 1
 91  8 10  4 14  0.0060000  0  5 21 23 12 11 17
  22196491.802   -14813436.964 4 -11542915.439 2
  24015126.378     -460646.052 3   -358920.411 1
  25659506.883    -2485587.985 2  -1936820.252 1
  23118162.326   -15922678.625 4 -12407271.152 2
  26721386.485    30508702.046 2  23773011.546 1
 91  8 10  4 14 15.0060000  0  5 21 23 12 11 17
  22197585.442   -14807679.309 4 -11538428.937 2
  24023214.170     -418144.602 3   -325802.396 1
  25658451.319    -2491146.959 2  -1941151.910 1
  23116738.912   -15930154.799 4 -12413096.736 2
  26732816.343    30568772.213 2  23819819.381 1
 91  8 10  4 14 30.0060000  0  4 21 23 12 11
  22198697.650   -14801845.295 4 -11533882.961 2
  24031310.373     -375609.788 3   -292658.374 1
  25657422.733    -2496558.535 2  -1945368.669 1
  23115347.571   -15937469.664 4 -12418796.632 2
 91  8 10  4 14 45.0060000  0  4 21 23 12 11
  22199820.082   -14795937.132 4 -11529279.193 2
  24039411.357     -333043.844 3   -259490.100 1
  25656416.624    -2501824.610 2  -1949472.147 1
  23113983.522   -15944624.980 4 -12424372.198 2
 91  8 10  4 15  0.0060000  0  4 21 23 12 11
  22200957.208   -14789952.867 4 -11524616.127 2
  24047511.748     -290445.030 3   -226296.220 1
  25655443.495    -2506943.050 2  -1953460.475 1
  23112654.549   -15951618.724 4 -12429821.857 2
 91  8 10  4 15 15.0060000  0  4 21 23 12 11
  22202116.810   -14783890.808 4 -11519892.439 2
  24055630.148     -247811.643 3   -193075.387 1
  25654500.345    -2511911.879 2  -1957332.268 1
  23111351.052   -15958449.003 4 -12435144.167 2
 91  8 10  4 15 30.0060000  0  4 21 23 12 11
  22203281.194   -14777750.933 4 -11515108.120 2
  24063746.419     -205143.841 3   -159827.751 1
  25653581.801    -2516730.900 2  -1961087.401 1
  23110086.819   -15965115.548 4 -12440338.880 2
 91  8 10  4 15 45.0060000  0  4 21 23 12 11
  22204463.271   -14771534.894 4 -11510264.441 2
  24071871.973     -162443.127 3   -126554.472 1
  25652694.422    -2521401.243 2  -1964726.570 1
  23108848.377   -15971619.581 3 -12445406.949 2
 91  8 10  4 16  0.0060000  0  4 21 23 12 11
  22205664.823   -14765242.426 4 -11505361.219 2
  24080010.161     -119709.438 3    -93255.477 1
  25651836.709    -2525922.374 2  -1968249.487 1
  23107645.010   -15977960.655 4 -12450348.042 2
 91  8 10  4 16 15.0060000  0  4 21 23 12 11
  22206873.600   -14758875.875 4 -11500400.262 2
  24088146.535      -76945.264 3    -59932.748 1
  25650994.597    -2530296.583 2  -1971657.967 1
  23106464.712   -15984141.043 4 -12455163.928 2
 91  8 10  4 16 30.0060000  0  4 21 23 12 11
  22208103.352   -14752432.456 4 -11495379.415 2
  24096288.003      -34147.746 3    -26584.039 2
  25650193.841    -2534520.925 2  -1974949.625 1
  23105321.025   -15990157.665 4 -12459852.212 2
 91  8 10  4 16 45.0060000  0  4 21 23 12 11
  22209342.980   -14745914.447 4 -11490300.442 2
  24104439.942        8680.663 3      6788.764 2
  25649421.564    -2538597.351 2  -1978126.022 1
  23104206.096   -15996012.360 4 -12464414.308 2
 91  8 10  4 17  0.0060000  0  4 21 23 12 11
  22210596.430   -14739318.437 4 -11485160.699 2
  24112594.604       51543.531 3     40188.381 1
  25648674.800    -2542522.080 2  -1981184.269 1
  23103125.648   -16001701.563 4 -12468847.448 1
 91  8 10  4 17 15.0060000  0  4 21 23 12 11
  22211865.444   -14732647.811 4 -11479962.797 2
  24120756.140       94437.212 3     73612.030 1
  25647955.292    -2546298.271 2  -1984126.747 1
  23102071.585   -16007228.267 4 -12473153.978 2
 91  8 10  4 17 30.0060000  0  4 21 23 12 11
  22213150.653   -14725901.401 4 -11474705.847 2
  24128923.680      137363.004 3    107060.693 1
  25647262.170    -2549924.487 2  -1986952.333 1
  23101048.374   -16012591.080 4 -12477332.785 2
 91  8 10  4 17 45.0060000  0  4 21 23 12 11
  22214449.368   -14719074.429 4 -11469386.136 2
  24137103.225      180325.424 3    140537.901 1
  25646601.714    -2553395.911 2  -1989657.222 1
  23100064.461   -16017785.233 3 -12481380.174 2
 91  8 10  4 18  0.0060000  0  4 21 23 12 11
  22215756.738   -14712170.532 4 -11464006.465 2
  24145283.364      223320.808 3    174040.823 1
  25645973.645    -2556715.856 2  -1992244.280 1
  23099109.306   -16022814.135 4 -12485298.803 2
 91  8 10  4 18 15.0060000  0  4 21 23 12 11
  22217091.121   -14705185.723 4 -11458563.755 2
  24153474.007      266353.199 3    207572.564 1
  25645371.089    -2559880.012 2  -1994709.854 1
  23098179.663   -16027673.436 4 -12489085.279 2
 91  8 10  4 18 30.0060000  0  4 21 23 12 11
  22218435.381   -14698126.405 4 -11453062.981 2
  24161666.431      309416.143 3    241128.109 1
  25644801.759    -2562894.514 2  -1997058.739 1
  23097287.782   -16032369.340 4 -12492744.430 2
 91  8 10  4 18 45.0060000  0  4 21 23 12 11
  22219791.961   -14690989.348 4 -11447501.634 2
  24169868.452      352512.891 3    274709.967 1
  25644248.657    -2565755.917 2  -1999288.376 1
  23096429.790   -16036898.327 4 -12496273.499 2
 91  8 10  4 19  0.0060000  0  4 21 23 12 11
  22221162.920   -14683778.661 4 -11441882.916 2
  24178072.253      395638.759 3    308314.548 1
  25643729.408    -2568468.231 2  -2001401.828 1
  23095593.366   -16041264.424 4 -12499675.662 2
 91  8 10  4 19 15.0060000  0  4 21 23 12 11
  22222550.038   -14676489.632 4 -11436203.144 2
  24186285.687      438798.486 3    341945.501 1
  25643244.362    -2571026.579 2  -2003395.416 1
  23094797.113   -16045462.738 4 -12502947.064 2
 91  8 10  4 19 30.0060000  0  4 21 23 12 11
  22223949.197   -14669123.669 4 -11430463.421 2
  24194507.775      481990.924 3    375601.975 1
  25642793.169    -2573432.128 2  -2005269.808 1
  23094026.022   -16049494.474 4 -12506088.692 2
 91  8 10  4 19 45.0060000  0  4 21 23 12 11
  22225366.608   -14661681.383 4 -11424664.239 2
  24202730.493      525215.408 3    409283.406 1
  25642366.267    -2575685.123 2  -2007025.376 1
  23093290.042   -16053359.910 4 -12509100.725 2
 91  8 10  4 20  0.0060000  0  4 21 23 12 11
  22226800.213   -14654162.643 4 -11418805.479 2
  24210964.901      568471.844 3    442989.723 1
  25641962.434    -2577785.274 2  -2008661.843 1
  23092589.730   -16057058.681 3 -12511982.881 2
 91  8 10  4 20 15.0060000  0  5 21 23 12 11 15
  22228246.417   -14646567.627 4 -11412887.272 2
  24219201.997      611760.148 3    476720.857 1
  25641599.399    -2579732.553 2  -2010179.167 1
  23091918.804   -16060590.743 4 -12514735.150 2
  26548486.273           0.669 2         0.162 1
 91  8 10  4 20 30.0060000  0  5 21 23 12 11 15
  22229704.592   -14638895.105 4 -11406908.683 2
  24227444.189      655081.504 3    510477.762 1
  25641250.116    -2581525.419 2  -2011576.194 1
  23091278.730   -16063954.701 4 -12517356.399 2
  26540293.535      -43137.646 2    -33614.047 1
 91  8 10  4 20 45.0060000  0  5 21 23 12 11 15
  22231178.368   -14631149.662 4 -11400873.271 2
  24235698.980      698431.047 3    544256.617 1
  25640938.036    -2583168.419 2  -2012856.455 1
  23090667.170   -16067155.079 4 -12519850.222 2
  26532064.536      -86277.991 2    -67229.828 1
 91  8 10  4 21  0.0060000  0  5 21 23 12 11 15
  22232668.931   -14623326.988 4 -11394777.671 2
  24243949.268      741813.146 3    578060.852 1
  25640658.937    -2584656.892 2  -2014016.301 1
  23090088.869   -16070187.205 4 -12522212.907 2
  26523879.302     -129415.697 2   -100843.578 1
 91  8 10  4 21 15.0060000  0  5 21 23 12 11 15
  22234170.906   -14615424.031 4 -11388619.510 2
  24252208.561      785230.614 3    611892.671 1
  25640401.407    -2585987.620 2  -2015053.126 1
  23089543.236   -16073047.755 3 -12524441.919 2
  26515664.403     -172547.482 2   -134452.792 1
 91  8 10  4 21 30.0060000  0  5 21 23 12 11 15
  22235690.855   -14607441.927 4 -11382399.687 2
  24260479.231      828682.535 3    645751.313 1
  25640182.267    -2587161.442 2  -2015967.796 1
  23089033.585   -16075737.619 4 -12526537.914 2
  26507458.473     -215674.116 2   -168057.745 1
 91  8 10  4 21 45.0060000  0  5 21 23 12 11 15
  22237222.774   -14599383.976 4 -11376120.769 2
  24268755.590      872165.533 3    679634.158 1
  25639987.104    -2588181.579 2  -2016762.721 1
  23088557.508   -16078259.981 4 -12528503.400 1
  26499252.264     -258798.553 2   -201661.256 1
